<?xml version="1.0" encoding="UTF-8" standalone="no" ?>
<gpx xmlns="http://www.topografix.com/GPX/1/1" xmlns:xsi="http://www.w3.org/2001/XMLSchema-instance" xsi:schemaLocation="http://www.topografix.com/GPX/1/1 http://www.topografix.com/GPX/1/1/gpx.xsd" version="1.1" creator="VisuGPX - https://www.visugpx.com">
  <metadata>
    <name>83-Me-Seillans</name>
    <desc><![CDATA[83-Me-Seillans : le Lac de Méaulx
2022-10-05]]></desc>
  </metadata>
  <trk>
    <name><![CDATA[2022-10-05-Me-seillans]]></name>
    <extensions>
      <line xmlns="http://www.topografix.com/GPX/gpx_style/0/2">
        <width>4</width>
      </line>
    </extensions>
    <trkseg>
      <trkpt lat="43.58042" lon="6.62267">
        <ele>279</ele>
        <time>2022-10-05T12:23:14.000Z</time>
      </trkpt>
      <trkpt lat="43.5804" lon="6.62269">
        <ele>279</ele>
        <time>2022-10-05T12:24:30.000Z</time>
      </trkpt>
      <trkpt lat="43.58039" lon="6.62268">
        <ele>279</ele>
        <time>2022-10-05T12:24:31.000Z</time>
      </trkpt>
      <trkpt lat="43.58035" lon="6.62261">
        <ele>279.1</ele>
        <time>2022-10-05T12:24:38.000Z</time>
      </trkpt>
      <trkpt lat="43.58032" lon="6.62258">
        <ele>279.2</ele>
        <time>2022-10-05T12:24:42.000Z</time>
      </trkpt>
      <trkpt lat="43.58029" lon="6.62253">
        <ele>279.3</ele>
        <time>2022-10-05T12:24:47.000Z</time>
      </trkpt>
      <trkpt lat="43.58025" lon="6.6225">
        <ele>279.7</ele>
        <time>2022-10-05T12:25:03.000Z</time>
      </trkpt>
      <trkpt lat="43.58023" lon="6.62246">
        <ele>279.8</ele>
        <time>2022-10-05T12:25:09.000Z</time>
      </trkpt>
      <trkpt lat="43.58018" lon="6.62244">
        <ele>280.1</ele>
        <time>2022-10-05T12:25:14.000Z</time>
      </trkpt>
      <trkpt lat="43.58015" lon="6.62242">
        <ele>280.4</ele>
        <time>2022-10-05T12:25:19.000Z</time>
      </trkpt>
      <trkpt lat="43.58011" lon="6.62241">
        <ele>280.6</ele>
        <time>2022-10-05T12:25:23.000Z</time>
      </trkpt>
      <trkpt lat="43.58007" lon="6.62239">
        <ele>280.8</ele>
        <time>2022-10-05T12:25:28.000Z</time>
      </trkpt>
      <trkpt lat="43.58004" lon="6.62239">
        <ele>281</ele>
        <time>2022-10-05T12:25:32.000Z</time>
      </trkpt>
      <trkpt lat="43.58002" lon="6.62238">
        <ele>281.1</ele>
        <time>2022-10-05T12:25:33.000Z</time>
      </trkpt>
      <trkpt lat="43.57995" lon="6.6224">
        <ele>281.5</ele>
        <time>2022-10-05T12:25:41.000Z</time>
      </trkpt>
      <trkpt lat="43.57991" lon="6.6224">
        <ele>281.8</ele>
        <time>2022-10-05T12:25:46.000Z</time>
      </trkpt>
      <trkpt lat="43.57987" lon="6.62243">
        <ele>282</ele>
        <time>2022-10-05T12:25:51.000Z</time>
      </trkpt>
      <trkpt lat="43.57983" lon="6.62244">
        <ele>282.2</ele>
        <time>2022-10-05T12:25:56.000Z</time>
      </trkpt>
      <trkpt lat="43.57979" lon="6.62245">
        <ele>282.4</ele>
        <time>2022-10-05T12:26:01.000Z</time>
      </trkpt>
      <trkpt lat="43.57975" lon="6.62247">
        <ele>282.5</ele>
        <time>2022-10-05T12:26:06.000Z</time>
      </trkpt>
      <trkpt lat="43.57971" lon="6.62249">
        <ele>282.7</ele>
        <time>2022-10-05T12:26:10.000Z</time>
      </trkpt>
      <trkpt lat="43.57968" lon="6.6225">
        <ele>282.8</ele>
        <time>2022-10-05T12:26:13.000Z</time>
      </trkpt>
      <trkpt lat="43.57964" lon="6.62252">
        <ele>282.9</ele>
        <time>2022-10-05T12:26:16.000Z</time>
      </trkpt>
      <trkpt lat="43.57961" lon="6.62254">
        <ele>282.9</ele>
        <time>2022-10-05T12:26:19.000Z</time>
      </trkpt>
      <trkpt lat="43.57957" lon="6.62255">
        <ele>283.1</ele>
        <time>2022-10-05T12:26:23.000Z</time>
      </trkpt>
      <trkpt lat="43.57953" lon="6.62256">
        <ele>283.2</ele>
        <time>2022-10-05T12:26:27.000Z</time>
      </trkpt>
      <trkpt lat="43.5795" lon="6.62258">
        <ele>283.3</ele>
        <time>2022-10-05T12:26:30.000Z</time>
      </trkpt>
      <trkpt lat="43.57946" lon="6.62259">
        <ele>283.4</ele>
        <time>2022-10-05T12:26:34.000Z</time>
      </trkpt>
      <trkpt lat="43.57945" lon="6.62259">
        <ele>283.4</ele>
        <time>2022-10-05T12:26:35.000Z</time>
      </trkpt>
      <trkpt lat="43.57938" lon="6.6226">
        <ele>283.6</ele>
        <time>2022-10-05T12:26:42.000Z</time>
      </trkpt>
      <trkpt lat="43.57934" lon="6.6226">
        <ele>283.7</ele>
        <time>2022-10-05T12:26:45.000Z</time>
      </trkpt>
      <trkpt lat="43.5793" lon="6.6226">
        <ele>283.9</ele>
        <time>2022-10-05T12:26:49.000Z</time>
      </trkpt>
      <trkpt lat="43.57926" lon="6.6226">
        <ele>284.1</ele>
        <time>2022-10-05T12:26:53.000Z</time>
      </trkpt>
      <trkpt lat="43.57921" lon="6.6226">
        <ele>284.2</ele>
        <time>2022-10-05T12:26:57.000Z</time>
      </trkpt>
      <trkpt lat="43.57918" lon="6.6226">
        <ele>284.3</ele>
        <time>2022-10-05T12:27:00.000Z</time>
      </trkpt>
      <trkpt lat="43.57914" lon="6.62261">
        <ele>284.4</ele>
        <time>2022-10-05T12:27:04.000Z</time>
      </trkpt>
      <trkpt lat="43.5791" lon="6.6226">
        <ele>284.4</ele>
        <time>2022-10-05T12:27:07.000Z</time>
      </trkpt>
      <trkpt lat="43.57906" lon="6.6226">
        <ele>284.5</ele>
        <time>2022-10-05T12:27:11.000Z</time>
      </trkpt>
      <trkpt lat="43.57902" lon="6.62261">
        <ele>284.7</ele>
        <time>2022-10-05T12:27:15.000Z</time>
      </trkpt>
      <trkpt lat="43.57898" lon="6.62262">
        <ele>284.9</ele>
        <time>2022-10-05T12:27:18.000Z</time>
      </trkpt>
      <trkpt lat="43.57894" lon="6.62263">
        <ele>285.1</ele>
        <time>2022-10-05T12:27:21.000Z</time>
      </trkpt>
      <trkpt lat="43.5789" lon="6.62263">
        <ele>285.3</ele>
        <time>2022-10-05T12:27:25.000Z</time>
      </trkpt>
      <trkpt lat="43.57886" lon="6.62262">
        <ele>285.5</ele>
        <time>2022-10-05T12:27:30.000Z</time>
      </trkpt>
      <trkpt lat="43.57882" lon="6.62262">
        <ele>285.7</ele>
        <time>2022-10-05T12:27:34.000Z</time>
      </trkpt>
      <trkpt lat="43.57878" lon="6.62262">
        <ele>285.9</ele>
        <time>2022-10-05T12:27:37.000Z</time>
      </trkpt>
      <trkpt lat="43.57877" lon="6.62263">
        <ele>286</ele>
        <time>2022-10-05T12:27:38.000Z</time>
      </trkpt>
      <trkpt lat="43.5787" lon="6.62263">
        <ele>286.4</ele>
        <time>2022-10-05T12:27:45.000Z</time>
      </trkpt>
      <trkpt lat="43.57866" lon="6.62263">
        <ele>286.6</ele>
        <time>2022-10-05T12:27:50.000Z</time>
      </trkpt>
      <trkpt lat="43.57862" lon="6.62263">
        <ele>286.8</ele>
        <time>2022-10-05T12:27:54.000Z</time>
      </trkpt>
      <trkpt lat="43.57859" lon="6.62266">
        <ele>286.9</ele>
        <time>2022-10-05T12:27:57.000Z</time>
      </trkpt>
      <trkpt lat="43.57855" lon="6.62268">
        <ele>287.2</ele>
        <time>2022-10-05T12:28:01.000Z</time>
      </trkpt>
      <trkpt lat="43.57852" lon="6.62271">
        <ele>287.5</ele>
        <time>2022-10-05T12:28:05.000Z</time>
      </trkpt>
      <trkpt lat="43.57849" lon="6.62275">
        <ele>287.9</ele>
        <time>2022-10-05T12:28:09.000Z</time>
      </trkpt>
      <trkpt lat="43.57846" lon="6.62279">
        <ele>288.2</ele>
        <time>2022-10-05T12:28:13.000Z</time>
      </trkpt>
      <trkpt lat="43.57843" lon="6.62283">
        <ele>288.4</ele>
        <time>2022-10-05T12:28:17.000Z</time>
      </trkpt>
      <trkpt lat="43.5784" lon="6.62287">
        <ele>288.5</ele>
        <time>2022-10-05T12:28:20.000Z</time>
      </trkpt>
      <trkpt lat="43.57838" lon="6.6229">
        <ele>288.7</ele>
        <time>2022-10-05T12:28:23.000Z</time>
      </trkpt>
      <trkpt lat="43.57835" lon="6.62294">
        <ele>288.9</ele>
        <time>2022-10-05T12:28:27.000Z</time>
      </trkpt>
      <trkpt lat="43.57833" lon="6.62298">
        <ele>289.2</ele>
        <time>2022-10-05T12:28:30.000Z</time>
      </trkpt>
      <trkpt lat="43.5783" lon="6.62302">
        <ele>289.4</ele>
        <time>2022-10-05T12:28:33.000Z</time>
      </trkpt>
      <trkpt lat="43.57827" lon="6.62306">
        <ele>289.6</ele>
        <time>2022-10-05T12:28:37.000Z</time>
      </trkpt>
      <trkpt lat="43.57825" lon="6.6231">
        <ele>289.7</ele>
        <time>2022-10-05T12:28:41.000Z</time>
      </trkpt>
      <trkpt lat="43.57824" lon="6.62312">
        <ele>289.8</ele>
        <time>2022-10-05T12:28:42.000Z</time>
      </trkpt>
      <trkpt lat="43.5782" lon="6.6232">
        <ele>290</ele>
        <time>2022-10-05T12:28:48.000Z</time>
      </trkpt>
      <trkpt lat="43.57818" lon="6.62324">
        <ele>290.2</ele>
        <time>2022-10-05T12:28:51.000Z</time>
      </trkpt>
      <trkpt lat="43.57817" lon="6.62329">
        <ele>290.5</ele>
        <time>2022-10-05T12:28:55.000Z</time>
      </trkpt>
      <trkpt lat="43.57816" lon="6.62334">
        <ele>290.7</ele>
        <time>2022-10-05T12:28:59.000Z</time>
      </trkpt>
      <trkpt lat="43.57814" lon="6.62339">
        <ele>290.9</ele>
        <time>2022-10-05T12:29:03.000Z</time>
      </trkpt>
      <trkpt lat="43.57813" lon="6.62345">
        <ele>291.1</ele>
        <time>2022-10-05T12:29:07.000Z</time>
      </trkpt>
      <trkpt lat="43.57811" lon="6.6235">
        <ele>291.2</ele>
        <time>2022-10-05T12:29:11.000Z</time>
      </trkpt>
      <trkpt lat="43.5781" lon="6.62355">
        <ele>291.3</ele>
        <time>2022-10-05T12:29:15.000Z</time>
      </trkpt>
      <trkpt lat="43.57808" lon="6.62361">
        <ele>291.3</ele>
        <time>2022-10-05T12:29:19.000Z</time>
      </trkpt>
      <trkpt lat="43.57806" lon="6.62366">
        <ele>291.4</ele>
        <time>2022-10-05T12:29:23.000Z</time>
      </trkpt>
      <trkpt lat="43.57804" lon="6.62371">
        <ele>291.5</ele>
        <time>2022-10-05T12:29:27.000Z</time>
      </trkpt>
      <trkpt lat="43.57801" lon="6.62376">
        <ele>291.7</ele>
        <time>2022-10-05T12:29:31.000Z</time>
      </trkpt>
      <trkpt lat="43.57799" lon="6.62381">
        <ele>291.8</ele>
        <time>2022-10-05T12:29:35.000Z</time>
      </trkpt>
      <trkpt lat="43.57797" lon="6.62385">
        <ele>291.9</ele>
        <time>2022-10-05T12:29:38.000Z</time>
      </trkpt>
      <trkpt lat="43.57794" lon="6.62388">
        <ele>292</ele>
        <time>2022-10-05T12:29:41.000Z</time>
      </trkpt>
      <trkpt lat="43.57792" lon="6.62392">
        <ele>292</ele>
        <time>2022-10-05T12:29:44.000Z</time>
      </trkpt>
      <trkpt lat="43.57792" lon="6.62393">
        <ele>292</ele>
        <time>2022-10-05T12:29:45.000Z</time>
      </trkpt>
      <trkpt lat="43.57787" lon="6.624">
        <ele>292.1</ele>
        <time>2022-10-05T12:29:52.000Z</time>
      </trkpt>
      <trkpt lat="43.57785" lon="6.62404">
        <ele>292.2</ele>
        <time>2022-10-05T12:29:55.000Z</time>
      </trkpt>
      <trkpt lat="43.57782" lon="6.62408">
        <ele>292.1</ele>
        <time>2022-10-05T12:29:58.000Z</time>
      </trkpt>
      <trkpt lat="43.5778" lon="6.62411">
        <ele>292</ele>
        <time>2022-10-05T12:30:01.000Z</time>
      </trkpt>
      <trkpt lat="43.57777" lon="6.62415">
        <ele>292</ele>
        <time>2022-10-05T12:30:04.000Z</time>
      </trkpt>
      <trkpt lat="43.57775" lon="6.62418">
        <ele>291.9</ele>
        <time>2022-10-05T12:30:07.000Z</time>
      </trkpt>
      <trkpt lat="43.57772" lon="6.62422">
        <ele>291.9</ele>
        <time>2022-10-05T12:30:10.000Z</time>
      </trkpt>
      <trkpt lat="43.5777" lon="6.62426">
        <ele>291.8</ele>
        <time>2022-10-05T12:30:13.000Z</time>
      </trkpt>
      <trkpt lat="43.57767" lon="6.6243">
        <ele>291.8</ele>
        <time>2022-10-05T12:30:16.000Z</time>
      </trkpt>
      <trkpt lat="43.57765" lon="6.62433">
        <ele>291.7</ele>
        <time>2022-10-05T12:30:19.000Z</time>
      </trkpt>
      <trkpt lat="43.57762" lon="6.62437">
        <ele>291.5</ele>
        <time>2022-10-05T12:30:22.000Z</time>
      </trkpt>
      <trkpt lat="43.5776" lon="6.62442">
        <ele>291.4</ele>
        <time>2022-10-05T12:30:26.000Z</time>
      </trkpt>
      <trkpt lat="43.57757" lon="6.62445">
        <ele>291.1</ele>
        <time>2022-10-05T12:30:30.000Z</time>
      </trkpt>
      <trkpt lat="43.57754" lon="6.6245">
        <ele>290.8</ele>
        <time>2022-10-05T12:30:34.000Z</time>
      </trkpt>
      <trkpt lat="43.57751" lon="6.62453">
        <ele>290.6</ele>
        <time>2022-10-05T12:30:37.000Z</time>
      </trkpt>
      <trkpt lat="43.57748" lon="6.62456">
        <ele>290.4</ele>
        <time>2022-10-05T12:30:40.000Z</time>
      </trkpt>
      <trkpt lat="43.57746" lon="6.6246">
        <ele>290.3</ele>
        <time>2022-10-05T12:30:43.000Z</time>
      </trkpt>
      <trkpt lat="43.57743" lon="6.62463">
        <ele>290</ele>
        <time>2022-10-05T12:30:47.000Z</time>
      </trkpt>
      <trkpt lat="43.57742" lon="6.62464">
        <ele>290</ele>
        <time>2022-10-05T12:30:48.000Z</time>
      </trkpt>
      <trkpt lat="43.57736" lon="6.62469">
        <ele>289.5</ele>
        <time>2022-10-05T12:30:54.000Z</time>
      </trkpt>
      <trkpt lat="43.57733" lon="6.62472">
        <ele>289.2</ele>
        <time>2022-10-05T12:30:58.000Z</time>
      </trkpt>
      <trkpt lat="43.57729" lon="6.62475">
        <ele>288.9</ele>
        <time>2022-10-05T12:31:01.000Z</time>
      </trkpt>
      <trkpt lat="43.57727" lon="6.62477">
        <ele>288.6</ele>
        <time>2022-10-05T12:31:03.000Z</time>
      </trkpt>
      <trkpt lat="43.57723" lon="6.6248">
        <ele>288.3</ele>
        <time>2022-10-05T12:31:06.000Z</time>
      </trkpt>
      <trkpt lat="43.5772" lon="6.62482">
        <ele>287.9</ele>
        <time>2022-10-05T12:31:09.000Z</time>
      </trkpt>
      <trkpt lat="43.57717" lon="6.62484">
        <ele>287.7</ele>
        <time>2022-10-05T12:31:11.000Z</time>
      </trkpt>
      <trkpt lat="43.57714" lon="6.62486">
        <ele>287.4</ele>
        <time>2022-10-05T12:31:14.000Z</time>
      </trkpt>
      <trkpt lat="43.5771" lon="6.62489">
        <ele>287.2</ele>
        <time>2022-10-05T12:31:17.000Z</time>
      </trkpt>
      <trkpt lat="43.57707" lon="6.62492">
        <ele>286.9</ele>
        <time>2022-10-05T12:31:21.000Z</time>
      </trkpt>
      <trkpt lat="43.57703" lon="6.62495">
        <ele>286.6</ele>
        <time>2022-10-05T12:31:25.000Z</time>
      </trkpt>
      <trkpt lat="43.57699" lon="6.62498">
        <ele>286.4</ele>
        <time>2022-10-05T12:31:28.000Z</time>
      </trkpt>
      <trkpt lat="43.57696" lon="6.625">
        <ele>286.2</ele>
        <time>2022-10-05T12:31:31.000Z</time>
      </trkpt>
      <trkpt lat="43.57693" lon="6.62502">
        <ele>286.1</ele>
        <time>2022-10-05T12:31:33.000Z</time>
      </trkpt>
      <trkpt lat="43.57689" lon="6.62504">
        <ele>286</ele>
        <time>2022-10-05T12:31:36.000Z</time>
      </trkpt>
      <trkpt lat="43.57686" lon="6.62505">
        <ele>285.7</ele>
        <time>2022-10-05T12:31:39.000Z</time>
      </trkpt>
      <trkpt lat="43.57683" lon="6.62506">
        <ele>285.4</ele>
        <time>2022-10-05T12:31:42.000Z</time>
      </trkpt>
      <trkpt lat="43.57679" lon="6.62507">
        <ele>285.1</ele>
        <time>2022-10-05T12:31:45.000Z</time>
      </trkpt>
      <trkpt lat="43.57675" lon="6.62508">
        <ele>284.8</ele>
        <time>2022-10-05T12:31:48.000Z</time>
      </trkpt>
      <trkpt lat="43.57674" lon="6.62508">
        <ele>284.7</ele>
        <time>2022-10-05T12:31:49.000Z</time>
      </trkpt>
      <trkpt lat="43.57668" lon="6.62508">
        <ele>284.2</ele>
        <time>2022-10-05T12:31:54.000Z</time>
      </trkpt>
      <trkpt lat="43.57664" lon="6.62506">
        <ele>284</ele>
        <time>2022-10-05T12:31:57.000Z</time>
      </trkpt>
      <trkpt lat="43.57661" lon="6.62505">
        <ele>283.8</ele>
        <time>2022-10-05T12:31:59.900Z</time>
      </trkpt>
      <trkpt lat="43.57657" lon="6.62503">
        <ele>283.6</ele>
        <time>2022-10-05T12:32:03.000Z</time>
      </trkpt>
      <trkpt lat="43.57654" lon="6.62502">
        <ele>283.4</ele>
        <time>2022-10-05T12:32:06.000Z</time>
      </trkpt>
      <trkpt lat="43.5765" lon="6.625">
        <ele>283.2</ele>
        <time>2022-10-05T12:32:09.000Z</time>
      </trkpt>
      <trkpt lat="43.57647" lon="6.62497">
        <ele>283</ele>
        <time>2022-10-05T12:32:12.000Z</time>
      </trkpt>
      <trkpt lat="43.57645" lon="6.62494">
        <ele>282.9</ele>
        <time>2022-10-05T12:32:15.000Z</time>
      </trkpt>
      <trkpt lat="43.57642" lon="6.62491">
        <ele>282.6</ele>
        <time>2022-10-05T12:32:18.000Z</time>
      </trkpt>
      <trkpt lat="43.57639" lon="6.62488">
        <ele>282.3</ele>
        <time>2022-10-05T12:32:21.000Z</time>
      </trkpt>
      <trkpt lat="43.57636" lon="6.62485">
        <ele>282.1</ele>
        <time>2022-10-05T12:32:24.000Z</time>
      </trkpt>
      <trkpt lat="43.57633" lon="6.62482">
        <ele>282</ele>
        <time>2022-10-05T12:32:27.000Z</time>
      </trkpt>
      <trkpt lat="43.5763" lon="6.6248">
        <ele>281.8</ele>
        <time>2022-10-05T12:32:30.000Z</time>
      </trkpt>
      <trkpt lat="43.57626" lon="6.62478">
        <ele>281.6</ele>
        <time>2022-10-05T12:32:33.000Z</time>
      </trkpt>
      <trkpt lat="43.57622" lon="6.62477">
        <ele>281.5</ele>
        <time>2022-10-05T12:32:36.000Z</time>
      </trkpt>
      <trkpt lat="43.57619" lon="6.62477">
        <ele>281.4</ele>
        <time>2022-10-05T12:32:39.000Z</time>
      </trkpt>
      <trkpt lat="43.57615" lon="6.62477">
        <ele>281.2</ele>
        <time>2022-10-05T12:32:42.000Z</time>
      </trkpt>
      <trkpt lat="43.57611" lon="6.62478">
        <ele>281.1</ele>
        <time>2022-10-05T12:32:45.000Z</time>
      </trkpt>
      <trkpt lat="43.57607" lon="6.6248">
        <ele>281</ele>
        <time>2022-10-05T12:32:49.000Z</time>
      </trkpt>
      <trkpt lat="43.57603" lon="6.62482">
        <ele>281.1</ele>
        <time>2022-10-05T12:32:53.000Z</time>
      </trkpt>
      <trkpt lat="43.57602" lon="6.62482">
        <ele>281.1</ele>
        <time>2022-10-05T12:32:54.000Z</time>
      </trkpt>
      <trkpt lat="43.57596" lon="6.62484">
        <ele>281.1</ele>
        <time>2022-10-05T12:32:59.000Z</time>
      </trkpt>
      <trkpt lat="43.57591" lon="6.62484">
        <ele>281.1</ele>
        <time>2022-10-05T12:33:02.000Z</time>
      </trkpt>
      <trkpt lat="43.57588" lon="6.62483">
        <ele>281.2</ele>
        <time>2022-10-05T12:33:05.000Z</time>
      </trkpt>
      <trkpt lat="43.57584" lon="6.62482">
        <ele>281.2</ele>
        <time>2022-10-05T12:33:08.000Z</time>
      </trkpt>
      <trkpt lat="43.5758" lon="6.62481">
        <ele>281.2</ele>
        <time>2022-10-05T12:33:11.000Z</time>
      </trkpt>
      <trkpt lat="43.57577" lon="6.6248">
        <ele>281.2</ele>
        <time>2022-10-05T12:33:14.000Z</time>
      </trkpt>
      <trkpt lat="43.57573" lon="6.62478">
        <ele>281.2</ele>
        <time>2022-10-05T12:33:18.000Z</time>
      </trkpt>
      <trkpt lat="43.57569" lon="6.62477">
        <ele>281.4</ele>
        <time>2022-10-05T12:33:22.000Z</time>
      </trkpt>
      <trkpt lat="43.57565" lon="6.62476">
        <ele>281.6</ele>
        <time>2022-10-05T12:33:25.000Z</time>
      </trkpt>
      <trkpt lat="43.57561" lon="6.62475">
        <ele>281.7</ele>
        <time>2022-10-05T12:33:28.000Z</time>
      </trkpt>
      <trkpt lat="43.57558" lon="6.62475">
        <ele>281.9</ele>
        <time>2022-10-05T12:33:31.000Z</time>
      </trkpt>
      <trkpt lat="43.57554" lon="6.62475">
        <ele>282.1</ele>
        <time>2022-10-05T12:33:34.000Z</time>
      </trkpt>
      <trkpt lat="43.5755" lon="6.62475">
        <ele>282.3</ele>
        <time>2022-10-05T12:33:37.000Z</time>
      </trkpt>
      <trkpt lat="43.57546" lon="6.62474">
        <ele>282.5</ele>
        <time>2022-10-05T12:33:40.000Z</time>
      </trkpt>
      <trkpt lat="43.57542" lon="6.62475">
        <ele>282.6</ele>
        <time>2022-10-05T12:33:44.000Z</time>
      </trkpt>
      <trkpt lat="43.57538" lon="6.62475">
        <ele>282.7</ele>
        <time>2022-10-05T12:33:47.000Z</time>
      </trkpt>
      <trkpt lat="43.57535" lon="6.62476">
        <ele>282.9</ele>
        <time>2022-10-05T12:33:50.000Z</time>
      </trkpt>
      <trkpt lat="43.5753" lon="6.62477">
        <ele>282.9</ele>
        <time>2022-10-05T12:33:53.000Z</time>
      </trkpt>
      <trkpt lat="43.57527" lon="6.62477">
        <ele>282.8</ele>
        <time>2022-10-05T12:33:56.000Z</time>
      </trkpt>
      <trkpt lat="43.57525" lon="6.62477">
        <ele>282.8</ele>
        <time>2022-10-05T12:33:57.000Z</time>
      </trkpt>
      <trkpt lat="43.57519" lon="6.62478">
        <ele>282.7</ele>
        <time>2022-10-05T12:34:02.000Z</time>
      </trkpt>
      <trkpt lat="43.57515" lon="6.62479">
        <ele>282.6</ele>
        <time>2022-10-05T12:34:05.000Z</time>
      </trkpt>
      <trkpt lat="43.57511" lon="6.6248">
        <ele>282.5</ele>
        <time>2022-10-05T12:34:09.000Z</time>
      </trkpt>
      <trkpt lat="43.57508" lon="6.62481">
        <ele>282.4</ele>
        <time>2022-10-05T12:34:12.000Z</time>
      </trkpt>
      <trkpt lat="43.57504" lon="6.62483">
        <ele>282.2</ele>
        <time>2022-10-05T12:34:16.000Z</time>
      </trkpt>
      <trkpt lat="43.575" lon="6.62483">
        <ele>282.1</ele>
        <time>2022-10-05T12:34:20.000Z</time>
      </trkpt>
      <trkpt lat="43.57496" lon="6.62484">
        <ele>282</ele>
        <time>2022-10-05T12:34:23.000Z</time>
      </trkpt>
      <trkpt lat="43.57493" lon="6.62486">
        <ele>281.9</ele>
        <time>2022-10-05T12:34:27.000Z</time>
      </trkpt>
      <trkpt lat="43.57489" lon="6.62488">
        <ele>281.9</ele>
        <time>2022-10-05T12:34:31.000Z</time>
      </trkpt>
      <trkpt lat="43.57485" lon="6.6249">
        <ele>281.8</ele>
        <time>2022-10-05T12:34:34.000Z</time>
      </trkpt>
      <trkpt lat="43.57481" lon="6.62492">
        <ele>281.8</ele>
        <time>2022-10-05T12:34:37.000Z</time>
      </trkpt>
      <trkpt lat="43.57477" lon="6.62493">
        <ele>281.7</ele>
        <time>2022-10-05T12:34:40.000Z</time>
      </trkpt>
      <trkpt lat="43.57474" lon="6.62495">
        <ele>281.6</ele>
        <time>2022-10-05T12:34:43.000Z</time>
      </trkpt>
      <trkpt lat="43.5747" lon="6.62497">
        <ele>281.5</ele>
        <time>2022-10-05T12:34:46.000Z</time>
      </trkpt>
      <trkpt lat="43.57467" lon="6.62498">
        <ele>281.4</ele>
        <time>2022-10-05T12:34:49.000Z</time>
      </trkpt>
      <trkpt lat="43.57463" lon="6.62501">
        <ele>281.4</ele>
        <time>2022-10-05T12:34:52.000Z</time>
      </trkpt>
      <trkpt lat="43.57459" lon="6.62504">
        <ele>281.3</ele>
        <time>2022-10-05T12:34:56.000Z</time>
      </trkpt>
      <trkpt lat="43.57456" lon="6.62506">
        <ele>281.2</ele>
        <time>2022-10-05T12:34:59.000Z</time>
      </trkpt>
      <trkpt lat="43.57455" lon="6.62507">
        <ele>281.2</ele>
        <time>2022-10-05T12:35:00.000Z</time>
      </trkpt>
      <trkpt lat="43.57449" lon="6.62511">
        <ele>281.1</ele>
        <time>2022-10-05T12:35:06.000Z</time>
      </trkpt>
      <trkpt lat="43.57445" lon="6.62512">
        <ele>281</ele>
        <time>2022-10-05T12:35:09.000Z</time>
      </trkpt>
      <trkpt lat="43.57441" lon="6.62513">
        <ele>281</ele>
        <time>2022-10-05T12:35:12.000Z</time>
      </trkpt>
      <trkpt lat="43.57438" lon="6.62513">
        <ele>280.9</ele>
        <time>2022-10-05T12:35:15.000Z</time>
      </trkpt>
      <trkpt lat="43.57434" lon="6.62514">
        <ele>280.9</ele>
        <time>2022-10-05T12:35:18.000Z</time>
      </trkpt>
      <trkpt lat="43.5743" lon="6.62514">
        <ele>280.9</ele>
        <time>2022-10-05T12:35:21.000Z</time>
      </trkpt>
      <trkpt lat="43.57428" lon="6.62514">
        <ele>280.8</ele>
        <time>2022-10-05T12:35:23.000Z</time>
      </trkpt>
      <trkpt lat="43.57424" lon="6.62515">
        <ele>280.8</ele>
        <time>2022-10-05T12:35:25.000Z</time>
      </trkpt>
      <trkpt lat="43.5742" lon="6.62513">
        <ele>280.8</ele>
        <time>2022-10-05T12:35:29.000Z</time>
      </trkpt>
      <trkpt lat="43.57417" lon="6.62509">
        <ele>280.7</ele>
        <time>2022-10-05T12:35:33.000Z</time>
      </trkpt>
      <trkpt lat="43.57414" lon="6.62506">
        <ele>280.7</ele>
        <time>2022-10-05T12:35:36.000Z</time>
      </trkpt>
      <trkpt lat="43.57411" lon="6.62503">
        <ele>280.8</ele>
        <time>2022-10-05T12:35:39.000Z</time>
      </trkpt>
      <trkpt lat="43.57408" lon="6.625">
        <ele>280.8</ele>
        <time>2022-10-05T12:35:43.000Z</time>
      </trkpt>
      <trkpt lat="43.57406" lon="6.62496">
        <ele>280.8</ele>
        <time>2022-10-05T12:35:46.000Z</time>
      </trkpt>
      <trkpt lat="43.57402" lon="6.62492">
        <ele>280.8</ele>
        <time>2022-10-05T12:35:49.000Z</time>
      </trkpt>
      <trkpt lat="43.574" lon="6.62488">
        <ele>280.8</ele>
        <time>2022-10-05T12:35:53.000Z</time>
      </trkpt>
      <trkpt lat="43.57396" lon="6.62484">
        <ele>280.9</ele>
        <time>2022-10-05T12:35:57.000Z</time>
      </trkpt>
      <trkpt lat="43.57393" lon="6.62481">
        <ele>280.9</ele>
        <time>2022-10-05T12:36:00.000Z</time>
      </trkpt>
      <trkpt lat="43.57392" lon="6.6248">
        <ele>280.9</ele>
        <time>2022-10-05T12:36:01.000Z</time>
      </trkpt>
      <trkpt lat="43.57386" lon="6.62477">
        <ele>281.2</ele>
        <time>2022-10-05T12:36:05.000Z</time>
      </trkpt>
      <trkpt lat="43.57384" lon="6.62475">
        <ele>281.3</ele>
        <time>2022-10-05T12:36:07.000Z</time>
      </trkpt>
      <trkpt lat="43.57381" lon="6.62473">
        <ele>281.4</ele>
        <time>2022-10-05T12:36:09.000Z</time>
      </trkpt>
      <trkpt lat="43.57378" lon="6.62469">
        <ele>281.5</ele>
        <time>2022-10-05T12:36:12.000Z</time>
      </trkpt>
      <trkpt lat="43.57376" lon="6.62465">
        <ele>281.7</ele>
        <time>2022-10-05T12:36:15.000Z</time>
      </trkpt>
      <trkpt lat="43.57374" lon="6.62461">
        <ele>281.9</ele>
        <time>2022-10-05T12:36:18.000Z</time>
      </trkpt>
      <trkpt lat="43.57371" lon="6.62457">
        <ele>282.1</ele>
        <time>2022-10-05T12:36:21.000Z</time>
      </trkpt>
      <trkpt lat="43.57369" lon="6.62453">
        <ele>282.4</ele>
        <time>2022-10-05T12:36:24.000Z</time>
      </trkpt>
      <trkpt lat="43.57367" lon="6.62449">
        <ele>282.7</ele>
        <time>2022-10-05T12:36:27.000Z</time>
      </trkpt>
      <trkpt lat="43.57364" lon="6.62444">
        <ele>283.1</ele>
        <time>2022-10-05T12:36:30.000Z</time>
      </trkpt>
      <trkpt lat="43.57362" lon="6.62441">
        <ele>283.5</ele>
        <time>2022-10-05T12:36:33.000Z</time>
      </trkpt>
      <trkpt lat="43.57359" lon="6.62437">
        <ele>283.8</ele>
        <time>2022-10-05T12:36:36.000Z</time>
      </trkpt>
      <trkpt lat="43.57356" lon="6.62434">
        <ele>284</ele>
        <time>2022-10-05T12:36:39.000Z</time>
      </trkpt>
      <trkpt lat="43.57353" lon="6.6243">
        <ele>284.3</ele>
        <time>2022-10-05T12:36:43.000Z</time>
      </trkpt>
      <trkpt lat="43.57349" lon="6.62429">
        <ele>284.6</ele>
        <time>2022-10-05T12:36:47.000Z</time>
      </trkpt>
      <trkpt lat="43.57345" lon="6.62429">
        <ele>284.9</ele>
        <time>2022-10-05T12:36:50.000Z</time>
      </trkpt>
      <trkpt lat="43.57341" lon="6.62431">
        <ele>285.4</ele>
        <time>2022-10-05T12:36:54.000Z</time>
      </trkpt>
      <trkpt lat="43.57338" lon="6.62434">
        <ele>285.7</ele>
        <time>2022-10-05T12:36:57.000Z</time>
      </trkpt>
      <trkpt lat="43.57335" lon="6.62439">
        <ele>286</ele>
        <time>2022-10-05T12:37:01.000Z</time>
      </trkpt>
      <trkpt lat="43.57335" lon="6.6244">
        <ele>286.1</ele>
        <time>2022-10-05T12:37:02.000Z</time>
      </trkpt>
      <trkpt lat="43.57331" lon="6.62447">
        <ele>286.5</ele>
        <time>2022-10-05T12:37:07.000Z</time>
      </trkpt>
      <trkpt lat="43.57328" lon="6.62452">
        <ele>286.7</ele>
        <time>2022-10-05T12:37:11.000Z</time>
      </trkpt>
      <trkpt lat="43.57326" lon="6.62456">
        <ele>286.8</ele>
        <time>2022-10-05T12:37:14.000Z</time>
      </trkpt>
      <trkpt lat="43.57324" lon="6.6246">
        <ele>286.9</ele>
        <time>2022-10-05T12:37:17.000Z</time>
      </trkpt>
      <trkpt lat="43.57322" lon="6.62465">
        <ele>287.1</ele>
        <time>2022-10-05T12:37:20.000Z</time>
      </trkpt>
      <trkpt lat="43.57319" lon="6.62468">
        <ele>287.3</ele>
        <time>2022-10-05T12:37:23.000Z</time>
      </trkpt>
      <trkpt lat="43.57316" lon="6.62473">
        <ele>287.5</ele>
        <time>2022-10-05T12:37:27.000Z</time>
      </trkpt>
      <trkpt lat="43.57313" lon="6.62477">
        <ele>287.7</ele>
        <time>2022-10-05T12:37:31.000Z</time>
      </trkpt>
      <trkpt lat="43.57311" lon="6.6248">
        <ele>287.9</ele>
        <time>2022-10-05T12:37:34.000Z</time>
      </trkpt>
      <trkpt lat="43.57306" lon="6.62482">
        <ele>288.1</ele>
        <time>2022-10-05T12:37:38.000Z</time>
      </trkpt>
      <trkpt lat="43.57303" lon="6.62484">
        <ele>288.4</ele>
        <time>2022-10-05T12:37:42.000Z</time>
      </trkpt>
      <trkpt lat="43.57299" lon="6.62485">
        <ele>288.7</ele>
        <time>2022-10-05T12:37:45.000Z</time>
      </trkpt>
      <trkpt lat="43.57296" lon="6.62487">
        <ele>289</ele>
        <time>2022-10-05T12:37:48.000Z</time>
      </trkpt>
      <trkpt lat="43.57292" lon="6.62489">
        <ele>289.2</ele>
        <time>2022-10-05T12:37:51.000Z</time>
      </trkpt>
      <trkpt lat="43.57289" lon="6.62492">
        <ele>289.5</ele>
        <time>2022-10-05T12:37:54.000Z</time>
      </trkpt>
      <trkpt lat="43.57285" lon="6.62495">
        <ele>289.8</ele>
        <time>2022-10-05T12:37:57.000Z</time>
      </trkpt>
      <trkpt lat="43.57282" lon="6.62498">
        <ele>290.1</ele>
        <time>2022-10-05T12:38:01.000Z</time>
      </trkpt>
      <trkpt lat="43.57279" lon="6.62503">
        <ele>290.3</ele>
        <time>2022-10-05T12:38:05.000Z</time>
      </trkpt>
      <trkpt lat="43.57278" lon="6.62504">
        <ele>290.3</ele>
        <time>2022-10-05T12:38:06.000Z</time>
      </trkpt>
      <trkpt lat="43.57274" lon="6.62512">
        <ele>290.6</ele>
        <time>2022-10-05T12:38:12.000Z</time>
      </trkpt>
      <trkpt lat="43.57272" lon="6.62516">
        <ele>290.8</ele>
        <time>2022-10-05T12:38:15.000Z</time>
      </trkpt>
      <trkpt lat="43.5727" lon="6.6252">
        <ele>290.9</ele>
        <time>2022-10-05T12:38:18.000Z</time>
      </trkpt>
      <trkpt lat="43.57268" lon="6.62525">
        <ele>291.1</ele>
        <time>2022-10-05T12:38:22.000Z</time>
      </trkpt>
      <trkpt lat="43.57266" lon="6.6253">
        <ele>291.3</ele>
        <time>2022-10-05T12:38:26.000Z</time>
      </trkpt>
      <trkpt lat="43.57265" lon="6.62536">
        <ele>291.5</ele>
        <time>2022-10-05T12:38:30.000Z</time>
      </trkpt>
      <trkpt lat="43.57263" lon="6.6254">
        <ele>291.8</ele>
        <time>2022-10-05T12:38:33.000Z</time>
      </trkpt>
      <trkpt lat="43.57261" lon="6.62544">
        <ele>291.9</ele>
        <time>2022-10-05T12:38:36.000Z</time>
      </trkpt>
      <trkpt lat="43.57259" lon="6.62548">
        <ele>292.1</ele>
        <time>2022-10-05T12:38:39.000Z</time>
      </trkpt>
      <trkpt lat="43.57256" lon="6.62553">
        <ele>292.2</ele>
        <time>2022-10-05T12:38:43.000Z</time>
      </trkpt>
      <trkpt lat="43.57254" lon="6.62556">
        <ele>292.2</ele>
        <time>2022-10-05T12:38:46.000Z</time>
      </trkpt>
      <trkpt lat="43.57251" lon="6.6256">
        <ele>292.2</ele>
        <time>2022-10-05T12:38:49.000Z</time>
      </trkpt>
      <trkpt lat="43.57248" lon="6.62563">
        <ele>292.2</ele>
        <time>2022-10-05T12:38:52.000Z</time>
      </trkpt>
      <trkpt lat="43.57245" lon="6.62566">
        <ele>292.2</ele>
        <time>2022-10-05T12:38:55.000Z</time>
      </trkpt>
      <trkpt lat="43.57243" lon="6.6257">
        <ele>292.1</ele>
        <time>2022-10-05T12:38:58.000Z</time>
      </trkpt>
      <trkpt lat="43.57239" lon="6.62573">
        <ele>291.9</ele>
        <time>2022-10-05T12:39:02.000Z</time>
      </trkpt>
      <trkpt lat="43.57236" lon="6.62576">
        <ele>291.8</ele>
        <time>2022-10-05T12:39:05.000Z</time>
      </trkpt>
      <trkpt lat="43.57234" lon="6.62579">
        <ele>291.6</ele>
        <time>2022-10-05T12:39:08.000Z</time>
      </trkpt>
      <trkpt lat="43.57233" lon="6.6258">
        <ele>291.6</ele>
        <time>2022-10-05T12:39:09.000Z</time>
      </trkpt>
      <trkpt lat="43.57228" lon="6.62585">
        <ele>291.2</ele>
        <time>2022-10-05T12:39:14.000Z</time>
      </trkpt>
      <trkpt lat="43.57225" lon="6.62588">
        <ele>291</ele>
        <time>2022-10-05T12:39:18.000Z</time>
      </trkpt>
      <trkpt lat="43.57222" lon="6.62592">
        <ele>290.7</ele>
        <time>2022-10-05T12:39:22.000Z</time>
      </trkpt>
      <trkpt lat="43.57219" lon="6.62596">
        <ele>290.5</ele>
        <time>2022-10-05T12:39:26.000Z</time>
      </trkpt>
      <trkpt lat="43.57216" lon="6.62599">
        <ele>290.3</ele>
        <time>2022-10-05T12:39:29.000Z</time>
      </trkpt>
      <trkpt lat="43.57213" lon="6.62603">
        <ele>289.9</ele>
        <time>2022-10-05T12:39:33.000Z</time>
      </trkpt>
      <trkpt lat="43.5721" lon="6.62606">
        <ele>289.7</ele>
        <time>2022-10-05T12:39:36.000Z</time>
      </trkpt>
      <trkpt lat="43.57208" lon="6.6261">
        <ele>289.3</ele>
        <time>2022-10-05T12:39:39.000Z</time>
      </trkpt>
      <trkpt lat="43.57205" lon="6.62614">
        <ele>288.8</ele>
        <time>2022-10-05T12:39:43.000Z</time>
      </trkpt>
      <trkpt lat="43.57202" lon="6.62618">
        <ele>288.4</ele>
        <time>2022-10-05T12:39:47.000Z</time>
      </trkpt>
      <trkpt lat="43.57199" lon="6.62621">
        <ele>288.1</ele>
        <time>2022-10-05T12:39:50.000Z</time>
      </trkpt>
      <trkpt lat="43.57195" lon="6.62624">
        <ele>287.9</ele>
        <time>2022-10-05T12:39:53.000Z</time>
      </trkpt>
      <trkpt lat="43.57193" lon="6.62627">
        <ele>287.7</ele>
        <time>2022-10-05T12:39:56.000Z</time>
      </trkpt>
      <trkpt lat="43.5719" lon="6.6263">
        <ele>287.5</ele>
        <time>2022-10-05T12:39:59.000Z</time>
      </trkpt>
      <trkpt lat="43.57187" lon="6.62633">
        <ele>287.2</ele>
        <time>2022-10-05T12:40:02.000Z</time>
      </trkpt>
      <trkpt lat="43.57184" lon="6.62636">
        <ele>287</ele>
        <time>2022-10-05T12:40:05.000Z</time>
      </trkpt>
      <trkpt lat="43.5718" lon="6.62638">
        <ele>286.8</ele>
        <time>2022-10-05T12:40:08.000Z</time>
      </trkpt>
      <trkpt lat="43.57176" lon="6.62641">
        <ele>286.4</ele>
        <time>2022-10-05T12:40:12.000Z</time>
      </trkpt>
      <trkpt lat="43.57175" lon="6.62642">
        <ele>286.3</ele>
        <time>2022-10-05T12:40:13.000Z</time>
      </trkpt>
      <trkpt lat="43.5717" lon="6.62645">
        <ele>286</ele>
        <time>2022-10-05T12:40:18.000Z</time>
      </trkpt>
      <trkpt lat="43.57166" lon="6.62645">
        <ele>285.7</ele>
        <time>2022-10-05T12:40:22.000Z</time>
      </trkpt>
      <trkpt lat="43.57162" lon="6.62643">
        <ele>285.4</ele>
        <time>2022-10-05T12:40:26.000Z</time>
      </trkpt>
      <trkpt lat="43.57159" lon="6.62639">
        <ele>285.1</ele>
        <time>2022-10-05T12:40:30.000Z</time>
      </trkpt>
      <trkpt lat="43.57157" lon="6.62633">
        <ele>284.8</ele>
        <time>2022-10-05T12:40:34.000Z</time>
      </trkpt>
      <trkpt lat="43.57157" lon="6.62628">
        <ele>284.2</ele>
        <time>2022-10-05T12:40:38.000Z</time>
      </trkpt>
      <trkpt lat="43.57158" lon="6.62622">
        <ele>283.8</ele>
        <time>2022-10-05T12:40:42.000Z</time>
      </trkpt>
      <trkpt lat="43.5716" lon="6.62617">
        <ele>283.5</ele>
        <time>2022-10-05T12:40:46.000Z</time>
      </trkpt>
      <trkpt lat="43.57162" lon="6.62612">
        <ele>283.2</ele>
        <time>2022-10-05T12:40:50.000Z</time>
      </trkpt>
      <trkpt lat="43.57163" lon="6.62606">
        <ele>282.9</ele>
        <time>2022-10-05T12:40:54.000Z</time>
      </trkpt>
      <trkpt lat="43.57164" lon="6.62602">
        <ele>282.8</ele>
        <time>2022-10-05T12:40:56.000Z</time>
      </trkpt>
      <trkpt lat="43.57165" lon="6.62597">
        <ele>282.6</ele>
        <time>2022-10-05T12:40:59.000Z</time>
      </trkpt>
      <trkpt lat="43.57165" lon="6.62592">
        <ele>282.4</ele>
        <time>2022-10-05T12:41:02.000Z</time>
      </trkpt>
      <trkpt lat="43.57166" lon="6.62586">
        <ele>282.1</ele>
        <time>2022-10-05T12:41:06.000Z</time>
      </trkpt>
      <trkpt lat="43.57166" lon="6.62581">
        <ele>281.9</ele>
        <time>2022-10-05T12:41:09.000Z</time>
      </trkpt>
      <trkpt lat="43.57166" lon="6.62576">
        <ele>281.5</ele>
        <time>2022-10-05T12:41:12.000Z</time>
      </trkpt>
      <trkpt lat="43.57167" lon="6.6257">
        <ele>281</ele>
        <time>2022-10-05T12:41:16.000Z</time>
      </trkpt>
      <trkpt lat="43.57167" lon="6.62569">
        <ele>280.9</ele>
        <time>2022-10-05T12:41:17.000Z</time>
      </trkpt>
      <trkpt lat="43.57167" lon="6.6256">
        <ele>280.4</ele>
        <time>2022-10-05T12:41:22.000Z</time>
      </trkpt>
      <trkpt lat="43.57167" lon="6.62555">
        <ele>280.2</ele>
        <time>2022-10-05T12:41:25.000Z</time>
      </trkpt>
      <trkpt lat="43.57166" lon="6.62549">
        <ele>279.8</ele>
        <time>2022-10-05T12:41:29.000Z</time>
      </trkpt>
      <trkpt lat="43.57165" lon="6.62544">
        <ele>279.5</ele>
        <time>2022-10-05T12:41:33.000Z</time>
      </trkpt>
      <trkpt lat="43.57165" lon="6.62538">
        <ele>279.1</ele>
        <time>2022-10-05T12:41:37.000Z</time>
      </trkpt>
      <trkpt lat="43.57164" lon="6.62534">
        <ele>278.8</ele>
        <time>2022-10-05T12:41:40.000Z</time>
      </trkpt>
      <trkpt lat="43.57162" lon="6.62528">
        <ele>278.5</ele>
        <time>2022-10-05T12:41:43.000Z</time>
      </trkpt>
      <trkpt lat="43.57161" lon="6.62523">
        <ele>278.2</ele>
        <time>2022-10-05T12:41:47.000Z</time>
      </trkpt>
      <trkpt lat="43.57159" lon="6.62518">
        <ele>277.9</ele>
        <time>2022-10-05T12:41:51.000Z</time>
      </trkpt>
      <trkpt lat="43.57157" lon="6.62514">
        <ele>277.8</ele>
        <time>2022-10-05T12:41:54.000Z</time>
      </trkpt>
      <trkpt lat="43.57155" lon="6.6251">
        <ele>277.7</ele>
        <time>2022-10-05T12:41:57.000Z</time>
      </trkpt>
      <trkpt lat="43.57154" lon="6.62506">
        <ele>277.5</ele>
        <time>2022-10-05T12:42:00.000Z</time>
      </trkpt>
      <trkpt lat="43.57152" lon="6.62502">
        <ele>277.4</ele>
        <time>2022-10-05T12:42:03.000Z</time>
      </trkpt>
      <trkpt lat="43.57149" lon="6.62498">
        <ele>277.3</ele>
        <time>2022-10-05T12:42:06.000Z</time>
      </trkpt>
      <trkpt lat="43.57147" lon="6.62495">
        <ele>277.2</ele>
        <time>2022-10-05T12:42:09.000Z</time>
      </trkpt>
      <trkpt lat="43.57144" lon="6.62492">
        <ele>277.1</ele>
        <time>2022-10-05T12:42:12.000Z</time>
      </trkpt>
      <trkpt lat="43.57141" lon="6.62489">
        <ele>277.1</ele>
        <time>2022-10-05T12:42:15.000Z</time>
      </trkpt>
      <trkpt lat="43.57139" lon="6.62486">
        <ele>277</ele>
        <time>2022-10-05T12:42:18.000Z</time>
      </trkpt>
      <trkpt lat="43.57138" lon="6.62485">
        <ele>277</ele>
        <time>2022-10-05T12:42:19.000Z</time>
      </trkpt>
      <trkpt lat="43.57133" lon="6.62481">
        <ele>276.7</ele>
        <time>2022-10-05T12:42:24.000Z</time>
      </trkpt>
      <trkpt lat="43.57129" lon="6.62479">
        <ele>276.5</ele>
        <time>2022-10-05T12:42:27.000Z</time>
      </trkpt>
      <trkpt lat="43.57126" lon="6.62478">
        <ele>276.2</ele>
        <time>2022-10-05T12:42:30.000Z</time>
      </trkpt>
      <trkpt lat="43.57122" lon="6.62476">
        <ele>275.9</ele>
        <time>2022-10-05T12:42:33.000Z</time>
      </trkpt>
      <trkpt lat="43.57119" lon="6.62473">
        <ele>275.6</ele>
        <time>2022-10-05T12:42:36.000Z</time>
      </trkpt>
      <trkpt lat="43.57116" lon="6.62471">
        <ele>275.4</ele>
        <time>2022-10-05T12:42:39.000Z</time>
      </trkpt>
      <trkpt lat="43.57113" lon="6.62468">
        <ele>275.1</ele>
        <time>2022-10-05T12:42:42.000Z</time>
      </trkpt>
      <trkpt lat="43.57109" lon="6.62465">
        <ele>274.9</ele>
        <time>2022-10-05T12:42:45.000Z</time>
      </trkpt>
      <trkpt lat="43.57107" lon="6.62462">
        <ele>274.7</ele>
        <time>2022-10-05T12:42:48.000Z</time>
      </trkpt>
      <trkpt lat="43.57104" lon="6.62458">
        <ele>274.5</ele>
        <time>2022-10-05T12:42:51.000Z</time>
      </trkpt>
      <trkpt lat="43.57102" lon="6.62454">
        <ele>274.3</ele>
        <time>2022-10-05T12:42:54.000Z</time>
      </trkpt>
      <trkpt lat="43.571" lon="6.62449">
        <ele>274.2</ele>
        <time>2022-10-05T12:42:57.000Z</time>
      </trkpt>
      <trkpt lat="43.57098" lon="6.62445">
        <ele>274.1</ele>
        <time>2022-10-05T12:43:00.000Z</time>
      </trkpt>
      <trkpt lat="43.57096" lon="6.62441">
        <ele>274</ele>
        <time>2022-10-05T12:43:03.000Z</time>
      </trkpt>
      <trkpt lat="43.57093" lon="6.62436">
        <ele>273.9</ele>
        <time>2022-10-05T12:43:06.000Z</time>
      </trkpt>
      <trkpt lat="43.5709" lon="6.62433">
        <ele>273.8</ele>
        <time>2022-10-05T12:43:09.000Z</time>
      </trkpt>
      <trkpt lat="43.57087" lon="6.62429">
        <ele>273.6</ele>
        <time>2022-10-05T12:43:12.000Z</time>
      </trkpt>
      <trkpt lat="43.57084" lon="6.62426">
        <ele>273.5</ele>
        <time>2022-10-05T12:43:16.000Z</time>
      </trkpt>
      <trkpt lat="43.57081" lon="6.62424">
        <ele>273.1</ele>
        <time>2022-10-05T12:43:22.000Z</time>
      </trkpt>
      <trkpt lat="43.57079" lon="6.62424">
        <ele>273.1</ele>
        <time>2022-10-05T12:43:23.000Z</time>
      </trkpt>
      <trkpt lat="43.57072" lon="6.62428">
        <ele>272.7</ele>
        <time>2022-10-05T12:43:30.000Z</time>
      </trkpt>
      <trkpt lat="43.5707" lon="6.62431">
        <ele>272.4</ele>
        <time>2022-10-05T12:43:33.000Z</time>
      </trkpt>
      <trkpt lat="43.57068" lon="6.62436">
        <ele>272.1</ele>
        <time>2022-10-05T12:43:37.000Z</time>
      </trkpt>
      <trkpt lat="43.57066" lon="6.62442">
        <ele>271.6</ele>
        <time>2022-10-05T12:43:42.000Z</time>
      </trkpt>
      <trkpt lat="43.57063" lon="6.62446">
        <ele>271.1</ele>
        <time>2022-10-05T12:43:47.000Z</time>
      </trkpt>
      <trkpt lat="43.5706" lon="6.62449">
        <ele>270.6</ele>
        <time>2022-10-05T12:43:51.000Z</time>
      </trkpt>
      <trkpt lat="43.57057" lon="6.6245">
        <ele>270.2</ele>
        <time>2022-10-05T12:43:55.000Z</time>
      </trkpt>
      <trkpt lat="43.57053" lon="6.62451">
        <ele>269.8</ele>
        <time>2022-10-05T12:43:58.000Z</time>
      </trkpt>
      <trkpt lat="43.5705" lon="6.6245">
        <ele>269.5</ele>
        <time>2022-10-05T12:44:01.000Z</time>
      </trkpt>
      <trkpt lat="43.57046" lon="6.6245">
        <ele>269.1</ele>
        <time>2022-10-05T12:44:05.000Z</time>
      </trkpt>
      <trkpt lat="43.57042" lon="6.62448">
        <ele>268.8</ele>
        <time>2022-10-05T12:44:08.000Z</time>
      </trkpt>
      <trkpt lat="43.57039" lon="6.62446">
        <ele>268.6</ele>
        <time>2022-10-05T12:44:11.000Z</time>
      </trkpt>
      <trkpt lat="43.57035" lon="6.62444">
        <ele>268.2</ele>
        <time>2022-10-05T12:44:15.000Z</time>
      </trkpt>
      <trkpt lat="43.57031" lon="6.62441">
        <ele>267.7</ele>
        <time>2022-10-05T12:44:19.000Z</time>
      </trkpt>
      <trkpt lat="43.57027" lon="6.62438">
        <ele>267.1</ele>
        <time>2022-10-05T12:44:23.000Z</time>
      </trkpt>
      <trkpt lat="43.57024" lon="6.62435">
        <ele>266.7</ele>
        <time>2022-10-05T12:44:26.000Z</time>
      </trkpt>
      <trkpt lat="43.57023" lon="6.62434">
        <ele>266.6</ele>
        <time>2022-10-05T12:44:27.000Z</time>
      </trkpt>
      <trkpt lat="43.57018" lon="6.62431">
        <ele>265.8</ele>
        <time>2022-10-05T12:44:33.000Z</time>
      </trkpt>
      <trkpt lat="43.57014" lon="6.6243">
        <ele>265.5</ele>
        <time>2022-10-05T12:44:36.000Z</time>
      </trkpt>
      <trkpt lat="43.5701" lon="6.6243">
        <ele>265.1</ele>
        <time>2022-10-05T12:44:39.000Z</time>
      </trkpt>
      <trkpt lat="43.57007" lon="6.62431">
        <ele>264.9</ele>
        <time>2022-10-05T12:44:42.000Z</time>
      </trkpt>
      <trkpt lat="43.57003" lon="6.62433">
        <ele>264.6</ele>
        <time>2022-10-05T12:44:45.000Z</time>
      </trkpt>
      <trkpt lat="43.56999" lon="6.62434">
        <ele>264.4</ele>
        <time>2022-10-05T12:44:48.000Z</time>
      </trkpt>
      <trkpt lat="43.56996" lon="6.62437">
        <ele>264.1</ele>
        <time>2022-10-05T12:44:52.000Z</time>
      </trkpt>
      <trkpt lat="43.56992" lon="6.62441">
        <ele>263.8</ele>
        <time>2022-10-05T12:44:56.000Z</time>
      </trkpt>
      <trkpt lat="43.56989" lon="6.62443">
        <ele>263.4</ele>
        <time>2022-10-05T12:44:59.000Z</time>
      </trkpt>
      <trkpt lat="43.56985" lon="6.62444">
        <ele>263.1</ele>
        <time>2022-10-05T12:45:02.000Z</time>
      </trkpt>
      <trkpt lat="43.56982" lon="6.62444">
        <ele>262.9</ele>
        <time>2022-10-05T12:45:05.000Z</time>
      </trkpt>
      <trkpt lat="43.56978" lon="6.62446">
        <ele>262.6</ele>
        <time>2022-10-05T12:45:08.000Z</time>
      </trkpt>
      <trkpt lat="43.56975" lon="6.62446">
        <ele>262.2</ele>
        <time>2022-10-05T12:45:11.000Z</time>
      </trkpt>
      <trkpt lat="43.5697" lon="6.62447">
        <ele>261.7</ele>
        <time>2022-10-05T12:45:15.000Z</time>
      </trkpt>
      <trkpt lat="43.56966" lon="6.62445">
        <ele>261.4</ele>
        <time>2022-10-05T12:45:18.000Z</time>
      </trkpt>
      <trkpt lat="43.56962" lon="6.62445">
        <ele>261</ele>
        <time>2022-10-05T12:45:22.000Z</time>
      </trkpt>
      <trkpt lat="43.56958" lon="6.62445">
        <ele>260.8</ele>
        <time>2022-10-05T12:45:25.000Z</time>
      </trkpt>
      <trkpt lat="43.56955" lon="6.62444">
        <ele>260.6</ele>
        <time>2022-10-05T12:45:28.000Z</time>
      </trkpt>
      <trkpt lat="43.56954" lon="6.62444">
        <ele>260.5</ele>
        <time>2022-10-05T12:45:29.000Z</time>
      </trkpt>
      <trkpt lat="43.56946" lon="6.62444">
        <ele>259.7</ele>
        <time>2022-10-05T12:45:35.000Z</time>
      </trkpt>
      <trkpt lat="43.56943" lon="6.62444">
        <ele>259.5</ele>
        <time>2022-10-05T12:45:38.000Z</time>
      </trkpt>
      <trkpt lat="43.56939" lon="6.62444">
        <ele>259.3</ele>
        <time>2022-10-05T12:45:41.000Z</time>
      </trkpt>
      <trkpt lat="43.56936" lon="6.62444">
        <ele>259.1</ele>
        <time>2022-10-05T12:45:45.000Z</time>
      </trkpt>
      <trkpt lat="43.56932" lon="6.62442">
        <ele>258.9</ele>
        <time>2022-10-05T12:45:48.000Z</time>
      </trkpt>
      <trkpt lat="43.56927" lon="6.62441">
        <ele>258.7</ele>
        <time>2022-10-05T12:45:52.000Z</time>
      </trkpt>
      <trkpt lat="43.56923" lon="6.62441">
        <ele>258.5</ele>
        <time>2022-10-05T12:45:56.000Z</time>
      </trkpt>
      <trkpt lat="43.56919" lon="6.6244">
        <ele>258.1</ele>
        <time>2022-10-05T12:46:00.000Z</time>
      </trkpt>
      <trkpt lat="43.56916" lon="6.62439">
        <ele>257.8</ele>
        <time>2022-10-05T12:46:03.000Z</time>
      </trkpt>
      <trkpt lat="43.56911" lon="6.62438">
        <ele>257.5</ele>
        <time>2022-10-05T12:46:06.000Z</time>
      </trkpt>
      <trkpt lat="43.56908" lon="6.62437">
        <ele>257.4</ele>
        <time>2022-10-05T12:46:08.000Z</time>
      </trkpt>
      <trkpt lat="43.56904" lon="6.62435">
        <ele>257.1</ele>
        <time>2022-10-05T12:46:11.000Z</time>
      </trkpt>
      <trkpt lat="43.56901" lon="6.62435">
        <ele>256.8</ele>
        <time>2022-10-05T12:46:14.000Z</time>
      </trkpt>
      <trkpt lat="43.56897" lon="6.62433">
        <ele>256.3</ele>
        <time>2022-10-05T12:46:18.000Z</time>
      </trkpt>
      <trkpt lat="43.56893" lon="6.62431">
        <ele>255.9</ele>
        <time>2022-10-05T12:46:21.000Z</time>
      </trkpt>
      <trkpt lat="43.56889" lon="6.6243">
        <ele>255.5</ele>
        <time>2022-10-05T12:46:25.000Z</time>
      </trkpt>
      <trkpt lat="43.56886" lon="6.62429">
        <ele>255.2</ele>
        <time>2022-10-05T12:46:28.000Z</time>
      </trkpt>
      <trkpt lat="43.56883" lon="6.62427">
        <ele>255</ele>
        <time>2022-10-05T12:46:31.000Z</time>
      </trkpt>
      <trkpt lat="43.56882" lon="6.62427">
        <ele>254.9</ele>
        <time>2022-10-05T12:46:32.000Z</time>
      </trkpt>
      <trkpt lat="43.56876" lon="6.62424">
        <ele>254.4</ele>
        <time>2022-10-05T12:46:37.000Z</time>
      </trkpt>
      <trkpt lat="43.56872" lon="6.62423">
        <ele>254.1</ele>
        <time>2022-10-05T12:46:41.000Z</time>
      </trkpt>
      <trkpt lat="43.56868" lon="6.62422">
        <ele>253.9</ele>
        <time>2022-10-05T12:46:44.000Z</time>
      </trkpt>
      <trkpt lat="43.56865" lon="6.62422">
        <ele>253.7</ele>
        <time>2022-10-05T12:46:48.000Z</time>
      </trkpt>
      <trkpt lat="43.56861" lon="6.62422">
        <ele>253.4</ele>
        <time>2022-10-05T12:46:53.000Z</time>
      </trkpt>
      <trkpt lat="43.56856" lon="6.62424">
        <ele>252.1</ele>
        <time>2022-10-05T12:47:33.000Z</time>
      </trkpt>
      <trkpt lat="43.56856" lon="6.62425">
        <ele>252.1</ele>
        <time>2022-10-05T12:47:34.000Z</time>
      </trkpt>
      <trkpt lat="43.56855" lon="6.62419">
        <ele>251.4</ele>
        <time>2022-10-05T12:48:41.000Z</time>
      </trkpt>
      <trkpt lat="43.56859" lon="6.62427">
        <ele>251.5</ele>
        <time>2022-10-05T12:49:28.000Z</time>
      </trkpt>
      <trkpt lat="43.5686" lon="6.62432">
        <ele>251.6</ele>
        <time>2022-10-05T12:49:32.000Z</time>
      </trkpt>
      <trkpt lat="43.56861" lon="6.62437">
        <ele>251.8</ele>
        <time>2022-10-05T12:49:36.000Z</time>
      </trkpt>
      <trkpt lat="43.56863" lon="6.62443">
        <ele>251.9</ele>
        <time>2022-10-05T12:49:40.000Z</time>
      </trkpt>
      <trkpt lat="43.56864" lon="6.62447">
        <ele>252</ele>
        <time>2022-10-05T12:49:43.000Z</time>
      </trkpt>
      <trkpt lat="43.56864" lon="6.62449">
        <ele>252</ele>
        <time>2022-10-05T12:49:44.000Z</time>
      </trkpt>
      <trkpt lat="43.56866" lon="6.62456">
        <ele>252.1</ele>
        <time>2022-10-05T12:49:49.000Z</time>
      </trkpt>
      <trkpt lat="43.56867" lon="6.62462">
        <ele>252.2</ele>
        <time>2022-10-05T12:49:53.000Z</time>
      </trkpt>
      <trkpt lat="43.56867" lon="6.62468">
        <ele>252.1</ele>
        <time>2022-10-05T12:49:57.000Z</time>
      </trkpt>
      <trkpt lat="43.56867" lon="6.62473">
        <ele>252</ele>
        <time>2022-10-05T12:50:00.000Z</time>
      </trkpt>
      <trkpt lat="43.56868" lon="6.62477">
        <ele>252</ele>
        <time>2022-10-05T12:50:03.000Z</time>
      </trkpt>
      <trkpt lat="43.56867" lon="6.62482">
        <ele>251.9</ele>
        <time>2022-10-05T12:50:06.000Z</time>
      </trkpt>
      <trkpt lat="43.56867" lon="6.62487">
        <ele>251.7</ele>
        <time>2022-10-05T12:50:09.000Z</time>
      </trkpt>
      <trkpt lat="43.56867" lon="6.62492">
        <ele>251.6</ele>
        <time>2022-10-05T12:50:12.000Z</time>
      </trkpt>
      <trkpt lat="43.56867" lon="6.62498">
        <ele>251.4</ele>
        <time>2022-10-05T12:50:16.000Z</time>
      </trkpt>
      <trkpt lat="43.56868" lon="6.62504">
        <ele>251.3</ele>
        <time>2022-10-05T12:50:20.000Z</time>
      </trkpt>
      <trkpt lat="43.56868" lon="6.62509">
        <ele>251</ele>
        <time>2022-10-05T12:50:24.000Z</time>
      </trkpt>
      <trkpt lat="43.56868" lon="6.62514">
        <ele>250.8</ele>
        <time>2022-10-05T12:50:27.000Z</time>
      </trkpt>
      <trkpt lat="43.56867" lon="6.62519">
        <ele>250.7</ele>
        <time>2022-10-05T12:50:30.000Z</time>
      </trkpt>
      <trkpt lat="43.56867" lon="6.62524">
        <ele>250.4</ele>
        <time>2022-10-05T12:50:33.000Z</time>
      </trkpt>
      <trkpt lat="43.56867" lon="6.62529">
        <ele>250.2</ele>
        <time>2022-10-05T12:50:36.000Z</time>
      </trkpt>
      <trkpt lat="43.56868" lon="6.62534">
        <ele>250</ele>
        <time>2022-10-05T12:50:39.000Z</time>
      </trkpt>
      <trkpt lat="43.56868" lon="6.62539">
        <ele>249.8</ele>
        <time>2022-10-05T12:50:42.000Z</time>
      </trkpt>
      <trkpt lat="43.56869" lon="6.62544">
        <ele>249.6</ele>
        <time>2022-10-05T12:50:45.000Z</time>
      </trkpt>
      <trkpt lat="43.56869" lon="6.62545">
        <ele>249.5</ele>
        <time>2022-10-05T12:50:46.000Z</time>
      </trkpt>
      <trkpt lat="43.56871" lon="6.62553">
        <ele>249.2</ele>
        <time>2022-10-05T12:50:51.000Z</time>
      </trkpt>
      <trkpt lat="43.56873" lon="6.62558">
        <ele>249</ele>
        <time>2022-10-05T12:50:54.000Z</time>
      </trkpt>
      <trkpt lat="43.56874" lon="6.62563">
        <ele>248.9</ele>
        <time>2022-10-05T12:50:57.000Z</time>
      </trkpt>
      <trkpt lat="43.56876" lon="6.62567">
        <ele>248.7</ele>
        <time>2022-10-05T12:51:00.000Z</time>
      </trkpt>
      <trkpt lat="43.56878" lon="6.62573">
        <ele>248.3</ele>
        <time>2022-10-05T12:51:04.000Z</time>
      </trkpt>
      <trkpt lat="43.5688" lon="6.62577">
        <ele>248.1</ele>
        <time>2022-10-05T12:51:07.000Z</time>
      </trkpt>
      <trkpt lat="43.56882" lon="6.62581">
        <ele>248</ele>
        <time>2022-10-05T12:51:10.000Z</time>
      </trkpt>
      <trkpt lat="43.56884" lon="6.62585">
        <ele>247.8</ele>
        <time>2022-10-05T12:51:13.000Z</time>
      </trkpt>
      <trkpt lat="43.56885" lon="6.6259">
        <ele>247.7</ele>
        <time>2022-10-05T12:51:16.000Z</time>
      </trkpt>
      <trkpt lat="43.56887" lon="6.62594">
        <ele>247.6</ele>
        <time>2022-10-05T12:51:19.000Z</time>
      </trkpt>
      <trkpt lat="43.56888" lon="6.62599">
        <ele>247.6</ele>
        <time>2022-10-05T12:51:22.000Z</time>
      </trkpt>
      <trkpt lat="43.56889" lon="6.62604">
        <ele>247.5</ele>
        <time>2022-10-05T12:51:25.000Z</time>
      </trkpt>
      <trkpt lat="43.5689" lon="6.62609">
        <ele>247.5</ele>
        <time>2022-10-05T12:51:28.000Z</time>
      </trkpt>
      <trkpt lat="43.56891" lon="6.62614">
        <ele>247.5</ele>
        <time>2022-10-05T12:51:31.000Z</time>
      </trkpt>
      <trkpt lat="43.56891" lon="6.62618">
        <ele>247.5</ele>
        <time>2022-10-05T12:51:34.000Z</time>
      </trkpt>
      <trkpt lat="43.5689" lon="6.62625">
        <ele>247.5</ele>
        <time>2022-10-05T12:51:38.000Z</time>
      </trkpt>
      <trkpt lat="43.5689" lon="6.62629">
        <ele>247.5</ele>
        <time>2022-10-05T12:51:41.000Z</time>
      </trkpt>
      <trkpt lat="43.56889" lon="6.62635">
        <ele>247.6</ele>
        <time>2022-10-05T12:51:45.000Z</time>
      </trkpt>
      <trkpt lat="43.56889" lon="6.6264">
        <ele>247.8</ele>
        <time>2022-10-05T12:51:48.000Z</time>
      </trkpt>
      <trkpt lat="43.56889" lon="6.62642">
        <ele>247.8</ele>
        <time>2022-10-05T12:51:49.000Z</time>
      </trkpt>
      <trkpt lat="43.56888" lon="6.62651">
        <ele>248.1</ele>
        <time>2022-10-05T12:51:55.000Z</time>
      </trkpt>
      <trkpt lat="43.56887" lon="6.62657">
        <ele>248.3</ele>
        <time>2022-10-05T12:51:59.000Z</time>
      </trkpt>
      <trkpt lat="43.56887" lon="6.62663">
        <ele>248.5</ele>
        <time>2022-10-05T12:52:03.000Z</time>
      </trkpt>
      <trkpt lat="43.56887" lon="6.62669">
        <ele>248.8</ele>
        <time>2022-10-05T12:52:07.000Z</time>
      </trkpt>
      <trkpt lat="43.56887" lon="6.62674">
        <ele>248.9</ele>
        <time>2022-10-05T12:52:10.000Z</time>
      </trkpt>
      <trkpt lat="43.56886" lon="6.62679">
        <ele>249.2</ele>
        <time>2022-10-05T12:52:13.000Z</time>
      </trkpt>
      <trkpt lat="43.56886" lon="6.62685">
        <ele>249.5</ele>
        <time>2022-10-05T12:52:17.000Z</time>
      </trkpt>
      <trkpt lat="43.56885" lon="6.62691">
        <ele>249.8</ele>
        <time>2022-10-05T12:52:21.000Z</time>
      </trkpt>
      <trkpt lat="43.56885" lon="6.62696">
        <ele>250.1</ele>
        <time>2022-10-05T12:52:25.000Z</time>
      </trkpt>
      <trkpt lat="43.56886" lon="6.62702">
        <ele>250.4</ele>
        <time>2022-10-05T12:52:29.000Z</time>
      </trkpt>
      <trkpt lat="43.56888" lon="6.62708">
        <ele>250.7</ele>
        <time>2022-10-05T12:52:33.000Z</time>
      </trkpt>
      <trkpt lat="43.56889" lon="6.62712">
        <ele>251.1</ele>
        <time>2022-10-05T12:52:36.000Z</time>
      </trkpt>
      <trkpt lat="43.56891" lon="6.62718">
        <ele>251.5</ele>
        <time>2022-10-05T12:52:40.000Z</time>
      </trkpt>
      <trkpt lat="43.56892" lon="6.62724">
        <ele>251.8</ele>
        <time>2022-10-05T12:52:44.000Z</time>
      </trkpt>
      <trkpt lat="43.56893" lon="6.62729">
        <ele>252.2</ele>
        <time>2022-10-05T12:52:48.000Z</time>
      </trkpt>
      <trkpt lat="43.56893" lon="6.62735">
        <ele>252.6</ele>
        <time>2022-10-05T12:52:52.000Z</time>
      </trkpt>
      <trkpt lat="43.56893" lon="6.62736">
        <ele>252.7</ele>
        <time>2022-10-05T12:52:53.000Z</time>
      </trkpt>
      <trkpt lat="43.56894" lon="6.62746">
        <ele>253.1</ele>
        <time>2022-10-05T12:53:00.000Z</time>
      </trkpt>
      <trkpt lat="43.56894" lon="6.62751">
        <ele>253.4</ele>
        <time>2022-10-05T12:53:03.000Z</time>
      </trkpt>
      <trkpt lat="43.56895" lon="6.62756">
        <ele>253.6</ele>
        <time>2022-10-05T12:53:06.000Z</time>
      </trkpt>
      <trkpt lat="43.56895" lon="6.62761">
        <ele>253.9</ele>
        <time>2022-10-05T12:53:09.000Z</time>
      </trkpt>
      <trkpt lat="43.56895" lon="6.62766">
        <ele>254.1</ele>
        <time>2022-10-05T12:53:12.000Z</time>
      </trkpt>
      <trkpt lat="43.56896" lon="6.62772">
        <ele>254.4</ele>
        <time>2022-10-05T12:53:16.000Z</time>
      </trkpt>
      <trkpt lat="43.56897" lon="6.62776">
        <ele>254.5</ele>
        <time>2022-10-05T12:53:19.000Z</time>
      </trkpt>
      <trkpt lat="43.56898" lon="6.62781">
        <ele>254.7</ele>
        <time>2022-10-05T12:53:22.000Z</time>
      </trkpt>
      <trkpt lat="43.56899" lon="6.62786">
        <ele>254.9</ele>
        <time>2022-10-05T12:53:25.000Z</time>
      </trkpt>
      <trkpt lat="43.569" lon="6.6279">
        <ele>255.1</ele>
        <time>2022-10-05T12:53:28.000Z</time>
      </trkpt>
      <trkpt lat="43.56901" lon="6.62795">
        <ele>255.4</ele>
        <time>2022-10-05T12:53:31.000Z</time>
      </trkpt>
      <trkpt lat="43.56903" lon="6.62799">
        <ele>255.6</ele>
        <time>2022-10-05T12:53:34.000Z</time>
      </trkpt>
      <trkpt lat="43.56904" lon="6.62804">
        <ele>255.8</ele>
        <time>2022-10-05T12:53:37.000Z</time>
      </trkpt>
      <trkpt lat="43.56906" lon="6.62809">
        <ele>256</ele>
        <time>2022-10-05T12:53:40.000Z</time>
      </trkpt>
      <trkpt lat="43.56907" lon="6.62813">
        <ele>256.1</ele>
        <time>2022-10-05T12:53:43.000Z</time>
      </trkpt>
      <trkpt lat="43.56908" lon="6.62818">
        <ele>256.3</ele>
        <time>2022-10-05T12:53:46.000Z</time>
      </trkpt>
      <trkpt lat="43.5691" lon="6.62823">
        <ele>256.4</ele>
        <time>2022-10-05T12:53:49.000Z</time>
      </trkpt>
      <trkpt lat="43.56911" lon="6.62828">
        <ele>256.5</ele>
        <time>2022-10-05T12:53:52.000Z</time>
      </trkpt>
      <trkpt lat="43.56912" lon="6.62833">
        <ele>256.6</ele>
        <time>2022-10-05T12:53:55.000Z</time>
      </trkpt>
      <trkpt lat="43.56912" lon="6.62835">
        <ele>256.6</ele>
        <time>2022-10-05T12:53:56.000Z</time>
      </trkpt>
      <trkpt lat="43.56915" lon="6.62843">
        <ele>256.7</ele>
        <time>2022-10-05T12:54:02.000Z</time>
      </trkpt>
      <trkpt lat="43.56918" lon="6.62847">
        <ele>256.7</ele>
        <time>2022-10-05T12:54:05.000Z</time>
      </trkpt>
      <trkpt lat="43.56921" lon="6.6285">
        <ele>256.8</ele>
        <time>2022-10-05T12:54:08.000Z</time>
      </trkpt>
      <trkpt lat="43.56924" lon="6.62853">
        <ele>256.8</ele>
        <time>2022-10-05T12:54:11.000Z</time>
      </trkpt>
      <trkpt lat="43.56928" lon="6.62855">
        <ele>256.8</ele>
        <time>2022-10-05T12:54:14.000Z</time>
      </trkpt>
      <trkpt lat="43.56931" lon="6.62858">
        <ele>256.8</ele>
        <time>2022-10-05T12:54:17.000Z</time>
      </trkpt>
      <trkpt lat="43.56934" lon="6.62861">
        <ele>256.8</ele>
        <time>2022-10-05T12:54:20.000Z</time>
      </trkpt>
      <trkpt lat="43.56937" lon="6.62864">
        <ele>256.8</ele>
        <time>2022-10-05T12:54:23.000Z</time>
      </trkpt>
      <trkpt lat="43.5694" lon="6.62868">
        <ele>256.8</ele>
        <time>2022-10-05T12:54:26.000Z</time>
      </trkpt>
      <trkpt lat="43.56942" lon="6.62873">
        <ele>256.7</ele>
        <time>2022-10-05T12:54:29.000Z</time>
      </trkpt>
      <trkpt lat="43.56944" lon="6.62877">
        <ele>256.7</ele>
        <time>2022-10-05T12:54:32.000Z</time>
      </trkpt>
      <trkpt lat="43.56946" lon="6.62882">
        <ele>256.6</ele>
        <time>2022-10-05T12:54:35.000Z</time>
      </trkpt>
      <trkpt lat="43.56948" lon="6.62887">
        <ele>256.5</ele>
        <time>2022-10-05T12:54:38.000Z</time>
      </trkpt>
      <trkpt lat="43.5695" lon="6.62891">
        <ele>256.5</ele>
        <time>2022-10-05T12:54:41.000Z</time>
      </trkpt>
      <trkpt lat="43.56952" lon="6.62896">
        <ele>256.4</ele>
        <time>2022-10-05T12:54:44.000Z</time>
      </trkpt>
      <trkpt lat="43.56954" lon="6.62901">
        <ele>256.3</ele>
        <time>2022-10-05T12:54:47.000Z</time>
      </trkpt>
      <trkpt lat="43.56955" lon="6.62906">
        <ele>256.4</ele>
        <time>2022-10-05T12:54:50.000Z</time>
      </trkpt>
      <trkpt lat="43.56956" lon="6.62911">
        <ele>256.4</ele>
        <time>2022-10-05T12:54:53.000Z</time>
      </trkpt>
      <trkpt lat="43.56957" lon="6.62917">
        <ele>256.4</ele>
        <time>2022-10-05T12:54:57.000Z</time>
      </trkpt>
      <trkpt lat="43.56958" lon="6.62918">
        <ele>256.4</ele>
        <time>2022-10-05T12:54:58.000Z</time>
      </trkpt>
      <trkpt lat="43.56959" lon="6.62926">
        <ele>256.4</ele>
        <time>2022-10-05T12:55:03.000Z</time>
      </trkpt>
      <trkpt lat="43.56959" lon="6.62931">
        <ele>256.4</ele>
        <time>2022-10-05T12:55:06.000Z</time>
      </trkpt>
      <trkpt lat="43.56959" lon="6.62936">
        <ele>256.4</ele>
        <time>2022-10-05T12:55:09.000Z</time>
      </trkpt>
      <trkpt lat="43.5696" lon="6.62941">
        <ele>256.4</ele>
        <time>2022-10-05T12:55:12.000Z</time>
      </trkpt>
      <trkpt lat="43.5696" lon="6.62946">
        <ele>256.4</ele>
        <time>2022-10-05T12:55:15.000Z</time>
      </trkpt>
      <trkpt lat="43.5696" lon="6.62951">
        <ele>256.4</ele>
        <time>2022-10-05T12:55:18.000Z</time>
      </trkpt>
      <trkpt lat="43.5696" lon="6.62957">
        <ele>256.4</ele>
        <time>2022-10-05T12:55:21.000Z</time>
      </trkpt>
      <trkpt lat="43.5696" lon="6.62962">
        <ele>256.5</ele>
        <time>2022-10-05T12:55:24.000Z</time>
      </trkpt>
      <trkpt lat="43.5696" lon="6.62968">
        <ele>256.6</ele>
        <time>2022-10-05T12:55:28.000Z</time>
      </trkpt>
      <trkpt lat="43.5696" lon="6.62972">
        <ele>256.7</ele>
        <time>2022-10-05T12:55:31.000Z</time>
      </trkpt>
      <trkpt lat="43.56959" lon="6.62978">
        <ele>256.8</ele>
        <time>2022-10-05T12:55:34.000Z</time>
      </trkpt>
      <trkpt lat="43.56959" lon="6.62983">
        <ele>257</ele>
        <time>2022-10-05T12:55:37.000Z</time>
      </trkpt>
      <trkpt lat="43.56959" lon="6.62989">
        <ele>257.3</ele>
        <time>2022-10-05T12:55:41.000Z</time>
      </trkpt>
      <trkpt lat="43.56959" lon="6.62994">
        <ele>257.4</ele>
        <time>2022-10-05T12:55:44.000Z</time>
      </trkpt>
      <trkpt lat="43.56959" lon="6.63">
        <ele>257.6</ele>
        <time>2022-10-05T12:55:48.000Z</time>
      </trkpt>
      <trkpt lat="43.5696" lon="6.63005">
        <ele>257.7</ele>
        <time>2022-10-05T12:55:51.000Z</time>
      </trkpt>
      <trkpt lat="43.56961" lon="6.6301">
        <ele>258.1</ele>
        <time>2022-10-05T12:55:57.000Z</time>
      </trkpt>
      <trkpt lat="43.56961" lon="6.63016">
        <ele>258.6</ele>
        <time>2022-10-05T12:56:21.000Z</time>
      </trkpt>
      <trkpt lat="43.56961" lon="6.63017">
        <ele>258.7</ele>
        <time>2022-10-05T12:56:22.000Z</time>
      </trkpt>
      <trkpt lat="43.56962" lon="6.63028">
        <ele>258.8</ele>
        <time>2022-10-05T12:56:45.000Z</time>
      </trkpt>
      <trkpt lat="43.56962" lon="6.63034">
        <ele>258.8</ele>
        <time>2022-10-05T12:56:50.000Z</time>
      </trkpt>
      <trkpt lat="43.56962" lon="6.6304">
        <ele>258.8</ele>
        <time>2022-10-05T12:56:55.000Z</time>
      </trkpt>
      <trkpt lat="43.56961" lon="6.63045">
        <ele>258.8</ele>
        <time>2022-10-05T12:56:59.000Z</time>
      </trkpt>
      <trkpt lat="43.5696" lon="6.63051">
        <ele>258.8</ele>
        <time>2022-10-05T12:57:03.000Z</time>
      </trkpt>
      <trkpt lat="43.56959" lon="6.63057">
        <ele>258.7</ele>
        <time>2022-10-05T12:57:07.000Z</time>
      </trkpt>
      <trkpt lat="43.56959" lon="6.63062">
        <ele>258.6</ele>
        <time>2022-10-05T12:57:11.000Z</time>
      </trkpt>
      <trkpt lat="43.56958" lon="6.63068">
        <ele>258.5</ele>
        <time>2022-10-05T12:57:15.000Z</time>
      </trkpt>
      <trkpt lat="43.56957" lon="6.63073">
        <ele>258.3</ele>
        <time>2022-10-05T12:57:19.000Z</time>
      </trkpt>
      <trkpt lat="43.56956" lon="6.63078">
        <ele>258.1</ele>
        <time>2022-10-05T12:57:23.000Z</time>
      </trkpt>
      <trkpt lat="43.56956" lon="6.6308">
        <ele>258</ele>
        <time>2022-10-05T12:57:24.000Z</time>
      </trkpt>
      <trkpt lat="43.56954" lon="6.63089">
        <ele>257.6</ele>
        <time>2022-10-05T12:57:31.000Z</time>
      </trkpt>
      <trkpt lat="43.56953" lon="6.63094">
        <ele>257.4</ele>
        <time>2022-10-05T12:57:35.000Z</time>
      </trkpt>
      <trkpt lat="43.56952" lon="6.631">
        <ele>257.3</ele>
        <time>2022-10-05T12:57:39.000Z</time>
      </trkpt>
      <trkpt lat="43.56952" lon="6.63106">
        <ele>257.2</ele>
        <time>2022-10-05T12:57:42.000Z</time>
      </trkpt>
      <trkpt lat="43.56951" lon="6.63111">
        <ele>256.9</ele>
        <time>2022-10-05T12:57:46.000Z</time>
      </trkpt>
      <trkpt lat="43.5695" lon="6.63116">
        <ele>256.6</ele>
        <time>2022-10-05T12:57:49.000Z</time>
      </trkpt>
      <trkpt lat="43.56949" lon="6.63121">
        <ele>256.3</ele>
        <time>2022-10-05T12:57:52.000Z</time>
      </trkpt>
      <trkpt lat="43.56948" lon="6.63125">
        <ele>256</ele>
        <time>2022-10-05T12:57:55.000Z</time>
      </trkpt>
      <trkpt lat="43.56948" lon="6.6313">
        <ele>255.7</ele>
        <time>2022-10-05T12:57:58.000Z</time>
      </trkpt>
      <trkpt lat="43.56947" lon="6.63135">
        <ele>255.5</ele>
        <time>2022-10-05T12:58:01.000Z</time>
      </trkpt>
      <trkpt lat="43.56945" lon="6.63139">
        <ele>255.2</ele>
        <time>2022-10-05T12:58:04.000Z</time>
      </trkpt>
      <trkpt lat="43.56944" lon="6.63144">
        <ele>255</ele>
        <time>2022-10-05T12:58:07.000Z</time>
      </trkpt>
      <trkpt lat="43.56944" lon="6.63149">
        <ele>254.7</ele>
        <time>2022-10-05T12:58:10.000Z</time>
      </trkpt>
      <trkpt lat="43.56943" lon="6.63154">
        <ele>254.4</ele>
        <time>2022-10-05T12:58:13.000Z</time>
      </trkpt>
      <trkpt lat="43.56942" lon="6.6316">
        <ele>253.9</ele>
        <time>2022-10-05T12:58:17.000Z</time>
      </trkpt>
      <trkpt lat="43.56941" lon="6.63165">
        <ele>253.5</ele>
        <time>2022-10-05T12:58:20.000Z</time>
      </trkpt>
      <trkpt lat="43.5694" lon="6.63169">
        <ele>253.1</ele>
        <time>2022-10-05T12:58:23.000Z</time>
      </trkpt>
      <trkpt lat="43.56938" lon="6.63174">
        <ele>252.8</ele>
        <time>2022-10-05T12:58:26.000Z</time>
      </trkpt>
      <trkpt lat="43.56938" lon="6.63176">
        <ele>252.7</ele>
        <time>2022-10-05T12:58:27.000Z</time>
      </trkpt>
      <trkpt lat="43.56936" lon="6.63184">
        <ele>252.3</ele>
        <time>2022-10-05T12:58:32.000Z</time>
      </trkpt>
      <trkpt lat="43.56934" lon="6.63188">
        <ele>252.1</ele>
        <time>2022-10-05T12:58:35.000Z</time>
      </trkpt>
      <trkpt lat="43.56933" lon="6.63193">
        <ele>251.9</ele>
        <time>2022-10-05T12:58:38.000Z</time>
      </trkpt>
      <trkpt lat="43.56931" lon="6.63197">
        <ele>251.8</ele>
        <time>2022-10-05T12:58:41.000Z</time>
      </trkpt>
      <trkpt lat="43.5693" lon="6.63202">
        <ele>251.7</ele>
        <time>2022-10-05T12:58:44.000Z</time>
      </trkpt>
      <trkpt lat="43.56928" lon="6.63206">
        <ele>251.6</ele>
        <time>2022-10-05T12:58:47.000Z</time>
      </trkpt>
      <trkpt lat="43.56926" lon="6.63211">
        <ele>251.4</ele>
        <time>2022-10-05T12:58:50.000Z</time>
      </trkpt>
      <trkpt lat="43.56925" lon="6.63216">
        <ele>251.2</ele>
        <time>2022-10-05T12:58:53.000Z</time>
      </trkpt>
      <trkpt lat="43.56923" lon="6.63221">
        <ele>251</ele>
        <time>2022-10-05T12:58:57.000Z</time>
      </trkpt>
      <trkpt lat="43.56921" lon="6.63225">
        <ele>250.8</ele>
        <time>2022-10-05T12:59:00.000Z</time>
      </trkpt>
      <trkpt lat="43.56918" lon="6.6323">
        <ele>250.5</ele>
        <time>2022-10-05T12:59:03.000Z</time>
      </trkpt>
      <trkpt lat="43.56917" lon="6.63234">
        <ele>250.2</ele>
        <time>2022-10-05T12:59:06.000Z</time>
      </trkpt>
      <trkpt lat="43.56915" lon="6.63238">
        <ele>249.9</ele>
        <time>2022-10-05T12:59:09.000Z</time>
      </trkpt>
      <trkpt lat="43.56913" lon="6.63242">
        <ele>249.6</ele>
        <time>2022-10-05T12:59:12.000Z</time>
      </trkpt>
      <trkpt lat="43.56911" lon="6.63247">
        <ele>249.2</ele>
        <time>2022-10-05T12:59:16.000Z</time>
      </trkpt>
      <trkpt lat="43.56909" lon="6.63252">
        <ele>248.9</ele>
        <time>2022-10-05T12:59:19.000Z</time>
      </trkpt>
      <trkpt lat="43.56907" lon="6.63256">
        <ele>248.7</ele>
        <time>2022-10-05T12:59:22.000Z</time>
      </trkpt>
      <trkpt lat="43.56905" lon="6.6326">
        <ele>248.4</ele>
        <time>2022-10-05T12:59:25.000Z</time>
      </trkpt>
      <trkpt lat="43.56903" lon="6.63265">
        <ele>248.2</ele>
        <time>2022-10-05T12:59:28.000Z</time>
      </trkpt>
      <trkpt lat="43.56902" lon="6.63266">
        <ele>248.1</ele>
        <time>2022-10-05T12:59:29.000Z</time>
      </trkpt>
      <trkpt lat="43.56899" lon="6.63273">
        <ele>247.7</ele>
        <time>2022-10-05T12:59:34.000Z</time>
      </trkpt>
      <trkpt lat="43.56897" lon="6.63277">
        <ele>247.5</ele>
        <time>2022-10-05T12:59:37.000Z</time>
      </trkpt>
      <trkpt lat="43.56895" lon="6.63281">
        <ele>247.2</ele>
        <time>2022-10-05T12:59:40.000Z</time>
      </trkpt>
      <trkpt lat="43.56893" lon="6.63285">
        <ele>247.1</ele>
        <time>2022-10-05T12:59:43.000Z</time>
      </trkpt>
      <trkpt lat="43.56892" lon="6.6329">
        <ele>246.9</ele>
        <time>2022-10-05T12:59:46.000Z</time>
      </trkpt>
      <trkpt lat="43.5689" lon="6.63294">
        <ele>246.7</ele>
        <time>2022-10-05T12:59:49.000Z</time>
      </trkpt>
      <trkpt lat="43.56889" lon="6.63299">
        <ele>246.4</ele>
        <time>2022-10-05T12:59:52.000Z</time>
      </trkpt>
      <trkpt lat="43.56888" lon="6.63304">
        <ele>246.2</ele>
        <time>2022-10-05T12:59:55.000Z</time>
      </trkpt>
      <trkpt lat="43.56886" lon="6.63308">
        <ele>246</ele>
        <time>2022-10-05T12:59:58.000Z</time>
      </trkpt>
      <trkpt lat="43.56885" lon="6.63313">
        <ele>245.9</ele>
        <time>2022-10-05T13:00:01.000Z</time>
      </trkpt>
      <trkpt lat="43.56883" lon="6.63317">
        <ele>245.7</ele>
        <time>2022-10-05T13:00:04.000Z</time>
      </trkpt>
      <trkpt lat="43.56882" lon="6.63322">
        <ele>245.6</ele>
        <time>2022-10-05T13:00:07.000Z</time>
      </trkpt>
      <trkpt lat="43.5688" lon="6.63327">
        <ele>245.5</ele>
        <time>2022-10-05T13:00:10.000Z</time>
      </trkpt>
      <trkpt lat="43.56879" lon="6.63331">
        <ele>245.5</ele>
        <time>2022-10-05T13:00:13.000Z</time>
      </trkpt>
      <trkpt lat="43.56877" lon="6.63335">
        <ele>245.4</ele>
        <time>2022-10-05T13:00:16.000Z</time>
      </trkpt>
      <trkpt lat="43.56876" lon="6.6334">
        <ele>245.3</ele>
        <time>2022-10-05T13:00:19.000Z</time>
      </trkpt>
      <trkpt lat="43.56875" lon="6.63344">
        <ele>245.2</ele>
        <time>2022-10-05T13:00:22.000Z</time>
      </trkpt>
      <trkpt lat="43.56873" lon="6.63349">
        <ele>245.2</ele>
        <time>2022-10-05T13:00:25.000Z</time>
      </trkpt>
      <trkpt lat="43.56872" lon="6.63353">
        <ele>245.1</ele>
        <time>2022-10-05T13:00:28.000Z</time>
      </trkpt>
      <trkpt lat="43.56871" lon="6.63358">
        <ele>245.1</ele>
        <time>2022-10-05T13:00:31.000Z</time>
      </trkpt>
      <trkpt lat="43.5687" lon="6.6336">
        <ele>245.1</ele>
        <time>2022-10-05T13:00:32.000Z</time>
      </trkpt>
      <trkpt lat="43.56869" lon="6.63368">
        <ele>245</ele>
        <time>2022-10-05T13:00:37.000Z</time>
      </trkpt>
      <trkpt lat="43.56867" lon="6.63373">
        <ele>245</ele>
        <time>2022-10-05T13:00:40.000Z</time>
      </trkpt>
      <trkpt lat="43.56866" lon="6.63377">
        <ele>245</ele>
        <time>2022-10-05T13:00:43.000Z</time>
      </trkpt>
      <trkpt lat="43.56864" lon="6.63382">
        <ele>245</ele>
        <time>2022-10-05T13:00:46.000Z</time>
      </trkpt>
      <trkpt lat="43.56863" lon="6.63387">
        <ele>244.9</ele>
        <time>2022-10-05T13:00:49.000Z</time>
      </trkpt>
      <trkpt lat="43.56861" lon="6.63392">
        <ele>244.9</ele>
        <time>2022-10-05T13:00:52.000Z</time>
      </trkpt>
      <trkpt lat="43.5686" lon="6.63396">
        <ele>244.9</ele>
        <time>2022-10-05T13:00:55.000Z</time>
      </trkpt>
      <trkpt lat="43.56858" lon="6.63401">
        <ele>244.9</ele>
        <time>2022-10-05T13:00:58.000Z</time>
      </trkpt>
      <trkpt lat="43.56856" lon="6.63405">
        <ele>244.9</ele>
        <time>2022-10-05T13:01:01.000Z</time>
      </trkpt>
      <trkpt lat="43.56854" lon="6.6341">
        <ele>244.9</ele>
        <time>2022-10-05T13:01:04.000Z</time>
      </trkpt>
      <trkpt lat="43.56853" lon="6.63415">
        <ele>244.9</ele>
        <time>2022-10-05T13:01:07.000Z</time>
      </trkpt>
      <trkpt lat="43.56851" lon="6.6342">
        <ele>244.9</ele>
        <time>2022-10-05T13:01:10.000Z</time>
      </trkpt>
      <trkpt lat="43.5685" lon="6.63424">
        <ele>244.9</ele>
        <time>2022-10-05T13:01:13.000Z</time>
      </trkpt>
      <trkpt lat="43.56849" lon="6.63429">
        <ele>244.9</ele>
        <time>2022-10-05T13:01:16.000Z</time>
      </trkpt>
      <trkpt lat="43.56847" lon="6.63434">
        <ele>244.9</ele>
        <time>2022-10-05T13:01:19.000Z</time>
      </trkpt>
      <trkpt lat="43.56846" lon="6.6344">
        <ele>244.9</ele>
        <time>2022-10-05T13:01:23.000Z</time>
      </trkpt>
      <trkpt lat="43.56845" lon="6.63444">
        <ele>245</ele>
        <time>2022-10-05T13:01:26.000Z</time>
      </trkpt>
      <trkpt lat="43.56844" lon="6.63449">
        <ele>245</ele>
        <time>2022-10-05T13:01:29.000Z</time>
      </trkpt>
      <trkpt lat="43.56842" lon="6.63454">
        <ele>245</ele>
        <time>2022-10-05T13:01:32.000Z</time>
      </trkpt>
      <trkpt lat="43.56841" lon="6.63458">
        <ele>245.3</ele>
        <time>2022-10-05T13:01:35.000Z</time>
      </trkpt>
      <trkpt lat="43.5684" lon="6.6346">
        <ele>245.3</ele>
        <time>2022-10-05T13:01:36.000Z</time>
      </trkpt>
      <trkpt lat="43.56837" lon="6.63467">
        <ele>245.6</ele>
        <time>2022-10-05T13:01:41.000Z</time>
      </trkpt>
      <trkpt lat="43.56835" lon="6.63471">
        <ele>245.8</ele>
        <time>2022-10-05T13:01:44.000Z</time>
      </trkpt>
      <trkpt lat="43.56833" lon="6.63475">
        <ele>246</ele>
        <time>2022-10-05T13:01:47.000Z</time>
      </trkpt>
      <trkpt lat="43.56831" lon="6.63479">
        <ele>246.2</ele>
        <time>2022-10-05T13:01:50.000Z</time>
      </trkpt>
      <trkpt lat="43.56828" lon="6.63483">
        <ele>246.4</ele>
        <time>2022-10-05T13:01:53.000Z</time>
      </trkpt>
      <trkpt lat="43.56826" lon="6.63487">
        <ele>246.5</ele>
        <time>2022-10-05T13:01:56.000Z</time>
      </trkpt>
      <trkpt lat="43.56823" lon="6.63491">
        <ele>246.8</ele>
        <time>2022-10-05T13:01:59.000Z</time>
      </trkpt>
      <trkpt lat="43.56821" lon="6.63494">
        <ele>247</ele>
        <time>2022-10-05T13:02:02.000Z</time>
      </trkpt>
      <trkpt lat="43.56818" lon="6.63498">
        <ele>247.1</ele>
        <time>2022-10-05T13:02:05.000Z</time>
      </trkpt>
      <trkpt lat="43.56815" lon="6.63502">
        <ele>247.3</ele>
        <time>2022-10-05T13:02:08.000Z</time>
      </trkpt>
      <trkpt lat="43.56813" lon="6.63505">
        <ele>247.4</ele>
        <time>2022-10-05T13:02:11.000Z</time>
      </trkpt>
      <trkpt lat="43.5681" lon="6.63508">
        <ele>247.6</ele>
        <time>2022-10-05T13:02:14.000Z</time>
      </trkpt>
      <trkpt lat="43.56807" lon="6.63511">
        <ele>247.7</ele>
        <time>2022-10-05T13:02:17.000Z</time>
      </trkpt>
      <trkpt lat="43.56805" lon="6.63515">
        <ele>247.8</ele>
        <time>2022-10-05T13:02:20.000Z</time>
      </trkpt>
      <trkpt lat="43.56802" lon="6.63518">
        <ele>247.9</ele>
        <time>2022-10-05T13:02:23.000Z</time>
      </trkpt>
      <trkpt lat="43.56799" lon="6.63522">
        <ele>248.1</ele>
        <time>2022-10-05T13:02:27.000Z</time>
      </trkpt>
      <trkpt lat="43.56796" lon="6.63526">
        <ele>248.3</ele>
        <time>2022-10-05T13:02:31.000Z</time>
      </trkpt>
      <trkpt lat="43.56793" lon="6.63529">
        <ele>248.4</ele>
        <time>2022-10-05T13:02:34.000Z</time>
      </trkpt>
      <trkpt lat="43.5679" lon="6.63532">
        <ele>248.5</ele>
        <time>2022-10-05T13:02:37.000Z</time>
      </trkpt>
      <trkpt lat="43.56789" lon="6.63533">
        <ele>248.6</ele>
        <time>2022-10-05T13:02:38.000Z</time>
      </trkpt>
      <trkpt lat="43.56784" lon="6.63539">
        <ele>248.9</ele>
        <time>2022-10-05T13:02:44.000Z</time>
      </trkpt>
      <trkpt lat="43.56782" lon="6.63542">
        <ele>249</ele>
        <time>2022-10-05T13:02:47.000Z</time>
      </trkpt>
      <trkpt lat="43.56779" lon="6.63545">
        <ele>249.1</ele>
        <time>2022-10-05T13:02:50.000Z</time>
      </trkpt>
      <trkpt lat="43.56777" lon="6.63549">
        <ele>249.2</ele>
        <time>2022-10-05T13:02:53.000Z</time>
      </trkpt>
      <trkpt lat="43.56774" lon="6.63553">
        <ele>249.2</ele>
        <time>2022-10-05T13:02:56.000Z</time>
      </trkpt>
      <trkpt lat="43.56772" lon="6.63557">
        <ele>249.3</ele>
        <time>2022-10-05T13:02:59.000Z</time>
      </trkpt>
      <trkpt lat="43.5677" lon="6.63562">
        <ele>249.3</ele>
        <time>2022-10-05T13:03:03.000Z</time>
      </trkpt>
      <trkpt lat="43.56768" lon="6.63566">
        <ele>249.4</ele>
        <time>2022-10-05T13:03:06.000Z</time>
      </trkpt>
      <trkpt lat="43.56767" lon="6.63571">
        <ele>249.6</ele>
        <time>2022-10-05T13:03:09.000Z</time>
      </trkpt>
      <trkpt lat="43.56765" lon="6.63575">
        <ele>249.6</ele>
        <time>2022-10-05T13:03:12.000Z</time>
      </trkpt>
      <trkpt lat="43.56763" lon="6.6358">
        <ele>249.7</ele>
        <time>2022-10-05T13:03:15.000Z</time>
      </trkpt>
      <trkpt lat="43.56762" lon="6.63584">
        <ele>249.7</ele>
        <time>2022-10-05T13:03:18.000Z</time>
      </trkpt>
      <trkpt lat="43.5676" lon="6.63588">
        <ele>249.8</ele>
        <time>2022-10-05T13:03:21.000Z</time>
      </trkpt>
      <trkpt lat="43.56758" lon="6.63593">
        <ele>249.8</ele>
        <time>2022-10-05T13:03:24.000Z</time>
      </trkpt>
      <trkpt lat="43.56755" lon="6.63596">
        <ele>249.8</ele>
        <time>2022-10-05T13:03:27.000Z</time>
      </trkpt>
      <trkpt lat="43.56753" lon="6.636">
        <ele>249.8</ele>
        <time>2022-10-05T13:03:30.000Z</time>
      </trkpt>
      <trkpt lat="43.5675" lon="6.63603">
        <ele>249.8</ele>
        <time>2022-10-05T13:03:33.000Z</time>
      </trkpt>
      <trkpt lat="43.56747" lon="6.63607">
        <ele>249.7</ele>
        <time>2022-10-05T13:03:36.000Z</time>
      </trkpt>
      <trkpt lat="43.56743" lon="6.63611">
        <ele>249.6</ele>
        <time>2022-10-05T13:03:39.000Z</time>
      </trkpt>
      <trkpt lat="43.56742" lon="6.63612">
        <ele>249.5</ele>
        <time>2022-10-05T13:03:40.000Z</time>
      </trkpt>
      <trkpt lat="43.56737" lon="6.63616">
        <ele>249.3</ele>
        <time>2022-10-05T13:03:44.000Z</time>
      </trkpt>
      <trkpt lat="43.56734" lon="6.6362">
        <ele>249.2</ele>
        <time>2022-10-05T13:03:47.000Z</time>
      </trkpt>
      <trkpt lat="43.56731" lon="6.63623">
        <ele>249</ele>
        <time>2022-10-05T13:03:50.000Z</time>
      </trkpt>
      <trkpt lat="43.56728" lon="6.63627">
        <ele>248.8</ele>
        <time>2022-10-05T13:03:53.000Z</time>
      </trkpt>
      <trkpt lat="43.56726" lon="6.63631">
        <ele>248.6</ele>
        <time>2022-10-05T13:03:56.000Z</time>
      </trkpt>
      <trkpt lat="43.56724" lon="6.63635">
        <ele>248.5</ele>
        <time>2022-10-05T13:03:59.000Z</time>
      </trkpt>
      <trkpt lat="43.56721" lon="6.63639">
        <ele>248.3</ele>
        <time>2022-10-05T13:04:02.000Z</time>
      </trkpt>
      <trkpt lat="43.56719" lon="6.63642">
        <ele>248.2</ele>
        <time>2022-10-05T13:04:05.000Z</time>
      </trkpt>
      <trkpt lat="43.56717" lon="6.63646">
        <ele>248.2</ele>
        <time>2022-10-05T13:04:08.000Z</time>
      </trkpt>
      <trkpt lat="43.56714" lon="6.6365">
        <ele>248.1</ele>
        <time>2022-10-05T13:04:11.000Z</time>
      </trkpt>
      <trkpt lat="43.56713" lon="6.63655">
        <ele>248</ele>
        <time>2022-10-05T13:04:14.000Z</time>
      </trkpt>
      <trkpt lat="43.56711" lon="6.63659">
        <ele>247.9</ele>
        <time>2022-10-05T13:04:17.000Z</time>
      </trkpt>
      <trkpt lat="43.56709" lon="6.63663">
        <ele>247.8</ele>
        <time>2022-10-05T13:04:20.000Z</time>
      </trkpt>
      <trkpt lat="43.56707" lon="6.63667">
        <ele>247.6</ele>
        <time>2022-10-05T13:04:23.000Z</time>
      </trkpt>
      <trkpt lat="43.56704" lon="6.63671">
        <ele>247.4</ele>
        <time>2022-10-05T13:04:27.000Z</time>
      </trkpt>
      <trkpt lat="43.56702" lon="6.63675">
        <ele>247.3</ele>
        <time>2022-10-05T13:04:30.000Z</time>
      </trkpt>
      <trkpt lat="43.567" lon="6.6368">
        <ele>247.1</ele>
        <time>2022-10-05T13:04:33.000Z</time>
      </trkpt>
      <trkpt lat="43.56699" lon="6.63684">
        <ele>246.8</ele>
        <time>2022-10-05T13:04:36.000Z</time>
      </trkpt>
      <trkpt lat="43.56697" lon="6.63688">
        <ele>246.6</ele>
        <time>2022-10-05T13:04:39.000Z</time>
      </trkpt>
      <trkpt lat="43.56695" lon="6.63693">
        <ele>246.3</ele>
        <time>2022-10-05T13:04:42.000Z</time>
      </trkpt>
      <trkpt lat="43.56694" lon="6.63694">
        <ele>246.2</ele>
        <time>2022-10-05T13:04:43.000Z</time>
      </trkpt>
      <trkpt lat="43.56692" lon="6.63702">
        <ele>245.9</ele>
        <time>2022-10-05T13:04:48.000Z</time>
      </trkpt>
      <trkpt lat="43.56691" lon="6.63706">
        <ele>245.7</ele>
        <time>2022-10-05T13:04:51.000Z</time>
      </trkpt>
      <trkpt lat="43.5669" lon="6.63711">
        <ele>245.4</ele>
        <time>2022-10-05T13:04:54.000Z</time>
      </trkpt>
      <trkpt lat="43.56688" lon="6.63715">
        <ele>245.1</ele>
        <time>2022-10-05T13:04:57.000Z</time>
      </trkpt>
      <trkpt lat="43.56686" lon="6.63719">
        <ele>244.8</ele>
        <time>2022-10-05T13:05:00.000Z</time>
      </trkpt>
      <trkpt lat="43.56684" lon="6.63723">
        <ele>244.6</ele>
        <time>2022-10-05T13:05:03.000Z</time>
      </trkpt>
      <trkpt lat="43.56682" lon="6.63728">
        <ele>244.4</ele>
        <time>2022-10-05T13:05:06.000Z</time>
      </trkpt>
      <trkpt lat="43.56681" lon="6.63733">
        <ele>244.2</ele>
        <time>2022-10-05T13:05:09.000Z</time>
      </trkpt>
      <trkpt lat="43.56679" lon="6.63737">
        <ele>244</ele>
        <time>2022-10-05T13:05:12.000Z</time>
      </trkpt>
      <trkpt lat="43.56678" lon="6.63741">
        <ele>243.8</ele>
        <time>2022-10-05T13:05:15.000Z</time>
      </trkpt>
      <trkpt lat="43.56676" lon="6.63746">
        <ele>243.6</ele>
        <time>2022-10-05T13:05:18.000Z</time>
      </trkpt>
      <trkpt lat="43.56675" lon="6.6375">
        <ele>243.5</ele>
        <time>2022-10-05T13:05:21.000Z</time>
      </trkpt>
      <trkpt lat="43.56673" lon="6.63755">
        <ele>243.4</ele>
        <time>2022-10-05T13:05:24.000Z</time>
      </trkpt>
      <trkpt lat="43.56672" lon="6.6376">
        <ele>243.3</ele>
        <time>2022-10-05T13:05:27.000Z</time>
      </trkpt>
      <trkpt lat="43.56671" lon="6.63764">
        <ele>243.2</ele>
        <time>2022-10-05T13:05:30.000Z</time>
      </trkpt>
      <trkpt lat="43.56671" lon="6.63769">
        <ele>243.1</ele>
        <time>2022-10-05T13:05:33.000Z</time>
      </trkpt>
      <trkpt lat="43.5667" lon="6.63774">
        <ele>243</ele>
        <time>2022-10-05T13:05:36.000Z</time>
      </trkpt>
      <trkpt lat="43.56669" lon="6.63779">
        <ele>242.8</ele>
        <time>2022-10-05T13:05:39.000Z</time>
      </trkpt>
      <trkpt lat="43.56669" lon="6.63784">
        <ele>242.5</ele>
        <time>2022-10-05T13:05:42.000Z</time>
      </trkpt>
      <trkpt lat="43.56668" lon="6.63789">
        <ele>242.3</ele>
        <time>2022-10-05T13:05:45.000Z</time>
      </trkpt>
      <trkpt lat="43.56668" lon="6.6379">
        <ele>242.2</ele>
        <time>2022-10-05T13:05:46.000Z</time>
      </trkpt>
      <trkpt lat="43.56667" lon="6.63798">
        <ele>241.9</ele>
        <time>2022-10-05T13:05:51.000Z</time>
      </trkpt>
      <trkpt lat="43.56667" lon="6.63803">
        <ele>241.6</ele>
        <time>2022-10-05T13:05:54.000Z</time>
      </trkpt>
      <trkpt lat="43.56666" lon="6.63808">
        <ele>241.4</ele>
        <time>2022-10-05T13:05:57.000Z</time>
      </trkpt>
      <trkpt lat="43.56665" lon="6.63814">
        <ele>241.2</ele>
        <time>2022-10-05T13:06:00.000Z</time>
      </trkpt>
      <trkpt lat="43.56663" lon="6.63819">
        <ele>241.1</ele>
        <time>2022-10-05T13:06:03.000Z</time>
      </trkpt>
      <trkpt lat="43.56662" lon="6.63824">
        <ele>240.7</ele>
        <time>2022-10-05T13:06:06.000Z</time>
      </trkpt>
      <trkpt lat="43.5666" lon="6.63828">
        <ele>240.4</ele>
        <time>2022-10-05T13:06:09.000Z</time>
      </trkpt>
      <trkpt lat="43.56658" lon="6.63833">
        <ele>240.1</ele>
        <time>2022-10-05T13:06:12.000Z</time>
      </trkpt>
      <trkpt lat="43.56656" lon="6.63838">
        <ele>239.9</ele>
        <time>2022-10-05T13:06:15.000Z</time>
      </trkpt>
      <trkpt lat="43.56655" lon="6.63843">
        <ele>239.7</ele>
        <time>2022-10-05T13:06:18.000Z</time>
      </trkpt>
      <trkpt lat="43.56653" lon="6.63847">
        <ele>239.6</ele>
        <time>2022-10-05T13:06:21.000Z</time>
      </trkpt>
      <trkpt lat="43.56652" lon="6.63852">
        <ele>239.4</ele>
        <time>2022-10-05T13:06:24.000Z</time>
      </trkpt>
      <trkpt lat="43.56649" lon="6.63855">
        <ele>239.3</ele>
        <time>2022-10-05T13:06:27.000Z</time>
      </trkpt>
      <trkpt lat="43.56647" lon="6.63858">
        <ele>239.2</ele>
        <time>2022-10-05T13:06:30.000Z</time>
      </trkpt>
      <trkpt lat="43.56644" lon="6.63862">
        <ele>239</ele>
        <time>2022-10-05T13:06:33.000Z</time>
      </trkpt>
      <trkpt lat="43.56642" lon="6.63866">
        <ele>238.8</ele>
        <time>2022-10-05T13:06:36.000Z</time>
      </trkpt>
      <trkpt lat="43.5664" lon="6.6387">
        <ele>238.6</ele>
        <time>2022-10-05T13:06:39.000Z</time>
      </trkpt>
      <trkpt lat="43.56637" lon="6.63874">
        <ele>238.5</ele>
        <time>2022-10-05T13:06:42.000Z</time>
      </trkpt>
      <trkpt lat="43.56635" lon="6.63878">
        <ele>238.4</ele>
        <time>2022-10-05T13:06:45.000Z</time>
      </trkpt>
      <trkpt lat="43.56632" lon="6.63881">
        <ele>238.3</ele>
        <time>2022-10-05T13:06:48.000Z</time>
      </trkpt>
      <trkpt lat="43.56631" lon="6.63882">
        <ele>238.3</ele>
        <time>2022-10-05T13:06:49.000Z</time>
      </trkpt>
      <trkpt lat="43.56626" lon="6.63888">
        <ele>238.1</ele>
        <time>2022-10-05T13:06:54.000Z</time>
      </trkpt>
      <trkpt lat="43.56623" lon="6.63891">
        <ele>237.9</ele>
        <time>2022-10-05T13:06:57.000Z</time>
      </trkpt>
      <trkpt lat="43.56621" lon="6.63895">
        <ele>237.8</ele>
        <time>2022-10-05T13:07:00.000Z</time>
      </trkpt>
      <trkpt lat="43.56618" lon="6.63898">
        <ele>237.6</ele>
        <time>2022-10-05T13:07:03.000Z</time>
      </trkpt>
      <trkpt lat="43.56616" lon="6.63902">
        <ele>237.5</ele>
        <time>2022-10-05T13:07:06.000Z</time>
      </trkpt>
      <trkpt lat="43.56613" lon="6.63907">
        <ele>237.4</ele>
        <time>2022-10-05T13:07:10.000Z</time>
      </trkpt>
      <trkpt lat="43.56611" lon="6.63912">
        <ele>237</ele>
        <time>2022-10-05T13:07:14.000Z</time>
      </trkpt>
      <trkpt lat="43.56609" lon="6.63918">
        <ele>236.7</ele>
        <time>2022-10-05T13:07:18.000Z</time>
      </trkpt>
      <trkpt lat="43.56608" lon="6.63923">
        <ele>236.4</ele>
        <time>2022-10-05T13:07:22.000Z</time>
      </trkpt>
      <trkpt lat="43.56607" lon="6.63928">
        <ele>236.1</ele>
        <time>2022-10-05T13:07:26.000Z</time>
      </trkpt>
      <trkpt lat="43.56607" lon="6.63933">
        <ele>235.8</ele>
        <time>2022-10-05T13:07:30.000Z</time>
      </trkpt>
      <trkpt lat="43.56608" lon="6.63939">
        <ele>235.3</ele>
        <time>2022-10-05T13:07:37.000Z</time>
      </trkpt>
      <trkpt lat="43.56608" lon="6.63945">
        <ele>234.9</ele>
        <time>2022-10-05T13:07:44.000Z</time>
      </trkpt>
      <trkpt lat="43.56609" lon="6.6395">
        <ele>234.2</ele>
        <time>2022-10-05T13:08:02.000Z</time>
      </trkpt>
      <trkpt lat="43.56609" lon="6.63951">
        <ele>234.2</ele>
        <time>2022-10-05T13:08:03.000Z</time>
      </trkpt>
      <trkpt lat="43.56608" lon="6.63956">
        <ele>233.9</ele>
        <time>2022-10-05T13:11:10.000Z</time>
      </trkpt>
      <trkpt lat="43.56608" lon="6.63956">
        <ele>233.9</ele>
        <time>2022-10-05T13:11:11.000Z</time>
      </trkpt>
      <trkpt lat="43.56608" lon="6.6395">
        <ele>234</ele>
        <time>2022-10-05T13:14:35.000Z</time>
      </trkpt>
      <trkpt lat="43.56608" lon="6.63949">
        <ele>234</ele>
        <time>2022-10-05T13:14:36.000Z</time>
      </trkpt>
      <trkpt lat="43.56605" lon="6.6394">
        <ele>234</ele>
        <time>2022-10-05T13:14:44.000Z</time>
      </trkpt>
      <trkpt lat="43.56604" lon="6.63935">
        <ele>234.1</ele>
        <time>2022-10-05T13:14:48.000Z</time>
      </trkpt>
      <trkpt lat="43.56602" lon="6.63931">
        <ele>234.2</ele>
        <time>2022-10-05T13:14:52.000Z</time>
      </trkpt>
      <trkpt lat="43.56598" lon="6.63927">
        <ele>234.3</ele>
        <time>2022-10-05T13:14:58.000Z</time>
      </trkpt>
      <trkpt lat="43.56594" lon="6.6393">
        <ele>234.5</ele>
        <time>2022-10-05T13:15:05.000Z</time>
      </trkpt>
      <trkpt lat="43.56591" lon="6.63933">
        <ele>234.7</ele>
        <time>2022-10-05T13:15:10.000Z</time>
      </trkpt>
      <trkpt lat="43.56586" lon="6.63934">
        <ele>234.9</ele>
        <time>2022-10-05T13:15:16.000Z</time>
      </trkpt>
      <trkpt lat="43.56582" lon="6.63935">
        <ele>235</ele>
        <time>2022-10-05T13:15:20.000Z</time>
      </trkpt>
      <trkpt lat="43.56578" lon="6.63935">
        <ele>235</ele>
        <time>2022-10-05T13:15:24.000Z</time>
      </trkpt>
      <trkpt lat="43.56574" lon="6.63935">
        <ele>234.9</ele>
        <time>2022-10-05T13:15:28.000Z</time>
      </trkpt>
      <trkpt lat="43.5657" lon="6.63938">
        <ele>234.8</ele>
        <time>2022-10-05T13:15:33.000Z</time>
      </trkpt>
      <trkpt lat="43.56568" lon="6.63943">
        <ele>234.4</ele>
        <time>2022-10-05T13:15:39.000Z</time>
      </trkpt>
      <trkpt lat="43.56567" lon="6.63944">
        <ele>234.3</ele>
        <time>2022-10-05T13:15:40.000Z</time>
      </trkpt>
      <trkpt lat="43.56568" lon="6.63955">
        <ele>233.3</ele>
        <time>2022-10-05T13:15:52.000Z</time>
      </trkpt>
      <trkpt lat="43.56569" lon="6.63961">
        <ele>232.5</ele>
        <time>2022-10-05T13:15:59.000Z</time>
      </trkpt>
      <trkpt lat="43.56571" lon="6.63966">
        <ele>231.6</ele>
        <time>2022-10-05T13:16:10.000Z</time>
      </trkpt>
      <trkpt lat="43.56572" lon="6.63971">
        <ele>230.9</ele>
        <time>2022-10-05T13:16:17.000Z</time>
      </trkpt>
      <trkpt lat="43.5657" lon="6.63976">
        <ele>230.2</ele>
        <time>2022-10-05T13:16:22.000Z</time>
      </trkpt>
      <trkpt lat="43.56568" lon="6.63981">
        <ele>229.6</ele>
        <time>2022-10-05T13:16:26.000Z</time>
      </trkpt>
      <trkpt lat="43.56565" lon="6.63986">
        <ele>229</ele>
        <time>2022-10-05T13:16:30.000Z</time>
      </trkpt>
      <trkpt lat="43.56563" lon="6.63991">
        <ele>228.3</ele>
        <time>2022-10-05T13:16:34.000Z</time>
      </trkpt>
      <trkpt lat="43.56561" lon="6.63996">
        <ele>227.6</ele>
        <time>2022-10-05T13:16:38.000Z</time>
      </trkpt>
      <trkpt lat="43.5656" lon="6.64001">
        <ele>226.6</ele>
        <time>2022-10-05T13:16:46.000Z</time>
      </trkpt>
      <trkpt lat="43.5656" lon="6.64002">
        <ele>226.5</ele>
        <time>2022-10-05T13:16:47.000Z</time>
      </trkpt>
      <trkpt lat="43.56555" lon="6.64004">
        <ele>224.5</ele>
        <time>2022-10-05T13:17:35.000Z</time>
      </trkpt>
      <trkpt lat="43.56551" lon="6.64006">
        <ele>224.4</ele>
        <time>2022-10-05T13:17:43.000Z</time>
      </trkpt>
      <trkpt lat="43.56547" lon="6.64008">
        <ele>223.8</ele>
        <time>2022-10-05T13:17:51.000Z</time>
      </trkpt>
      <trkpt lat="43.56547" lon="6.64009">
        <ele>223.7</ele>
        <time>2022-10-05T13:17:52.000Z</time>
      </trkpt>
      <trkpt lat="43.56542" lon="6.64014">
        <ele>223</ele>
        <time>2022-10-05T13:17:59.000Z</time>
      </trkpt>
      <trkpt lat="43.56539" lon="6.64018">
        <ele>222.5</ele>
        <time>2022-10-05T13:18:03.000Z</time>
      </trkpt>
      <trkpt lat="43.56535" lon="6.64022">
        <ele>222</ele>
        <time>2022-10-05T13:18:07.000Z</time>
      </trkpt>
      <trkpt lat="43.56532" lon="6.64025">
        <ele>221.6</ele>
        <time>2022-10-05T13:18:11.000Z</time>
      </trkpt>
      <trkpt lat="43.56529" lon="6.64027">
        <ele>221.3</ele>
        <time>2022-10-05T13:18:14.000Z</time>
      </trkpt>
      <trkpt lat="43.56525" lon="6.64029">
        <ele>221</ele>
        <time>2022-10-05T13:18:18.000Z</time>
      </trkpt>
      <trkpt lat="43.56521" lon="6.64031">
        <ele>220.7</ele>
        <time>2022-10-05T13:18:22.000Z</time>
      </trkpt>
      <trkpt lat="43.56517" lon="6.64031">
        <ele>220.2</ele>
        <time>2022-10-05T13:18:27.000Z</time>
      </trkpt>
      <trkpt lat="43.56512" lon="6.64032">
        <ele>219.5</ele>
        <time>2022-10-05T13:18:34.000Z</time>
      </trkpt>
      <trkpt lat="43.56508" lon="6.64034">
        <ele>219.1</ele>
        <time>2022-10-05T13:18:38.000Z</time>
      </trkpt>
      <trkpt lat="43.56504" lon="6.64037">
        <ele>216.5</ele>
        <time>2022-10-05T13:19:47.000Z</time>
      </trkpt>
      <trkpt lat="43.56504" lon="6.64037">
        <ele>216.5</ele>
        <time>2022-10-05T13:19:48.000Z</time>
      </trkpt>
      <trkpt lat="43.565" lon="6.64034">
        <ele>216.6</ele>
        <time>2022-10-05T13:21:06.000Z</time>
      </trkpt>
      <trkpt lat="43.56493" lon="6.64033">
        <ele>216.5</ele>
        <time>2022-10-05T13:21:16.000Z</time>
      </trkpt>
      <trkpt lat="43.56489" lon="6.64034">
        <ele>216.2</ele>
        <time>2022-10-05T13:21:21.000Z</time>
      </trkpt>
      <trkpt lat="43.56485" lon="6.64034">
        <ele>216</ele>
        <time>2022-10-05T13:21:25.000Z</time>
      </trkpt>
      <trkpt lat="43.56481" lon="6.64034">
        <ele>215.8</ele>
        <time>2022-10-05T13:21:30.000Z</time>
      </trkpt>
      <trkpt lat="43.56477" lon="6.64035">
        <ele>215.4</ele>
        <time>2022-10-05T13:21:35.000Z</time>
      </trkpt>
      <trkpt lat="43.56473" lon="6.64037">
        <ele>215</ele>
        <time>2022-10-05T13:21:40.000Z</time>
      </trkpt>
      <trkpt lat="43.56469" lon="6.6404">
        <ele>214.5</ele>
        <time>2022-10-05T13:21:44.000Z</time>
      </trkpt>
      <trkpt lat="43.56466" lon="6.64043">
        <ele>213.9</ele>
        <time>2022-10-05T13:21:48.000Z</time>
      </trkpt>
      <trkpt lat="43.56465" lon="6.64048">
        <ele>213.5</ele>
        <time>2022-10-05T13:21:52.000Z</time>
      </trkpt>
      <trkpt lat="43.56467" lon="6.64053">
        <ele>212.8</ele>
        <time>2022-10-05T13:21:58.000Z</time>
      </trkpt>
      <trkpt lat="43.56471" lon="6.64056">
        <ele>212.3</ele>
        <time>2022-10-05T13:22:04.000Z</time>
      </trkpt>
      <trkpt lat="43.56475" lon="6.64058">
        <ele>211.8</ele>
        <time>2022-10-05T13:22:09.000Z</time>
      </trkpt>
      <trkpt lat="43.56476" lon="6.64058">
        <ele>211.7</ele>
        <time>2022-10-05T13:22:10.000Z</time>
      </trkpt>
      <trkpt lat="43.56482" lon="6.64062">
        <ele>210.9</ele>
        <time>2022-10-05T13:22:19.000Z</time>
      </trkpt>
      <trkpt lat="43.56486" lon="6.64064">
        <ele>210.3</ele>
        <time>2022-10-05T13:22:23.000Z</time>
      </trkpt>
      <trkpt lat="43.56489" lon="6.64067">
        <ele>209.9</ele>
        <time>2022-10-05T13:22:27.000Z</time>
      </trkpt>
      <trkpt lat="43.56493" lon="6.6407">
        <ele>209.5</ele>
        <time>2022-10-05T13:22:31.000Z</time>
      </trkpt>
      <trkpt lat="43.56496" lon="6.64073">
        <ele>209.2</ele>
        <time>2022-10-05T13:22:35.000Z</time>
      </trkpt>
      <trkpt lat="43.56497" lon="6.64078">
        <ele>208.7</ele>
        <time>2022-10-05T13:22:41.000Z</time>
      </trkpt>
      <trkpt lat="43.56498" lon="6.64084">
        <ele>208.4</ele>
        <time>2022-10-05T13:22:47.000Z</time>
      </trkpt>
      <trkpt lat="43.56498" lon="6.6409">
        <ele>208.1</ele>
        <time>2022-10-05T13:22:52.000Z</time>
      </trkpt>
      <trkpt lat="43.56498" lon="6.64095">
        <ele>207.9</ele>
        <time>2022-10-05T13:22:58.000Z</time>
      </trkpt>
      <trkpt lat="43.56497" lon="6.64101">
        <ele>207.8</ele>
        <time>2022-10-05T13:23:02.000Z</time>
      </trkpt>
      <trkpt lat="43.56497" lon="6.64106">
        <ele>207.7</ele>
        <time>2022-10-05T13:23:06.000Z</time>
      </trkpt>
      <trkpt lat="43.56498" lon="6.64112">
        <ele>207.7</ele>
        <time>2022-10-05T13:23:09.000Z</time>
      </trkpt>
      <trkpt lat="43.56498" lon="6.64117">
        <ele>207.6</ele>
        <time>2022-10-05T13:23:12.000Z</time>
      </trkpt>
      <trkpt lat="43.56498" lon="6.64118">
        <ele>207.6</ele>
        <time>2022-10-05T13:23:13.000Z</time>
      </trkpt>
      <trkpt lat="43.56498" lon="6.64127">
        <ele>207.6</ele>
        <time>2022-10-05T13:23:18.000Z</time>
      </trkpt>
      <trkpt lat="43.56498" lon="6.64132">
        <ele>207.6</ele>
        <time>2022-10-05T13:23:21.000Z</time>
      </trkpt>
      <trkpt lat="43.56498" lon="6.64137">
        <ele>207.6</ele>
        <time>2022-10-05T13:23:24.000Z</time>
      </trkpt>
      <trkpt lat="43.56498" lon="6.64142">
        <ele>207.6</ele>
        <time>2022-10-05T13:23:27.000Z</time>
      </trkpt>
      <trkpt lat="43.56498" lon="6.64147">
        <ele>207.5</ele>
        <time>2022-10-05T13:23:30.000Z</time>
      </trkpt>
      <trkpt lat="43.56497" lon="6.64153">
        <ele>207.4</ele>
        <time>2022-10-05T13:23:34.000Z</time>
      </trkpt>
      <trkpt lat="43.56498" lon="6.64159">
        <ele>207.4</ele>
        <time>2022-10-05T13:23:38.000Z</time>
      </trkpt>
      <trkpt lat="43.56497" lon="6.64164">
        <ele>207.3</ele>
        <time>2022-10-05T13:23:41.000Z</time>
      </trkpt>
      <trkpt lat="43.56497" lon="6.6417">
        <ele>207.3</ele>
        <time>2022-10-05T13:23:45.000Z</time>
      </trkpt>
      <trkpt lat="43.56498" lon="6.64175">
        <ele>207.3</ele>
        <time>2022-10-05T13:23:49.000Z</time>
      </trkpt>
      <trkpt lat="43.56499" lon="6.6418">
        <ele>207.3</ele>
        <time>2022-10-05T13:23:53.000Z</time>
      </trkpt>
      <trkpt lat="43.56501" lon="6.64184">
        <ele>207.3</ele>
        <time>2022-10-05T13:23:57.000Z</time>
      </trkpt>
      <trkpt lat="43.56504" lon="6.64188">
        <ele>207.6</ele>
        <time>2022-10-05T13:24:01.000Z</time>
      </trkpt>
      <trkpt lat="43.56507" lon="6.6419">
        <ele>207.9</ele>
        <time>2022-10-05T13:24:05.000Z</time>
      </trkpt>
      <trkpt lat="43.56511" lon="6.64193">
        <ele>208.1</ele>
        <time>2022-10-05T13:24:09.000Z</time>
      </trkpt>
      <trkpt lat="43.56515" lon="6.64194">
        <ele>208.4</ele>
        <time>2022-10-05T13:24:13.000Z</time>
      </trkpt>
      <trkpt lat="43.56516" lon="6.64195">
        <ele>208.5</ele>
        <time>2022-10-05T13:24:14.000Z</time>
      </trkpt>
      <trkpt lat="43.56522" lon="6.64197">
        <ele>209</ele>
        <time>2022-10-05T13:24:21.000Z</time>
      </trkpt>
      <trkpt lat="43.56526" lon="6.64198">
        <ele>209.3</ele>
        <time>2022-10-05T13:24:25.000Z</time>
      </trkpt>
      <trkpt lat="43.5653" lon="6.642">
        <ele>209.7</ele>
        <time>2022-10-05T13:24:29.000Z</time>
      </trkpt>
      <trkpt lat="43.56533" lon="6.64202">
        <ele>210.1</ele>
        <time>2022-10-05T13:24:33.000Z</time>
      </trkpt>
      <trkpt lat="43.56537" lon="6.64204">
        <ele>210.5</ele>
        <time>2022-10-05T13:24:37.000Z</time>
      </trkpt>
      <trkpt lat="43.56541" lon="6.64205">
        <ele>210.9</ele>
        <time>2022-10-05T13:24:41.000Z</time>
      </trkpt>
      <trkpt lat="43.56544" lon="6.64207">
        <ele>211.2</ele>
        <time>2022-10-05T13:24:45.000Z</time>
      </trkpt>
      <trkpt lat="43.56548" lon="6.64209">
        <ele>211.5</ele>
        <time>2022-10-05T13:24:49.000Z</time>
      </trkpt>
      <trkpt lat="43.56552" lon="6.64212">
        <ele>211.8</ele>
        <time>2022-10-05T13:24:54.000Z</time>
      </trkpt>
      <trkpt lat="43.56556" lon="6.64214">
        <ele>212.8</ele>
        <time>2022-10-05T13:26:42.000Z</time>
      </trkpt>
      <trkpt lat="43.56556" lon="6.64215">
        <ele>212.8</ele>
        <time>2022-10-05T13:26:43.000Z</time>
      </trkpt>
      <trkpt lat="43.56562" lon="6.6422">
        <ele>212.8</ele>
        <time>2022-10-05T13:26:52.000Z</time>
      </trkpt>
      <trkpt lat="43.56565" lon="6.64223">
        <ele>212.8</ele>
        <time>2022-10-05T13:26:57.000Z</time>
      </trkpt>
      <trkpt lat="43.56568" lon="6.64227">
        <ele>212.8</ele>
        <time>2022-10-05T13:27:18.000Z</time>
      </trkpt>
      <trkpt lat="43.56565" lon="6.64223">
        <ele>212.8</ele>
        <time>2022-10-05T13:27:48.000Z</time>
      </trkpt>
      <trkpt lat="43.56565" lon="6.64223">
        <ele>212.8</ele>
        <time>2022-10-05T13:27:49.000Z</time>
      </trkpt>
      <trkpt lat="43.56558" lon="6.64217">
        <ele>212.7</ele>
        <time>2022-10-05T13:28:10.000Z</time>
      </trkpt>
      <trkpt lat="43.56554" lon="6.64214">
        <ele>212.6</ele>
        <time>2022-10-05T13:28:17.000Z</time>
      </trkpt>
      <trkpt lat="43.56551" lon="6.64211">
        <ele>212.6</ele>
        <time>2022-10-05T13:28:24.000Z</time>
      </trkpt>
      <trkpt lat="43.56547" lon="6.64209">
        <ele>212.7</ele>
        <time>2022-10-05T13:28:29.000Z</time>
      </trkpt>
      <trkpt lat="43.56544" lon="6.64207">
        <ele>212.8</ele>
        <time>2022-10-05T13:28:33.000Z</time>
      </trkpt>
      <trkpt lat="43.5654" lon="6.64205">
        <ele>212.9</ele>
        <time>2022-10-05T13:28:38.000Z</time>
      </trkpt>
      <trkpt lat="43.56536" lon="6.64202">
        <ele>212.7</ele>
        <time>2022-10-05T13:28:45.000Z</time>
      </trkpt>
      <trkpt lat="43.56532" lon="6.642">
        <ele>212.5</ele>
        <time>2022-10-05T13:28:50.000Z</time>
      </trkpt>
      <trkpt lat="43.56531" lon="6.642">
        <ele>212.4</ele>
        <time>2022-10-05T13:28:51.000Z</time>
      </trkpt>
      <trkpt lat="43.56524" lon="6.64197">
        <ele>212.1</ele>
        <time>2022-10-05T13:28:59.000Z</time>
      </trkpt>
      <trkpt lat="43.56521" lon="6.64195">
        <ele>211.8</ele>
        <time>2022-10-05T13:29:03.000Z</time>
      </trkpt>
      <trkpt lat="43.56517" lon="6.64193">
        <ele>211.4</ele>
        <time>2022-10-05T13:29:08.000Z</time>
      </trkpt>
      <trkpt lat="43.56513" lon="6.64192">
        <ele>211</ele>
        <time>2022-10-05T13:29:12.000Z</time>
      </trkpt>
      <trkpt lat="43.5651" lon="6.6419">
        <ele>210.6</ele>
        <time>2022-10-05T13:29:16.000Z</time>
      </trkpt>
      <trkpt lat="43.56506" lon="6.64188">
        <ele>210.2</ele>
        <time>2022-10-05T13:29:21.000Z</time>
      </trkpt>
      <trkpt lat="43.56502" lon="6.64185">
        <ele>209.7</ele>
        <time>2022-10-05T13:29:26.000Z</time>
      </trkpt>
      <trkpt lat="43.56498" lon="6.64185">
        <ele>209.4</ele>
        <time>2022-10-05T13:29:30.000Z</time>
      </trkpt>
      <trkpt lat="43.56494" lon="6.64185">
        <ele>209.1</ele>
        <time>2022-10-05T13:29:34.000Z</time>
      </trkpt>
      <trkpt lat="43.5649" lon="6.64186">
        <ele>208.9</ele>
        <time>2022-10-05T13:29:38.000Z</time>
      </trkpt>
      <trkpt lat="43.56486" lon="6.64187">
        <ele>208.7</ele>
        <time>2022-10-05T13:29:43.000Z</time>
      </trkpt>
      <trkpt lat="43.56483" lon="6.64187">
        <ele>208.7</ele>
        <time>2022-10-05T13:29:47.000Z</time>
      </trkpt>
      <trkpt lat="43.56478" lon="6.64188">
        <ele>208.7</ele>
        <time>2022-10-05T13:29:52.000Z</time>
      </trkpt>
      <trkpt lat="43.56478" lon="6.64189">
        <ele>208.8</ele>
        <time>2022-10-05T13:29:53.000Z</time>
      </trkpt>
      <trkpt lat="43.56471" lon="6.64193">
        <ele>209.3</ele>
        <time>2022-10-05T13:30:03.000Z</time>
      </trkpt>
      <trkpt lat="43.56467" lon="6.64195">
        <ele>209.7</ele>
        <time>2022-10-05T13:30:09.000Z</time>
      </trkpt>
      <trkpt lat="43.56464" lon="6.64198">
        <ele>210.3</ele>
        <time>2022-10-05T13:30:14.000Z</time>
      </trkpt>
      <trkpt lat="43.5646" lon="6.642">
        <ele>210.8</ele>
        <time>2022-10-05T13:30:19.000Z</time>
      </trkpt>
      <trkpt lat="43.56456" lon="6.64202">
        <ele>211.4</ele>
        <time>2022-10-05T13:30:25.000Z</time>
      </trkpt>
      <trkpt lat="43.56452" lon="6.64204">
        <ele>212</ele>
        <time>2022-10-05T13:30:31.000Z</time>
      </trkpt>
      <trkpt lat="43.56448" lon="6.64206">
        <ele>212.6</ele>
        <time>2022-10-05T13:30:36.000Z</time>
      </trkpt>
      <trkpt lat="43.56444" lon="6.64208">
        <ele>213.3</ele>
        <time>2022-10-05T13:30:41.000Z</time>
      </trkpt>
      <trkpt lat="43.5644" lon="6.6421">
        <ele>213.8</ele>
        <time>2022-10-05T13:30:46.000Z</time>
      </trkpt>
      <trkpt lat="43.56436" lon="6.6421">
        <ele>214.5</ele>
        <time>2022-10-05T13:30:51.000Z</time>
      </trkpt>
      <trkpt lat="43.56432" lon="6.64211">
        <ele>215.2</ele>
        <time>2022-10-05T13:30:56.000Z</time>
      </trkpt>
      <trkpt lat="43.56431" lon="6.64211">
        <ele>215.4</ele>
        <time>2022-10-05T13:30:57.000Z</time>
      </trkpt>
      <trkpt lat="43.56424" lon="6.64213">
        <ele>216.8</ele>
        <time>2022-10-05T13:31:10.000Z</time>
      </trkpt>
      <trkpt lat="43.5642" lon="6.64213">
        <ele>217.6</ele>
        <time>2022-10-05T13:31:22.000Z</time>
      </trkpt>
      <trkpt lat="43.56416" lon="6.64213">
        <ele>217.8</ele>
        <time>2022-10-05T13:31:31.000Z</time>
      </trkpt>
      <trkpt lat="43.56412" lon="6.64213">
        <ele>218</ele>
        <time>2022-10-05T13:31:39.000Z</time>
      </trkpt>
      <trkpt lat="43.56407" lon="6.64213">
        <ele>218.2</ele>
        <time>2022-10-05T13:31:45.000Z</time>
      </trkpt>
      <trkpt lat="43.56403" lon="6.64213">
        <ele>218.3</ele>
        <time>2022-10-05T13:31:54.000Z</time>
      </trkpt>
      <trkpt lat="43.56399" lon="6.64214">
        <ele>218.4</ele>
        <time>2022-10-05T13:32:09.000Z</time>
      </trkpt>
      <trkpt lat="43.56398" lon="6.64214">
        <ele>218.4</ele>
        <time>2022-10-05T13:32:10.000Z</time>
      </trkpt>
      <trkpt lat="43.56391" lon="6.6421">
        <ele>217.8</ele>
        <time>2022-10-05T13:32:25.000Z</time>
      </trkpt>
      <trkpt lat="43.56387" lon="6.64208">
        <ele>217.4</ele>
        <time>2022-10-05T13:32:29.000Z</time>
      </trkpt>
      <trkpt lat="43.56383" lon="6.64208">
        <ele>217.2</ele>
        <time>2022-10-05T13:32:32.000Z</time>
      </trkpt>
      <trkpt lat="43.5638" lon="6.64209">
        <ele>217</ele>
        <time>2022-10-05T13:32:34.000Z</time>
      </trkpt>
      <trkpt lat="43.56376" lon="6.6421">
        <ele>216.7</ele>
        <time>2022-10-05T13:32:37.000Z</time>
      </trkpt>
      <trkpt lat="43.56372" lon="6.64211">
        <ele>216.4</ele>
        <time>2022-10-05T13:32:41.000Z</time>
      </trkpt>
      <trkpt lat="43.56369" lon="6.64213">
        <ele>216</ele>
        <time>2022-10-05T13:32:44.000Z</time>
      </trkpt>
      <trkpt lat="43.56365" lon="6.64215">
        <ele>215.8</ele>
        <time>2022-10-05T13:32:47.000Z</time>
      </trkpt>
      <trkpt lat="43.56362" lon="6.64219">
        <ele>215.5</ele>
        <time>2022-10-05T13:32:51.000Z</time>
      </trkpt>
      <trkpt lat="43.56359" lon="6.64223">
        <ele>215.3</ele>
        <time>2022-10-05T13:32:55.000Z</time>
      </trkpt>
      <trkpt lat="43.56356" lon="6.64227">
        <ele>215.1</ele>
        <time>2022-10-05T13:32:59.000Z</time>
      </trkpt>
      <trkpt lat="43.56353" lon="6.6423">
        <ele>215</ele>
        <time>2022-10-05T13:33:03.000Z</time>
      </trkpt>
      <trkpt lat="43.56351" lon="6.64235">
        <ele>214.8</ele>
        <time>2022-10-05T13:33:08.000Z</time>
      </trkpt>
      <trkpt lat="43.56348" lon="6.64239">
        <ele>214.6</ele>
        <time>2022-10-05T13:33:13.000Z</time>
      </trkpt>
      <trkpt lat="43.56348" lon="6.6424">
        <ele>214.6</ele>
        <time>2022-10-05T13:33:14.000Z</time>
      </trkpt>
      <trkpt lat="43.56345" lon="6.64248">
        <ele>214.3</ele>
        <time>2022-10-05T13:33:20.000Z</time>
      </trkpt>
      <trkpt lat="43.56342" lon="6.64253">
        <ele>214.2</ele>
        <time>2022-10-05T13:33:24.000Z</time>
      </trkpt>
      <trkpt lat="43.56341" lon="6.64258">
        <ele>214</ele>
        <time>2022-10-05T13:33:28.000Z</time>
      </trkpt>
      <trkpt lat="43.56339" lon="6.64262">
        <ele>213.7</ele>
        <time>2022-10-05T13:33:31.000Z</time>
      </trkpt>
      <trkpt lat="43.56337" lon="6.64266">
        <ele>213.4</ele>
        <time>2022-10-05T13:33:35.000Z</time>
      </trkpt>
      <trkpt lat="43.56334" lon="6.64271">
        <ele>213.1</ele>
        <time>2022-10-05T13:33:40.000Z</time>
      </trkpt>
      <trkpt lat="43.56332" lon="6.64275">
        <ele>213</ele>
        <time>2022-10-05T13:33:44.000Z</time>
      </trkpt>
      <trkpt lat="43.56329" lon="6.64279">
        <ele>212.9</ele>
        <time>2022-10-05T13:33:49.000Z</time>
      </trkpt>
      <trkpt lat="43.56327" lon="6.64284">
        <ele>212.7</ele>
        <time>2022-10-05T13:33:55.000Z</time>
      </trkpt>
      <trkpt lat="43.56325" lon="6.6429">
        <ele>212.5</ele>
        <time>2022-10-05T13:34:02.000Z</time>
      </trkpt>
      <trkpt lat="43.56324" lon="6.64295">
        <ele>212.3</ele>
        <time>2022-10-05T13:34:06.000Z</time>
      </trkpt>
      <trkpt lat="43.56322" lon="6.643">
        <ele>212.2</ele>
        <time>2022-10-05T13:34:09.000Z</time>
      </trkpt>
      <trkpt lat="43.5632" lon="6.64304">
        <ele>212</ele>
        <time>2022-10-05T13:34:13.000Z</time>
      </trkpt>
      <trkpt lat="43.56318" lon="6.64309">
        <ele>211.9</ele>
        <time>2022-10-05T13:34:16.000Z</time>
      </trkpt>
      <trkpt lat="43.56317" lon="6.6431">
        <ele>211.9</ele>
        <time>2022-10-05T13:34:17.000Z</time>
      </trkpt>
      <trkpt lat="43.56312" lon="6.64318">
        <ele>211.6</ele>
        <time>2022-10-05T13:34:24.000Z</time>
      </trkpt>
      <trkpt lat="43.56311" lon="6.64323">
        <ele>211.5</ele>
        <time>2022-10-05T13:34:28.000Z</time>
      </trkpt>
      <trkpt lat="43.5631" lon="6.64328">
        <ele>211.4</ele>
        <time>2022-10-05T13:34:33.000Z</time>
      </trkpt>
      <trkpt lat="43.5631" lon="6.64333">
        <ele>211.3</ele>
        <time>2022-10-05T13:34:38.000Z</time>
      </trkpt>
      <trkpt lat="43.56312" lon="6.64338">
        <ele>211.4</ele>
        <time>2022-10-05T13:34:44.000Z</time>
      </trkpt>
      <trkpt lat="43.56315" lon="6.64342">
        <ele>211.6</ele>
        <time>2022-10-05T13:34:51.000Z</time>
      </trkpt>
      <trkpt lat="43.56318" lon="6.64347">
        <ele>211.9</ele>
        <time>2022-10-05T13:34:57.000Z</time>
      </trkpt>
      <trkpt lat="43.56321" lon="6.6435">
        <ele>212.3</ele>
        <time>2022-10-05T13:35:02.000Z</time>
      </trkpt>
      <trkpt lat="43.56325" lon="6.64353">
        <ele>212.7</ele>
        <time>2022-10-05T13:35:07.000Z</time>
      </trkpt>
      <trkpt lat="43.56328" lon="6.64356">
        <ele>213.5</ele>
        <time>2022-10-05T13:35:13.000Z</time>
      </trkpt>
      <trkpt lat="43.56331" lon="6.64359">
        <ele>214</ele>
        <time>2022-10-05T13:35:18.000Z</time>
      </trkpt>
      <trkpt lat="43.56332" lon="6.6436">
        <ele>214</ele>
        <time>2022-10-05T13:35:19.000Z</time>
      </trkpt>
      <trkpt lat="43.56338" lon="6.64364">
        <ele>214.5</ele>
        <time>2022-10-05T13:35:26.000Z</time>
      </trkpt>
      <trkpt lat="43.56341" lon="6.64368">
        <ele>214.7</ele>
        <time>2022-10-05T13:35:30.000Z</time>
      </trkpt>
      <trkpt lat="43.56345" lon="6.64371">
        <ele>214.8</ele>
        <time>2022-10-05T13:35:34.000Z</time>
      </trkpt>
      <trkpt lat="43.56348" lon="6.64374">
        <ele>215</ele>
        <time>2022-10-05T13:35:38.000Z</time>
      </trkpt>
      <trkpt lat="43.56352" lon="6.64376">
        <ele>215.1</ele>
        <time>2022-10-05T13:35:42.000Z</time>
      </trkpt>
      <trkpt lat="43.56355" lon="6.64378">
        <ele>215.2</ele>
        <time>2022-10-05T13:35:45.000Z</time>
      </trkpt>
      <trkpt lat="43.56358" lon="6.6438">
        <ele>215.3</ele>
        <time>2022-10-05T13:35:48.000Z</time>
      </trkpt>
      <trkpt lat="43.56362" lon="6.64382">
        <ele>215.4</ele>
        <time>2022-10-05T13:35:53.000Z</time>
      </trkpt>
      <trkpt lat="43.56365" lon="6.64384">
        <ele>215.5</ele>
        <time>2022-10-05T13:36:01.000Z</time>
      </trkpt>
      <trkpt lat="43.56369" lon="6.64388">
        <ele>215.4</ele>
        <time>2022-10-05T13:36:07.000Z</time>
      </trkpt>
      <trkpt lat="43.56373" lon="6.6439">
        <ele>215.2</ele>
        <time>2022-10-05T13:36:12.000Z</time>
      </trkpt>
      <trkpt lat="43.56377" lon="6.64391">
        <ele>215.1</ele>
        <time>2022-10-05T13:36:16.000Z</time>
      </trkpt>
      <trkpt lat="43.5638" lon="6.64394">
        <ele>214.8</ele>
        <time>2022-10-05T13:36:20.000Z</time>
      </trkpt>
      <trkpt lat="43.56381" lon="6.64394">
        <ele>214.8</ele>
        <time>2022-10-05T13:36:21.000Z</time>
      </trkpt>
      <trkpt lat="43.56386" lon="6.64399">
        <ele>214.4</ele>
        <time>2022-10-05T13:36:27.000Z</time>
      </trkpt>
      <trkpt lat="43.56389" lon="6.64401">
        <ele>214.2</ele>
        <time>2022-10-05T13:36:30.000Z</time>
      </trkpt>
      <trkpt lat="43.56392" lon="6.64405">
        <ele>213.7</ele>
        <time>2022-10-05T13:36:34.000Z</time>
      </trkpt>
      <trkpt lat="43.56395" lon="6.6441">
        <ele>213.2</ele>
        <time>2022-10-05T13:36:40.000Z</time>
      </trkpt>
      <trkpt lat="43.56398" lon="6.64413">
        <ele>212</ele>
        <time>2022-10-05T13:36:44.000Z</time>
      </trkpt>
      <trkpt lat="43.56401" lon="6.64418">
        <ele>212.8</ele>
        <time>2022-10-05T13:36:49.000Z</time>
      </trkpt>
      <trkpt lat="43.56404" lon="6.64421">
        <ele>212.7</ele>
        <time>2022-10-05T13:36:53.000Z</time>
      </trkpt>
      <trkpt lat="43.56408" lon="6.64424">
        <ele>212.6</ele>
        <time>2022-10-05T13:36:56.000Z</time>
      </trkpt>
      <trkpt lat="43.56412" lon="6.64426">
        <ele>212.4</ele>
        <time>2022-10-05T13:37:00.000Z</time>
      </trkpt>
      <trkpt lat="43.56416" lon="6.64429">
        <ele>212.3</ele>
        <time>2022-10-05T13:37:05.000Z</time>
      </trkpt>
      <trkpt lat="43.5642" lon="6.6443">
        <ele>212.2</ele>
        <time>2022-10-05T13:37:09.000Z</time>
      </trkpt>
      <trkpt lat="43.56424" lon="6.64431">
        <ele>212.1</ele>
        <time>2022-10-05T13:37:13.000Z</time>
      </trkpt>
      <trkpt lat="43.56428" lon="6.64432">
        <ele>211.9</ele>
        <time>2022-10-05T13:37:17.000Z</time>
      </trkpt>
      <trkpt lat="43.56432" lon="6.64433">
        <ele>211.7</ele>
        <time>2022-10-05T13:37:21.000Z</time>
      </trkpt>
      <trkpt lat="43.56433" lon="6.64433">
        <ele>211.6</ele>
        <time>2022-10-05T13:37:22.000Z</time>
      </trkpt>
      <trkpt lat="43.5644" lon="6.64437">
        <ele>211.3</ele>
        <time>2022-10-05T13:37:31.000Z</time>
      </trkpt>
      <trkpt lat="43.56444" lon="6.64437">
        <ele>210.9</ele>
        <time>2022-10-05T13:37:41.000Z</time>
      </trkpt>
      <trkpt lat="43.56448" lon="6.64438">
        <ele>210.6</ele>
        <time>2022-10-05T13:37:57.000Z</time>
      </trkpt>
      <trkpt lat="43.56452" lon="6.64438">
        <ele>210.4</ele>
        <time>2022-10-05T13:38:09.000Z</time>
      </trkpt>
      <trkpt lat="43.56456" lon="6.64439">
        <ele>210.4</ele>
        <time>2022-10-05T13:38:17.000Z</time>
      </trkpt>
      <trkpt lat="43.56459" lon="6.64444">
        <ele>210.4</ele>
        <time>2022-10-05T13:38:25.000Z</time>
      </trkpt>
      <trkpt lat="43.56459" lon="6.64444">
        <ele>210.3</ele>
        <time>2022-10-05T13:38:26.000Z</time>
      </trkpt>
      <trkpt lat="43.56466" lon="6.64451">
        <ele>208.8</ele>
        <time>2022-10-05T13:39:13.000Z</time>
      </trkpt>
      <trkpt lat="43.5647" lon="6.64454">
        <ele>207.7</ele>
        <time>2022-10-05T13:40:02.000Z</time>
      </trkpt>
      <trkpt lat="43.5647" lon="6.64454">
        <ele>207.7</ele>
        <time>2022-10-05T13:40:03.000Z</time>
      </trkpt>
      <trkpt lat="43.56477" lon="6.64461">
        <ele>206.4</ele>
        <time>2022-10-05T13:41:13.000Z</time>
      </trkpt>
      <trkpt lat="43.56477" lon="6.64461">
        <ele>206.4</ele>
        <time>2022-10-05T13:41:14.000Z</time>
      </trkpt>
      <trkpt lat="43.5647" lon="6.64466">
        <ele>202.8</ele>
        <time>2022-10-05T13:42:30.000Z</time>
      </trkpt>
      <trkpt lat="43.5647" lon="6.64466">
        <ele>202.7</ele>
        <time>2022-10-05T13:42:31.000Z</time>
      </trkpt>
      <trkpt lat="43.56474" lon="6.64477">
        <ele>198.9</ele>
        <time>2022-10-05T13:43:44.000Z</time>
      </trkpt>
      <trkpt lat="43.56474" lon="6.64477">
        <ele>198.8</ele>
        <time>2022-10-05T13:43:45.000Z</time>
      </trkpt>
      <trkpt lat="43.5648" lon="6.64484">
        <ele>197.4</ele>
        <time>2022-10-05T13:44:33.000Z</time>
      </trkpt>
      <trkpt lat="43.56483" lon="6.64488">
        <ele>196</ele>
        <time>2022-10-05T13:44:48.000Z</time>
      </trkpt>
      <trkpt lat="43.56483" lon="6.64489">
        <ele>195.9</ele>
        <time>2022-10-05T13:44:49.000Z</time>
      </trkpt>
      <trkpt lat="43.56482" lon="6.64499">
        <ele>192.8</ele>
        <time>2022-10-05T13:45:44.000Z</time>
      </trkpt>
      <trkpt lat="43.56483" lon="6.64504">
        <ele>192.9</ele>
        <time>2022-10-05T13:47:03.000Z</time>
      </trkpt>
      <trkpt lat="43.56483" lon="6.64505">
        <ele>192.9</ele>
        <time>2022-10-05T13:47:04.000Z</time>
      </trkpt>
      <trkpt lat="43.56486" lon="6.64515">
        <ele>192.7</ele>
        <time>2022-10-05T13:47:13.000Z</time>
      </trkpt>
      <trkpt lat="43.56488" lon="6.6452">
        <ele>192.5</ele>
        <time>2022-10-05T13:47:22.000Z</time>
      </trkpt>
      <trkpt lat="43.56488" lon="6.64526">
        <ele>192.2</ele>
        <time>2022-10-05T13:47:28.000Z</time>
      </trkpt>
      <trkpt lat="43.56491" lon="6.6453">
        <ele>191.9</ele>
        <time>2022-10-05T13:47:35.000Z</time>
      </trkpt>
      <trkpt lat="43.56496" lon="6.64531">
        <ele>191.7</ele>
        <time>2022-10-05T13:47:44.000Z</time>
      </trkpt>
      <trkpt lat="43.56499" lon="6.64527">
        <ele>192.2</ele>
        <time>2022-10-05T13:48:33.000Z</time>
      </trkpt>
      <trkpt lat="43.56499" lon="6.64527">
        <ele>192.2</ele>
        <time>2022-10-05T13:48:34.000Z</time>
      </trkpt>
      <trkpt lat="43.56498" lon="6.64535">
        <ele>192.4</ele>
        <time>2022-10-05T13:49:12.000Z</time>
      </trkpt>
      <trkpt lat="43.56499" lon="6.64541">
        <ele>192.7</ele>
        <time>2022-10-05T13:49:27.000Z</time>
      </trkpt>
      <trkpt lat="43.56502" lon="6.64545">
        <ele>193.4</ele>
        <time>2022-10-05T13:49:35.000Z</time>
      </trkpt>
      <trkpt lat="43.56502" lon="6.64546">
        <ele>193.5</ele>
        <time>2022-10-05T13:49:36.000Z</time>
      </trkpt>
      <trkpt lat="43.56507" lon="6.64555">
        <ele>195.7</ele>
        <time>2022-10-05T13:49:56.000Z</time>
      </trkpt>
      <trkpt lat="43.5651" lon="6.6455">
        <ele>196.8</ele>
        <time>2022-10-05T13:51:03.000Z</time>
      </trkpt>
      <trkpt lat="43.56509" lon="6.6455">
        <ele>196.8</ele>
        <time>2022-10-05T13:51:04.000Z</time>
      </trkpt>
      <trkpt lat="43.56508" lon="6.64561">
        <ele>196.8</ele>
        <time>2022-10-05T13:51:59.000Z</time>
      </trkpt>
      <trkpt lat="43.56505" lon="6.64565">
        <ele>196.8</ele>
        <time>2022-10-05T13:52:04.000Z</time>
      </trkpt>
      <trkpt lat="43.56502" lon="6.64569">
        <ele>196.8</ele>
        <time>2022-10-05T13:52:08.000Z</time>
      </trkpt>
      <trkpt lat="43.56502" lon="6.64571">
        <ele>196.7</ele>
        <time>2022-10-05T13:52:09.000Z</time>
      </trkpt>
      <trkpt lat="43.56498" lon="6.64579">
        <ele>196.5</ele>
        <time>2022-10-05T13:52:18.000Z</time>
      </trkpt>
      <trkpt lat="43.56499" lon="6.64585">
        <ele>196.3</ele>
        <time>2022-10-05T13:52:25.000Z</time>
      </trkpt>
      <trkpt lat="43.56497" lon="6.64591">
        <ele>196.2</ele>
        <time>2022-10-05T13:52:49.000Z</time>
      </trkpt>
      <trkpt lat="43.56499" lon="6.64596">
        <ele>196.3</ele>
        <time>2022-10-05T13:53:03.000Z</time>
      </trkpt>
      <trkpt lat="43.56502" lon="6.64601">
        <ele>196.8</ele>
        <time>2022-10-05T13:53:12.000Z</time>
      </trkpt>
      <trkpt lat="43.56502" lon="6.64602">
        <ele>196.9</ele>
        <time>2022-10-05T13:53:13.000Z</time>
      </trkpt>
      <trkpt lat="43.56509" lon="6.64606">
        <ele>199.1</ele>
        <time>2022-10-05T13:53:38.000Z</time>
      </trkpt>
      <trkpt lat="43.56513" lon="6.64603">
        <ele>199.8</ele>
        <time>2022-10-05T13:53:48.000Z</time>
      </trkpt>
      <trkpt lat="43.56516" lon="6.646">
        <ele>200.5</ele>
        <time>2022-10-05T13:53:55.000Z</time>
      </trkpt>
      <trkpt lat="43.5652" lon="6.64598">
        <ele>201.4</ele>
        <time>2022-10-05T13:54:02.000Z</time>
      </trkpt>
      <trkpt lat="43.56524" lon="6.64595">
        <ele>202.4</ele>
        <time>2022-10-05T13:54:10.000Z</time>
      </trkpt>
      <trkpt lat="43.56526" lon="6.6459">
        <ele>203.6</ele>
        <time>2022-10-05T13:54:18.000Z</time>
      </trkpt>
      <trkpt lat="43.56527" lon="6.6459">
        <ele>203.7</ele>
        <time>2022-10-05T13:54:19.000Z</time>
      </trkpt>
      <trkpt lat="43.56535" lon="6.6459">
        <ele>206.7</ele>
        <time>2022-10-05T13:54:46.000Z</time>
      </trkpt>
      <trkpt lat="43.56539" lon="6.6459">
        <ele>208.1</ele>
        <time>2022-10-05T13:54:57.000Z</time>
      </trkpt>
      <trkpt lat="43.56543" lon="6.64592">
        <ele>209.5</ele>
        <time>2022-10-05T13:55:05.000Z</time>
      </trkpt>
      <trkpt lat="43.56547" lon="6.64594">
        <ele>210.5</ele>
        <time>2022-10-05T13:55:12.000Z</time>
      </trkpt>
      <trkpt lat="43.56551" lon="6.64594">
        <ele>211.7</ele>
        <time>2022-10-05T13:55:19.000Z</time>
      </trkpt>
      <trkpt lat="43.56552" lon="6.64594">
        <ele>211.9</ele>
        <time>2022-10-05T13:55:20.000Z</time>
      </trkpt>
      <trkpt lat="43.56559" lon="6.64593">
        <ele>214.6</ele>
        <time>2022-10-05T13:55:37.000Z</time>
      </trkpt>
      <trkpt lat="43.56563" lon="6.6459">
        <ele>216.7</ele>
        <time>2022-10-05T13:55:49.000Z</time>
      </trkpt>
      <trkpt lat="43.56566" lon="6.64586">
        <ele>218.7</ele>
        <time>2022-10-05T13:56:04.000Z</time>
      </trkpt>
      <trkpt lat="43.56569" lon="6.64581">
        <ele>220</ele>
        <time>2022-10-05T13:56:14.000Z</time>
      </trkpt>
      <trkpt lat="43.56571" lon="6.64577">
        <ele>220.7</ele>
        <time>2022-10-05T13:56:21.000Z</time>
      </trkpt>
      <trkpt lat="43.56572" lon="6.64576">
        <ele>220.8</ele>
        <time>2022-10-05T13:56:22.000Z</time>
      </trkpt>
      <trkpt lat="43.56574" lon="6.64567">
        <ele>222.3</ele>
        <time>2022-10-05T13:56:36.000Z</time>
      </trkpt>
      <trkpt lat="43.56574" lon="6.64561">
        <ele>222.7</ele>
        <time>2022-10-05T13:56:42.000Z</time>
      </trkpt>
      <trkpt lat="43.56576" lon="6.64556">
        <ele>222.9</ele>
        <time>2022-10-05T13:56:47.000Z</time>
      </trkpt>
      <trkpt lat="43.56576" lon="6.64551">
        <ele>223.2</ele>
        <time>2022-10-05T13:56:51.000Z</time>
      </trkpt>
      <trkpt lat="43.56578" lon="6.64546">
        <ele>223.6</ele>
        <time>2022-10-05T13:56:55.000Z</time>
      </trkpt>
      <trkpt lat="43.56581" lon="6.64542">
        <ele>224.1</ele>
        <time>2022-10-05T13:57:02.000Z</time>
      </trkpt>
      <trkpt lat="43.56584" lon="6.64538">
        <ele>224.4</ele>
        <time>2022-10-05T13:57:08.000Z</time>
      </trkpt>
      <trkpt lat="43.56587" lon="6.64535">
        <ele>224.6</ele>
        <time>2022-10-05T13:57:13.000Z</time>
      </trkpt>
      <trkpt lat="43.56591" lon="6.64531">
        <ele>224.8</ele>
        <time>2022-10-05T13:57:20.000Z</time>
      </trkpt>
      <trkpt lat="43.56594" lon="6.64528">
        <ele>224.9</ele>
        <time>2022-10-05T13:57:27.000Z</time>
      </trkpt>
      <trkpt lat="43.56595" lon="6.64528">
        <ele>224.9</ele>
        <time>2022-10-05T13:57:28.000Z</time>
      </trkpt>
      <trkpt lat="43.56602" lon="6.64524">
        <ele>225.1</ele>
        <time>2022-10-05T13:57:36.000Z</time>
      </trkpt>
      <trkpt lat="43.56605" lon="6.6452">
        <ele>225.6</ele>
        <time>2022-10-05T13:57:42.000Z</time>
      </trkpt>
      <trkpt lat="43.56607" lon="6.64516">
        <ele>225.8</ele>
        <time>2022-10-05T13:57:46.000Z</time>
      </trkpt>
      <trkpt lat="43.5661" lon="6.64513">
        <ele>226.1</ele>
        <time>2022-10-05T13:57:50.000Z</time>
      </trkpt>
      <trkpt lat="43.56613" lon="6.64509">
        <ele>226.3</ele>
        <time>2022-10-05T13:57:54.000Z</time>
      </trkpt>
      <trkpt lat="43.56616" lon="6.64505">
        <ele>226.5</ele>
        <time>2022-10-05T13:58:00.000Z</time>
      </trkpt>
      <trkpt lat="43.56617" lon="6.64499">
        <ele>226.9</ele>
        <time>2022-10-05T13:58:22.000Z</time>
      </trkpt>
      <trkpt lat="43.5662" lon="6.64494">
        <ele>226.2</ele>
        <time>2022-10-05T13:58:44.000Z</time>
      </trkpt>
      <trkpt lat="43.5662" lon="6.64494">
        <ele>226.1</ele>
        <time>2022-10-05T13:58:45.000Z</time>
      </trkpt>
      <trkpt lat="43.56628" lon="6.64498">
        <ele>226.4</ele>
        <time>2022-10-05T14:00:14.000Z</time>
      </trkpt>
      <trkpt lat="43.56629" lon="6.64498">
        <ele>226.4</ele>
        <time>2022-10-05T14:00:15.000Z</time>
      </trkpt>
      <trkpt lat="43.56635" lon="6.64503">
        <ele>226.6</ele>
        <time>2022-10-05T14:00:35.000Z</time>
      </trkpt>
      <trkpt lat="43.56631" lon="6.645">
        <ele>227</ele>
        <time>2022-10-05T14:02:15.000Z</time>
      </trkpt>
      <trkpt lat="43.56631" lon="6.64499">
        <ele>227</ele>
        <time>2022-10-05T14:02:16.000Z</time>
      </trkpt>
      <trkpt lat="43.56634" lon="6.64503">
        <ele>227.1</ele>
        <time>2022-10-05T14:03:59.000Z</time>
      </trkpt>
      <trkpt lat="43.56635" lon="6.64503">
        <ele>227.1</ele>
        <time>2022-10-05T14:04:00.000Z</time>
      </trkpt>
      <trkpt lat="43.56627" lon="6.64497">
        <ele>226.9</ele>
        <time>2022-10-05T14:05:04.000Z</time>
      </trkpt>
      <trkpt lat="43.56627" lon="6.64497">
        <ele>226.9</ele>
        <time>2022-10-05T14:05:05.000Z</time>
      </trkpt>
      <trkpt lat="43.56625" lon="6.64508">
        <ele>227</ele>
        <time>2022-10-05T14:05:16.000Z</time>
      </trkpt>
      <trkpt lat="43.56625" lon="6.64513">
        <ele>227.2</ele>
        <time>2022-10-05T14:05:20.000Z</time>
      </trkpt>
      <trkpt lat="43.56624" lon="6.64519">
        <ele>227.7</ele>
        <time>2022-10-05T14:05:26.000Z</time>
      </trkpt>
      <trkpt lat="43.56625" lon="6.64524">
        <ele>228</ele>
        <time>2022-10-05T14:05:30.000Z</time>
      </trkpt>
      <trkpt lat="43.56625" lon="6.64529">
        <ele>228.4</ele>
        <time>2022-10-05T14:05:34.000Z</time>
      </trkpt>
      <trkpt lat="43.56625" lon="6.64535">
        <ele>228.8</ele>
        <time>2022-10-05T14:05:38.000Z</time>
      </trkpt>
      <trkpt lat="43.56626" lon="6.64541">
        <ele>229.1</ele>
        <time>2022-10-05T14:05:42.000Z</time>
      </trkpt>
      <trkpt lat="43.56627" lon="6.64547">
        <ele>229.4</ele>
        <time>2022-10-05T14:05:46.000Z</time>
      </trkpt>
      <trkpt lat="43.56628" lon="6.64552">
        <ele>229.8</ele>
        <time>2022-10-05T14:05:50.000Z</time>
      </trkpt>
      <trkpt lat="43.56629" lon="6.64557">
        <ele>230.2</ele>
        <time>2022-10-05T14:05:54.000Z</time>
      </trkpt>
      <trkpt lat="43.56631" lon="6.64562">
        <ele>230.6</ele>
        <time>2022-10-05T14:05:58.000Z</time>
      </trkpt>
      <trkpt lat="43.56632" lon="6.64566">
        <ele>231</ele>
        <time>2022-10-05T14:06:01.000Z</time>
      </trkpt>
      <trkpt lat="43.56634" lon="6.64572">
        <ele>231.7</ele>
        <time>2022-10-05T14:06:05.000Z</time>
      </trkpt>
      <trkpt lat="43.56634" lon="6.64577">
        <ele>232.6</ele>
        <time>2022-10-05T14:06:11.000Z</time>
      </trkpt>
      <trkpt lat="43.56634" lon="6.64579">
        <ele>232.8</ele>
        <time>2022-10-05T14:06:12.000Z</time>
      </trkpt>
      <trkpt lat="43.56635" lon="6.64589">
        <ele>233.7</ele>
        <time>2022-10-05T14:06:19.000Z</time>
      </trkpt>
      <trkpt lat="43.56636" lon="6.64593">
        <ele>234.1</ele>
        <time>2022-10-05T14:06:22.000Z</time>
      </trkpt>
      <trkpt lat="43.56637" lon="6.64598">
        <ele>234.5</ele>
        <time>2022-10-05T14:06:25.000Z</time>
      </trkpt>
      <trkpt lat="43.56636" lon="6.64604">
        <ele>234.8</ele>
        <time>2022-10-05T14:06:28.000Z</time>
      </trkpt>
      <trkpt lat="43.56636" lon="6.64609">
        <ele>235.1</ele>
        <time>2022-10-05T14:06:31.000Z</time>
      </trkpt>
      <trkpt lat="43.56636" lon="6.64615">
        <ele>235.4</ele>
        <time>2022-10-05T14:06:35.000Z</time>
      </trkpt>
      <trkpt lat="43.56636" lon="6.64621">
        <ele>235.8</ele>
        <time>2022-10-05T14:06:39.000Z</time>
      </trkpt>
      <trkpt lat="43.56636" lon="6.64626">
        <ele>236</ele>
        <time>2022-10-05T14:06:42.000Z</time>
      </trkpt>
      <trkpt lat="43.56636" lon="6.64631">
        <ele>236.1</ele>
        <time>2022-10-05T14:06:45.000Z</time>
      </trkpt>
      <trkpt lat="43.56636" lon="6.64636">
        <ele>236.3</ele>
        <time>2022-10-05T14:06:48.000Z</time>
      </trkpt>
      <trkpt lat="43.56635" lon="6.6464">
        <ele>236.4</ele>
        <time>2022-10-05T14:06:51.000Z</time>
      </trkpt>
      <trkpt lat="43.56635" lon="6.64647">
        <ele>236.5</ele>
        <time>2022-10-05T14:06:55.000Z</time>
      </trkpt>
      <trkpt lat="43.56635" lon="6.64652">
        <ele>236.6</ele>
        <time>2022-10-05T14:06:59.000Z</time>
      </trkpt>
      <trkpt lat="43.56633" lon="6.64658">
        <ele>236.7</ele>
        <time>2022-10-05T14:07:03.000Z</time>
      </trkpt>
      <trkpt lat="43.56632" lon="6.64662">
        <ele>236.7</ele>
        <time>2022-10-05T14:07:06.000Z</time>
      </trkpt>
      <trkpt lat="43.56631" lon="6.64668">
        <ele>236.8</ele>
        <time>2022-10-05T14:07:10.000Z</time>
      </trkpt>
      <trkpt lat="43.56629" lon="6.64674">
        <ele>236.9</ele>
        <time>2022-10-05T14:07:14.000Z</time>
      </trkpt>
      <trkpt lat="43.56629" lon="6.64675">
        <ele>237</ele>
        <time>2022-10-05T14:07:15.000Z</time>
      </trkpt>
      <trkpt lat="43.56627" lon="6.64685">
        <ele>236.9</ele>
        <time>2022-10-05T14:07:21.000Z</time>
      </trkpt>
      <trkpt lat="43.56627" lon="6.6469">
        <ele>236.9</ele>
        <time>2022-10-05T14:07:24.000Z</time>
      </trkpt>
      <trkpt lat="43.56626" lon="6.64695">
        <ele>236.9</ele>
        <time>2022-10-05T14:07:27.000Z</time>
      </trkpt>
      <trkpt lat="43.56626" lon="6.64701">
        <ele>236.9</ele>
        <time>2022-10-05T14:07:31.000Z</time>
      </trkpt>
      <trkpt lat="43.56627" lon="6.64707">
        <ele>236.9</ele>
        <time>2022-10-05T14:07:35.000Z</time>
      </trkpt>
      <trkpt lat="43.56627" lon="6.64712">
        <ele>236.9</ele>
        <time>2022-10-05T14:07:39.000Z</time>
      </trkpt>
      <trkpt lat="43.56628" lon="6.64718">
        <ele>237</ele>
        <time>2022-10-05T14:07:45.000Z</time>
      </trkpt>
      <trkpt lat="43.56627" lon="6.64722">
        <ele>237</ele>
        <time>2022-10-05T14:07:48.000Z</time>
      </trkpt>
      <trkpt lat="43.56625" lon="6.64728">
        <ele>237.2</ele>
        <time>2022-10-05T14:07:51.000Z</time>
      </trkpt>
      <trkpt lat="43.56624" lon="6.64734">
        <ele>237.4</ele>
        <time>2022-10-05T14:07:55.000Z</time>
      </trkpt>
      <trkpt lat="43.56621" lon="6.64738">
        <ele>237.6</ele>
        <time>2022-10-05T14:07:59.000Z</time>
      </trkpt>
      <trkpt lat="43.5662" lon="6.64743">
        <ele>237.9</ele>
        <time>2022-10-05T14:08:04.000Z</time>
      </trkpt>
      <trkpt lat="43.56621" lon="6.64749">
        <ele>238.3</ele>
        <time>2022-10-05T14:08:15.000Z</time>
      </trkpt>
      <trkpt lat="43.56621" lon="6.64749">
        <ele>238.4</ele>
        <time>2022-10-05T14:08:16.000Z</time>
      </trkpt>
      <trkpt lat="43.56624" lon="6.64759">
        <ele>238.8</ele>
        <time>2022-10-05T14:09:05.000Z</time>
      </trkpt>
      <trkpt lat="43.56628" lon="6.6476">
        <ele>238.8</ele>
        <time>2022-10-05T14:09:15.000Z</time>
      </trkpt>
      <trkpt lat="43.56631" lon="6.64763">
        <ele>238.8</ele>
        <time>2022-10-05T14:09:25.000Z</time>
      </trkpt>
      <trkpt lat="43.56632" lon="6.64763">
        <ele>238.8</ele>
        <time>2022-10-05T14:09:26.000Z</time>
      </trkpt>
      <trkpt lat="43.5664" lon="6.64762">
        <ele>238.5</ele>
        <time>2022-10-05T14:09:39.000Z</time>
      </trkpt>
      <trkpt lat="43.56644" lon="6.64761">
        <ele>238.4</ele>
        <time>2022-10-05T14:09:45.000Z</time>
      </trkpt>
      <trkpt lat="43.56648" lon="6.64759">
        <ele>238</ele>
        <time>2022-10-05T14:09:52.000Z</time>
      </trkpt>
      <trkpt lat="43.56652" lon="6.64756">
        <ele>237.8</ele>
        <time>2022-10-05T14:09:56.000Z</time>
      </trkpt>
      <trkpt lat="43.56655" lon="6.64754">
        <ele>237.5</ele>
        <time>2022-10-05T14:10:00.000Z</time>
      </trkpt>
      <trkpt lat="43.56658" lon="6.64751">
        <ele>237.3</ele>
        <time>2022-10-05T14:10:04.000Z</time>
      </trkpt>
      <trkpt lat="43.56662" lon="6.64748">
        <ele>237.1</ele>
        <time>2022-10-05T14:10:08.000Z</time>
      </trkpt>
      <trkpt lat="43.56665" lon="6.64744">
        <ele>236.6</ele>
        <time>2022-10-05T14:10:13.000Z</time>
      </trkpt>
      <trkpt lat="43.56669" lon="6.6474">
        <ele>235.9</ele>
        <time>2022-10-05T14:10:18.000Z</time>
      </trkpt>
      <trkpt lat="43.56672" lon="6.64738">
        <ele>235.4</ele>
        <time>2022-10-05T14:10:22.000Z</time>
      </trkpt>
      <trkpt lat="43.56675" lon="6.64734">
        <ele>234.8</ele>
        <time>2022-10-05T14:10:27.000Z</time>
      </trkpt>
      <trkpt lat="43.56676" lon="6.64733">
        <ele>234.7</ele>
        <time>2022-10-05T14:10:28.000Z</time>
      </trkpt>
      <trkpt lat="43.56682" lon="6.64727">
        <ele>234</ele>
        <time>2022-10-05T14:10:36.000Z</time>
      </trkpt>
      <trkpt lat="43.56685" lon="6.64724">
        <ele>233.4</ele>
        <time>2022-10-05T14:10:40.000Z</time>
      </trkpt>
      <trkpt lat="43.56688" lon="6.64722">
        <ele>233.1</ele>
        <time>2022-10-05T14:10:43.000Z</time>
      </trkpt>
      <trkpt lat="43.56692" lon="6.64719">
        <ele>232.7</ele>
        <time>2022-10-05T14:10:46.000Z</time>
      </trkpt>
      <trkpt lat="43.56695" lon="6.64718">
        <ele>232.2</ele>
        <time>2022-10-05T14:10:50.000Z</time>
      </trkpt>
      <trkpt lat="43.56699" lon="6.64716">
        <ele>231.8</ele>
        <time>2022-10-05T14:10:54.000Z</time>
      </trkpt>
      <trkpt lat="43.56704" lon="6.64715">
        <ele>231.2</ele>
        <time>2022-10-05T14:10:59.000Z</time>
      </trkpt>
      <trkpt lat="43.56708" lon="6.64715">
        <ele>230.5</ele>
        <time>2022-10-05T14:11:03.000Z</time>
      </trkpt>
      <trkpt lat="43.56712" lon="6.64713">
        <ele>229.9</ele>
        <time>2022-10-05T14:11:07.000Z</time>
      </trkpt>
      <trkpt lat="43.56716" lon="6.64712">
        <ele>228.9</ele>
        <time>2022-10-05T14:11:13.000Z</time>
      </trkpt>
      <trkpt lat="43.56719" lon="6.64711">
        <ele>227.9</ele>
        <time>2022-10-05T14:11:18.000Z</time>
      </trkpt>
      <trkpt lat="43.56724" lon="6.6471">
        <ele>227.1</ele>
        <time>2022-10-05T14:11:22.000Z</time>
      </trkpt>
      <trkpt lat="43.56728" lon="6.6471">
        <ele>226.4</ele>
        <time>2022-10-05T14:11:27.000Z</time>
      </trkpt>
      <trkpt lat="43.56731" lon="6.64711">
        <ele>225.7</ele>
        <time>2022-10-05T14:11:31.000Z</time>
      </trkpt>
      <trkpt lat="43.56732" lon="6.64711">
        <ele>225.5</ele>
        <time>2022-10-05T14:11:32.000Z</time>
      </trkpt>
      <trkpt lat="43.5674" lon="6.6471">
        <ele>223.8</ele>
        <time>2022-10-05T14:11:43.000Z</time>
      </trkpt>
      <trkpt lat="43.56744" lon="6.6471">
        <ele>223.1</ele>
        <time>2022-10-05T14:11:48.000Z</time>
      </trkpt>
      <trkpt lat="43.56747" lon="6.64709">
        <ele>222.5</ele>
        <time>2022-10-05T14:11:52.000Z</time>
      </trkpt>
      <trkpt lat="43.56751" lon="6.64711">
        <ele>221.9</ele>
        <time>2022-10-05T14:11:57.000Z</time>
      </trkpt>
      <trkpt lat="43.56756" lon="6.64713">
        <ele>221.3</ele>
        <time>2022-10-05T14:12:03.000Z</time>
      </trkpt>
      <trkpt lat="43.56759" lon="6.64715">
        <ele>220.3</ele>
        <time>2022-10-05T14:12:09.000Z</time>
      </trkpt>
      <trkpt lat="43.56763" lon="6.64718">
        <ele>219.6</ele>
        <time>2022-10-05T14:12:14.000Z</time>
      </trkpt>
      <trkpt lat="43.56767" lon="6.6472">
        <ele>218.9</ele>
        <time>2022-10-05T14:12:19.000Z</time>
      </trkpt>
      <trkpt lat="43.56771" lon="6.64721">
        <ele>218.1</ele>
        <time>2022-10-05T14:12:24.000Z</time>
      </trkpt>
      <trkpt lat="43.56775" lon="6.64722">
        <ele>217.4</ele>
        <time>2022-10-05T14:12:29.000Z</time>
      </trkpt>
      <trkpt lat="43.56779" lon="6.64723">
        <ele>216.7</ele>
        <time>2022-10-05T14:12:34.000Z</time>
      </trkpt>
      <trkpt lat="43.5678" lon="6.64723">
        <ele>216.5</ele>
        <time>2022-10-05T14:12:35.000Z</time>
      </trkpt>
      <trkpt lat="43.56787" lon="6.64727">
        <ele>214.9</ele>
        <time>2022-10-05T14:12:45.000Z</time>
      </trkpt>
      <trkpt lat="43.5679" lon="6.64731">
        <ele>214.2</ele>
        <time>2022-10-05T14:12:50.000Z</time>
      </trkpt>
      <trkpt lat="43.56793" lon="6.64732">
        <ele>213.8</ele>
        <time>2022-10-05T14:12:54.000Z</time>
      </trkpt>
      <trkpt lat="43.56797" lon="6.64734">
        <ele>213.1</ele>
        <time>2022-10-05T14:12:59.000Z</time>
      </trkpt>
      <trkpt lat="43.56801" lon="6.64737">
        <ele>212.4</ele>
        <time>2022-10-05T14:13:04.000Z</time>
      </trkpt>
      <trkpt lat="43.56805" lon="6.64739">
        <ele>211.9</ele>
        <time>2022-10-05T14:13:08.000Z</time>
      </trkpt>
      <trkpt lat="43.56808" lon="6.6474">
        <ele>211.5</ele>
        <time>2022-10-05T14:13:11.000Z</time>
      </trkpt>
      <trkpt lat="43.56812" lon="6.6474">
        <ele>211.1</ele>
        <time>2022-10-05T14:13:14.000Z</time>
      </trkpt>
      <trkpt lat="43.56816" lon="6.64742">
        <ele>210.8</ele>
        <time>2022-10-05T14:13:17.000Z</time>
      </trkpt>
      <trkpt lat="43.56819" lon="6.64745">
        <ele>210.3</ele>
        <time>2022-10-05T14:13:21.000Z</time>
      </trkpt>
      <trkpt lat="43.5682" lon="6.6475">
        <ele>209.8</ele>
        <time>2022-10-05T14:13:26.000Z</time>
      </trkpt>
      <trkpt lat="43.56823" lon="6.64755">
        <ele>209.5</ele>
        <time>2022-10-05T14:13:30.000Z</time>
      </trkpt>
      <trkpt lat="43.56825" lon="6.64759">
        <ele>209.2</ele>
        <time>2022-10-05T14:13:34.000Z</time>
      </trkpt>
      <trkpt lat="43.56828" lon="6.64763">
        <ele>208.9</ele>
        <time>2022-10-05T14:13:38.000Z</time>
      </trkpt>
      <trkpt lat="43.56828" lon="6.64764">
        <ele>208.8</ele>
        <time>2022-10-05T14:13:39.000Z</time>
      </trkpt>
      <trkpt lat="43.56833" lon="6.64771">
        <ele>208.5</ele>
        <time>2022-10-05T14:13:46.000Z</time>
      </trkpt>
      <trkpt lat="43.56837" lon="6.64771">
        <ele>208.3</ele>
        <time>2022-10-05T14:13:51.000Z</time>
      </trkpt>
      <trkpt lat="43.5684" lon="6.64768">
        <ele>207.7</ele>
        <time>2022-10-05T14:14:00.000Z</time>
      </trkpt>
      <trkpt lat="43.56843" lon="6.64763">
        <ele>207.3</ele>
        <time>2022-10-05T14:14:54.000Z</time>
      </trkpt>
      <trkpt lat="43.56843" lon="6.64763">
        <ele>207.3</ele>
        <time>2022-10-05T14:14:55.000Z</time>
      </trkpt>
      <trkpt lat="43.56844" lon="6.64752">
        <ele>207.4</ele>
        <time>2022-10-05T14:15:54.000Z</time>
      </trkpt>
      <trkpt lat="43.56844" lon="6.64746">
        <ele>207.4</ele>
        <time>2022-10-05T14:15:59.000Z</time>
      </trkpt>
      <trkpt lat="43.56845" lon="6.64744">
        <ele>207.4</ele>
        <time>2022-10-05T14:16:00.000Z</time>
      </trkpt>
      <trkpt lat="43.56845" lon="6.64734">
        <ele>207.3</ele>
        <time>2022-10-05T14:16:07.000Z</time>
      </trkpt>
      <trkpt lat="43.56845" lon="6.64729">
        <ele>207.2</ele>
        <time>2022-10-05T14:16:11.000Z</time>
      </trkpt>
      <trkpt lat="43.56846" lon="6.64723">
        <ele>207.1</ele>
        <time>2022-10-05T14:16:15.000Z</time>
      </trkpt>
      <trkpt lat="43.56845" lon="6.64718">
        <ele>207.1</ele>
        <time>2022-10-05T14:16:19.000Z</time>
      </trkpt>
      <trkpt lat="43.56845" lon="6.64712">
        <ele>207.1</ele>
        <time>2022-10-05T14:16:23.000Z</time>
      </trkpt>
      <trkpt lat="43.56846" lon="6.64708">
        <ele>207.1</ele>
        <time>2022-10-05T14:16:26.000Z</time>
      </trkpt>
      <trkpt lat="43.56847" lon="6.64703">
        <ele>207.2</ele>
        <time>2022-10-05T14:16:29.000Z</time>
      </trkpt>
      <trkpt lat="43.56847" lon="6.64697">
        <ele>207.5</ele>
        <time>2022-10-05T14:16:33.000Z</time>
      </trkpt>
      <trkpt lat="43.56849" lon="6.64692">
        <ele>207.7</ele>
        <time>2022-10-05T14:16:36.000Z</time>
      </trkpt>
      <trkpt lat="43.5685" lon="6.64687">
        <ele>207.9</ele>
        <time>2022-10-05T14:16:39.000Z</time>
      </trkpt>
      <trkpt lat="43.5685" lon="6.64682">
        <ele>208.2</ele>
        <time>2022-10-05T14:16:43.000Z</time>
      </trkpt>
      <trkpt lat="43.56851" lon="6.64676">
        <ele>208.7</ele>
        <time>2022-10-05T14:16:49.000Z</time>
      </trkpt>
      <trkpt lat="43.56852" lon="6.64671">
        <ele>209.1</ele>
        <time>2022-10-05T14:16:53.000Z</time>
      </trkpt>
      <trkpt lat="43.56854" lon="6.64667">
        <ele>209.4</ele>
        <time>2022-10-05T14:16:56.000Z</time>
      </trkpt>
      <trkpt lat="43.56855" lon="6.64663">
        <ele>209.6</ele>
        <time>2022-10-05T14:16:59.000Z</time>
      </trkpt>
      <trkpt lat="43.56857" lon="6.64658">
        <ele>209.7</ele>
        <time>2022-10-05T14:17:02.000Z</time>
      </trkpt>
      <trkpt lat="43.56858" lon="6.64657">
        <ele>209.8</ele>
        <time>2022-10-05T14:17:03.000Z</time>
      </trkpt>
      <trkpt lat="43.56861" lon="6.6465">
        <ele>210</ele>
        <time>2022-10-05T14:17:08.000Z</time>
      </trkpt>
      <trkpt lat="43.56862" lon="6.64646">
        <ele>210.1</ele>
        <time>2022-10-05T14:17:11.000Z</time>
      </trkpt>
      <trkpt lat="43.56864" lon="6.64642">
        <ele>210.2</ele>
        <time>2022-10-05T14:17:14.000Z</time>
      </trkpt>
      <trkpt lat="43.56866" lon="6.64636">
        <ele>210.6</ele>
        <time>2022-10-05T14:17:18.000Z</time>
      </trkpt>
      <trkpt lat="43.56867" lon="6.64632">
        <ele>210.9</ele>
        <time>2022-10-05T14:17:21.000Z</time>
      </trkpt>
      <trkpt lat="43.56868" lon="6.64627">
        <ele>211.2</ele>
        <time>2022-10-05T14:17:24.000Z</time>
      </trkpt>
      <trkpt lat="43.56869" lon="6.64621">
        <ele>211.5</ele>
        <time>2022-10-05T14:17:28.000Z</time>
      </trkpt>
      <trkpt lat="43.56869" lon="6.64615">
        <ele>211.7</ele>
        <time>2022-10-05T14:17:32.000Z</time>
      </trkpt>
      <trkpt lat="43.5687" lon="6.6461">
        <ele>211.8</ele>
        <time>2022-10-05T14:17:35.000Z</time>
      </trkpt>
      <trkpt lat="43.5687" lon="6.64604">
        <ele>211.9</ele>
        <time>2022-10-05T14:17:39.000Z</time>
      </trkpt>
      <trkpt lat="43.5687" lon="6.646">
        <ele>212</ele>
        <time>2022-10-05T14:17:42.000Z</time>
      </trkpt>
      <trkpt lat="43.5687" lon="6.64593">
        <ele>212.2</ele>
        <time>2022-10-05T14:17:46.000Z</time>
      </trkpt>
      <trkpt lat="43.56871" lon="6.64589">
        <ele>212.4</ele>
        <time>2022-10-05T14:17:49.000Z</time>
      </trkpt>
      <trkpt lat="43.56871" lon="6.64584">
        <ele>212.6</ele>
        <time>2022-10-05T14:17:52.000Z</time>
      </trkpt>
      <trkpt lat="43.56873" lon="6.64578">
        <ele>212.8</ele>
        <time>2022-10-05T14:17:56.000Z</time>
      </trkpt>
      <trkpt lat="43.56875" lon="6.64575">
        <ele>213</ele>
        <time>2022-10-05T14:17:59.000Z</time>
      </trkpt>
      <trkpt lat="43.56877" lon="6.6457">
        <ele>213.2</ele>
        <time>2022-10-05T14:18:03.000Z</time>
      </trkpt>
      <trkpt lat="43.56878" lon="6.64569">
        <ele>213.3</ele>
        <time>2022-10-05T14:18:04.000Z</time>
      </trkpt>
      <trkpt lat="43.56883" lon="6.6456">
        <ele>213.6</ele>
        <time>2022-10-05T14:18:11.000Z</time>
      </trkpt>
      <trkpt lat="43.56884" lon="6.64555">
        <ele>213.8</ele>
        <time>2022-10-05T14:18:15.000Z</time>
      </trkpt>
      <trkpt lat="43.56885" lon="6.6455">
        <ele>214</ele>
        <time>2022-10-05T14:18:19.000Z</time>
      </trkpt>
      <trkpt lat="43.56883" lon="6.64545">
        <ele>214.2</ele>
        <time>2022-10-05T14:18:23.000Z</time>
      </trkpt>
      <trkpt lat="43.56881" lon="6.64541">
        <ele>214.3</ele>
        <time>2022-10-05T14:18:27.000Z</time>
      </trkpt>
      <trkpt lat="43.56878" lon="6.64536">
        <ele>214.4</ele>
        <time>2022-10-05T14:18:31.000Z</time>
      </trkpt>
      <trkpt lat="43.56876" lon="6.64532">
        <ele>214.7</ele>
        <time>2022-10-05T14:18:35.000Z</time>
      </trkpt>
      <trkpt lat="43.56874" lon="6.64527">
        <ele>214.9</ele>
        <time>2022-10-05T14:18:38.000Z</time>
      </trkpt>
      <trkpt lat="43.56873" lon="6.64523">
        <ele>215</ele>
        <time>2022-10-05T14:18:41.000Z</time>
      </trkpt>
      <trkpt lat="43.56872" lon="6.64519">
        <ele>215.3</ele>
        <time>2022-10-05T14:18:44.000Z</time>
      </trkpt>
      <trkpt lat="43.56872" lon="6.64514">
        <ele>215.5</ele>
        <time>2022-10-05T14:18:47.000Z</time>
      </trkpt>
      <trkpt lat="43.56871" lon="6.64508">
        <ele>215.8</ele>
        <time>2022-10-05T14:18:51.000Z</time>
      </trkpt>
      <trkpt lat="43.56871" lon="6.64503">
        <ele>216</ele>
        <time>2022-10-05T14:18:54.000Z</time>
      </trkpt>
      <trkpt lat="43.56871" lon="6.64498">
        <ele>216.2</ele>
        <time>2022-10-05T14:18:57.000Z</time>
      </trkpt>
      <trkpt lat="43.56871" lon="6.64493">
        <ele>216.4</ele>
        <time>2022-10-05T14:19:00.000Z</time>
      </trkpt>
      <trkpt lat="43.56869" lon="6.64488">
        <ele>216.6</ele>
        <time>2022-10-05T14:19:03.000Z</time>
      </trkpt>
      <trkpt lat="43.56868" lon="6.64482">
        <ele>216.9</ele>
        <time>2022-10-05T14:19:07.000Z</time>
      </trkpt>
      <trkpt lat="43.56868" lon="6.64481">
        <ele>217</ele>
        <time>2022-10-05T14:19:08.000Z</time>
      </trkpt>
      <trkpt lat="43.56866" lon="6.64472">
        <ele>217.2</ele>
        <time>2022-10-05T14:19:14.000Z</time>
      </trkpt>
      <trkpt lat="43.56866" lon="6.64466">
        <ele>217.4</ele>
        <time>2022-10-05T14:19:18.000Z</time>
      </trkpt>
      <trkpt lat="43.56866" lon="6.64459">
        <ele>217.5</ele>
        <time>2022-10-05T14:19:22.000Z</time>
      </trkpt>
      <trkpt lat="43.56867" lon="6.64455">
        <ele>217.6</ele>
        <time>2022-10-05T14:19:25.000Z</time>
      </trkpt>
      <trkpt lat="43.56869" lon="6.6445">
        <ele>217.6</ele>
        <time>2022-10-05T14:19:28.000Z</time>
      </trkpt>
      <trkpt lat="43.5687" lon="6.64446">
        <ele>217.7</ele>
        <time>2022-10-05T14:19:31.000Z</time>
      </trkpt>
      <trkpt lat="43.56872" lon="6.64442">
        <ele>217.7</ele>
        <time>2022-10-05T14:19:34.000Z</time>
      </trkpt>
      <trkpt lat="43.56874" lon="6.64438">
        <ele>217.8</ele>
        <time>2022-10-05T14:19:37.000Z</time>
      </trkpt>
      <trkpt lat="43.56876" lon="6.64434">
        <ele>218</ele>
        <time>2022-10-05T14:19:40.000Z</time>
      </trkpt>
      <trkpt lat="43.56878" lon="6.64429">
        <ele>218.2</ele>
        <time>2022-10-05T14:19:43.000Z</time>
      </trkpt>
      <trkpt lat="43.5688" lon="6.64425">
        <ele>218.3</ele>
        <time>2022-10-05T14:19:46.000Z</time>
      </trkpt>
      <trkpt lat="43.56882" lon="6.64421">
        <ele>218.4</ele>
        <time>2022-10-05T14:19:49.000Z</time>
      </trkpt>
      <trkpt lat="43.56883" lon="6.64417">
        <ele>218.5</ele>
        <time>2022-10-05T14:19:52.000Z</time>
      </trkpt>
      <trkpt lat="43.56885" lon="6.64412">
        <ele>218.6</ele>
        <time>2022-10-05T14:19:55.000Z</time>
      </trkpt>
      <trkpt lat="43.56887" lon="6.64408">
        <ele>218.8</ele>
        <time>2022-10-05T14:19:58.000Z</time>
      </trkpt>
      <trkpt lat="43.56889" lon="6.64403">
        <ele>218.8</ele>
        <time>2022-10-05T14:20:01.000Z</time>
      </trkpt>
      <trkpt lat="43.56891" lon="6.644">
        <ele>218.9</ele>
        <time>2022-10-05T14:20:04.000Z</time>
      </trkpt>
      <trkpt lat="43.56894" lon="6.64397">
        <ele>219</ele>
        <time>2022-10-05T14:20:07.000Z</time>
      </trkpt>
      <trkpt lat="43.56898" lon="6.64394">
        <ele>219.2</ele>
        <time>2022-10-05T14:20:11.000Z</time>
      </trkpt>
      <trkpt lat="43.56899" lon="6.64393">
        <ele>219.2</ele>
        <time>2022-10-05T14:20:12.000Z</time>
      </trkpt>
      <trkpt lat="43.56905" lon="6.64387">
        <ele>219.4</ele>
        <time>2022-10-05T14:20:18.000Z</time>
      </trkpt>
      <trkpt lat="43.56908" lon="6.64385">
        <ele>219.5</ele>
        <time>2022-10-05T14:20:21.000Z</time>
      </trkpt>
      <trkpt lat="43.5691" lon="6.64382">
        <ele>219.5</ele>
        <time>2022-10-05T14:20:24.000Z</time>
      </trkpt>
      <trkpt lat="43.56914" lon="6.64378">
        <ele>219.6</ele>
        <time>2022-10-05T14:20:28.000Z</time>
      </trkpt>
      <trkpt lat="43.56917" lon="6.64375">
        <ele>219.7</ele>
        <time>2022-10-05T14:20:32.000Z</time>
      </trkpt>
      <trkpt lat="43.5692" lon="6.64371">
        <ele>219.8</ele>
        <time>2022-10-05T14:20:36.000Z</time>
      </trkpt>
      <trkpt lat="43.56924" lon="6.64369">
        <ele>219.9</ele>
        <time>2022-10-05T14:20:39.000Z</time>
      </trkpt>
      <trkpt lat="43.56927" lon="6.64366">
        <ele>219.9</ele>
        <time>2022-10-05T14:20:42.000Z</time>
      </trkpt>
      <trkpt lat="43.5693" lon="6.64364">
        <ele>219.9</ele>
        <time>2022-10-05T14:20:45.000Z</time>
      </trkpt>
      <trkpt lat="43.56934" lon="6.64362">
        <ele>220</ele>
        <time>2022-10-05T14:20:48.000Z</time>
      </trkpt>
      <trkpt lat="43.56937" lon="6.6436">
        <ele>220</ele>
        <time>2022-10-05T14:20:51.000Z</time>
      </trkpt>
      <trkpt lat="43.56941" lon="6.64359">
        <ele>220.1</ele>
        <time>2022-10-05T14:20:54.000Z</time>
      </trkpt>
      <trkpt lat="43.56945" lon="6.6436">
        <ele>220.1</ele>
        <time>2022-10-05T14:20:57.000Z</time>
      </trkpt>
      <trkpt lat="43.56949" lon="6.64361">
        <ele>220.2</ele>
        <time>2022-10-05T14:21:00.000Z</time>
      </trkpt>
      <trkpt lat="43.56952" lon="6.64363">
        <ele>220.3</ele>
        <time>2022-10-05T14:21:03.000Z</time>
      </trkpt>
      <trkpt lat="43.56956" lon="6.64365">
        <ele>220.4</ele>
        <time>2022-10-05T14:21:06.000Z</time>
      </trkpt>
      <trkpt lat="43.56959" lon="6.64367">
        <ele>220.4</ele>
        <time>2022-10-05T14:21:09.000Z</time>
      </trkpt>
      <trkpt lat="43.56961" lon="6.64371">
        <ele>220.5</ele>
        <time>2022-10-05T14:21:12.000Z</time>
      </trkpt>
      <trkpt lat="43.56964" lon="6.64374">
        <ele>220.5</ele>
        <time>2022-10-05T14:21:15.000Z</time>
      </trkpt>
      <trkpt lat="43.56965" lon="6.64375">
        <ele>220.5</ele>
        <time>2022-10-05T14:21:16.000Z</time>
      </trkpt>
      <trkpt lat="43.5697" lon="6.64381">
        <ele>220.6</ele>
        <time>2022-10-05T14:21:22.000Z</time>
      </trkpt>
      <trkpt lat="43.56974" lon="6.64384">
        <ele>220.7</ele>
        <time>2022-10-05T14:21:26.000Z</time>
      </trkpt>
      <trkpt lat="43.56977" lon="6.64386">
        <ele>220.5</ele>
        <time>2022-10-05T14:21:30.000Z</time>
      </trkpt>
      <trkpt lat="43.56981" lon="6.64383">
        <ele>220.4</ele>
        <time>2022-10-05T14:21:35.000Z</time>
      </trkpt>
      <trkpt lat="43.56982" lon="6.64378">
        <ele>220.2</ele>
        <time>2022-10-05T14:21:39.000Z</time>
      </trkpt>
      <trkpt lat="43.56983" lon="6.64373">
        <ele>220.2</ele>
        <time>2022-10-05T14:21:43.000Z</time>
      </trkpt>
      <trkpt lat="43.56984" lon="6.64367">
        <ele>220.2</ele>
        <time>2022-10-05T14:21:47.000Z</time>
      </trkpt>
      <trkpt lat="43.56985" lon="6.64362">
        <ele>220.2</ele>
        <time>2022-10-05T14:21:51.000Z</time>
      </trkpt>
      <trkpt lat="43.56986" lon="6.64358">
        <ele>220.2</ele>
        <time>2022-10-05T14:21:54.000Z</time>
      </trkpt>
      <trkpt lat="43.56988" lon="6.64354">
        <ele>220.2</ele>
        <time>2022-10-05T14:21:57.000Z</time>
      </trkpt>
      <trkpt lat="43.56991" lon="6.64349">
        <ele>220.3</ele>
        <time>2022-10-05T14:22:01.000Z</time>
      </trkpt>
      <trkpt lat="43.56994" lon="6.64346">
        <ele>220.4</ele>
        <time>2022-10-05T14:22:04.000Z</time>
      </trkpt>
      <trkpt lat="43.56996" lon="6.64342">
        <ele>220.4</ele>
        <time>2022-10-05T14:22:06.000Z</time>
      </trkpt>
      <trkpt lat="43.57" lon="6.64338">
        <ele>220.5</ele>
        <time>2022-10-05T14:22:09.000Z</time>
      </trkpt>
      <trkpt lat="43.57002" lon="6.64335">
        <ele>220.5</ele>
        <time>2022-10-05T14:22:12.000Z</time>
      </trkpt>
      <trkpt lat="43.57005" lon="6.64331">
        <ele>220.6</ele>
        <time>2022-10-05T14:22:15.000Z</time>
      </trkpt>
      <trkpt lat="43.57008" lon="6.64327">
        <ele>220.6</ele>
        <time>2022-10-05T14:22:18.000Z</time>
      </trkpt>
      <trkpt lat="43.57008" lon="6.64326">
        <ele>220.6</ele>
        <time>2022-10-05T14:22:19.000Z</time>
      </trkpt>
      <trkpt lat="43.57013" lon="6.6432">
        <ele>220.6</ele>
        <time>2022-10-05T14:22:24.000Z</time>
      </trkpt>
      <trkpt lat="43.57016" lon="6.64317">
        <ele>220.6</ele>
        <time>2022-10-05T14:22:28.000Z</time>
      </trkpt>
      <trkpt lat="43.57019" lon="6.64313">
        <ele>220.7</ele>
        <time>2022-10-05T14:22:31.000Z</time>
      </trkpt>
      <trkpt lat="43.57022" lon="6.64311">
        <ele>220.7</ele>
        <time>2022-10-05T14:22:34.000Z</time>
      </trkpt>
      <trkpt lat="43.57025" lon="6.64309">
        <ele>220.7</ele>
        <time>2022-10-05T14:22:37.000Z</time>
      </trkpt>
      <trkpt lat="43.57028" lon="6.64307">
        <ele>220.7</ele>
        <time>2022-10-05T14:22:39.000Z</time>
      </trkpt>
      <trkpt lat="43.57031" lon="6.64306">
        <ele>220.7</ele>
        <time>2022-10-05T14:22:41.000Z</time>
      </trkpt>
      <trkpt lat="43.57035" lon="6.64303">
        <ele>220.7</ele>
        <time>2022-10-05T14:22:45.000Z</time>
      </trkpt>
      <trkpt lat="43.57039" lon="6.64301">
        <ele>220.7</ele>
        <time>2022-10-05T14:22:49.000Z</time>
      </trkpt>
      <trkpt lat="43.57042" lon="6.64298">
        <ele>221</ele>
        <time>2022-10-05T14:23:09.000Z</time>
      </trkpt>
      <trkpt lat="43.57046" lon="6.64294">
        <ele>221.2</ele>
        <time>2022-10-05T14:23:25.000Z</time>
      </trkpt>
      <trkpt lat="43.57046" lon="6.64294">
        <ele>221.2</ele>
        <time>2022-10-05T14:23:26.000Z</time>
      </trkpt>
      <trkpt lat="43.5705" lon="6.64293">
        <ele>220.8</ele>
        <time>2022-10-05T14:25:06.000Z</time>
      </trkpt>
      <trkpt lat="43.5705" lon="6.64293">
        <ele>220.8</ele>
        <time>2022-10-05T14:25:07.000Z</time>
      </trkpt>
      <trkpt lat="43.57058" lon="6.64289">
        <ele>220.9</ele>
        <time>2022-10-05T14:25:16.000Z</time>
      </trkpt>
      <trkpt lat="43.57062" lon="6.64288">
        <ele>220.7</ele>
        <time>2022-10-05T14:25:21.000Z</time>
      </trkpt>
      <trkpt lat="43.57065" lon="6.64287">
        <ele>220.6</ele>
        <time>2022-10-05T14:25:25.000Z</time>
      </trkpt>
      <trkpt lat="43.57069" lon="6.64286">
        <ele>220.4</ele>
        <time>2022-10-05T14:25:29.000Z</time>
      </trkpt>
      <trkpt lat="43.57073" lon="6.64285">
        <ele>220.1</ele>
        <time>2022-10-05T14:25:33.000Z</time>
      </trkpt>
      <trkpt lat="43.57077" lon="6.64283">
        <ele>219.8</ele>
        <time>2022-10-05T14:25:38.000Z</time>
      </trkpt>
      <trkpt lat="43.57081" lon="6.64282">
        <ele>219.6</ele>
        <time>2022-10-05T14:25:42.000Z</time>
      </trkpt>
      <trkpt lat="43.57084" lon="6.64278">
        <ele>219.3</ele>
        <time>2022-10-05T14:25:47.000Z</time>
      </trkpt>
      <trkpt lat="43.57085" lon="6.64272">
        <ele>219.1</ele>
        <time>2022-10-05T14:25:52.000Z</time>
      </trkpt>
      <trkpt lat="43.57083" lon="6.64269">
        <ele>219</ele>
        <time>2022-10-05T14:25:56.000Z</time>
      </trkpt>
      <trkpt lat="43.5708" lon="6.64264">
        <ele>219.2</ele>
        <time>2022-10-05T14:26:01.000Z</time>
      </trkpt>
      <trkpt lat="43.57077" lon="6.64261">
        <ele>219.4</ele>
        <time>2022-10-05T14:26:05.000Z</time>
      </trkpt>
      <trkpt lat="43.57074" lon="6.64258">
        <ele>219.7</ele>
        <time>2022-10-05T14:26:09.000Z</time>
      </trkpt>
      <trkpt lat="43.57073" lon="6.64257">
        <ele>219.7</ele>
        <time>2022-10-05T14:26:10.000Z</time>
      </trkpt>
      <trkpt lat="43.57067" lon="6.64254">
        <ele>220.3</ele>
        <time>2022-10-05T14:26:20.000Z</time>
      </trkpt>
      <trkpt lat="43.57063" lon="6.64251">
        <ele>220.5</ele>
        <time>2022-10-05T14:26:25.000Z</time>
      </trkpt>
      <trkpt lat="43.57059" lon="6.6425">
        <ele>220.7</ele>
        <time>2022-10-05T14:26:31.000Z</time>
      </trkpt>
      <trkpt lat="43.57055" lon="6.6425">
        <ele>220.8</ele>
        <time>2022-10-05T14:26:36.000Z</time>
      </trkpt>
      <trkpt lat="43.57051" lon="6.6425">
        <ele>220.9</ele>
        <time>2022-10-05T14:26:41.000Z</time>
      </trkpt>
      <trkpt lat="43.57047" lon="6.64252">
        <ele>221</ele>
        <time>2022-10-05T14:26:45.000Z</time>
      </trkpt>
      <trkpt lat="43.57043" lon="6.64253">
        <ele>221.1</ele>
        <time>2022-10-05T14:26:48.000Z</time>
      </trkpt>
      <trkpt lat="43.57039" lon="6.64254">
        <ele>221.1</ele>
        <time>2022-10-05T14:26:51.000Z</time>
      </trkpt>
      <trkpt lat="43.57035" lon="6.64254">
        <ele>221.2</ele>
        <time>2022-10-05T14:26:54.000Z</time>
      </trkpt>
      <trkpt lat="43.57032" lon="6.64254">
        <ele>221.2</ele>
        <time>2022-10-05T14:26:57.000Z</time>
      </trkpt>
      <trkpt lat="43.57028" lon="6.64255">
        <ele>221.2</ele>
        <time>2022-10-05T14:26:59.000Z</time>
      </trkpt>
      <trkpt lat="43.57024" lon="6.64256">
        <ele>221.2</ele>
        <time>2022-10-05T14:27:03.000Z</time>
      </trkpt>
      <trkpt lat="43.5702" lon="6.64257">
        <ele>221.2</ele>
        <time>2022-10-05T14:27:06.000Z</time>
      </trkpt>
      <trkpt lat="43.57016" lon="6.64257">
        <ele>221.1</ele>
        <time>2022-10-05T14:27:11.000Z</time>
      </trkpt>
      <trkpt lat="43.57014" lon="6.64257">
        <ele>221.2</ele>
        <time>2022-10-05T14:27:12.000Z</time>
      </trkpt>
      <trkpt lat="43.57008" lon="6.64257">
        <ele>221.3</ele>
        <time>2022-10-05T14:27:17.000Z</time>
      </trkpt>
      <trkpt lat="43.57003" lon="6.64258">
        <ele>221.4</ele>
        <time>2022-10-05T14:27:21.000Z</time>
      </trkpt>
      <trkpt lat="43.57" lon="6.64258">
        <ele>221.5</ele>
        <time>2022-10-05T14:27:24.000Z</time>
      </trkpt>
      <trkpt lat="43.56996" lon="6.64258">
        <ele>221.6</ele>
        <time>2022-10-05T14:27:27.000Z</time>
      </trkpt>
      <trkpt lat="43.56991" lon="6.64258">
        <ele>221.7</ele>
        <time>2022-10-05T14:27:30.000Z</time>
      </trkpt>
      <trkpt lat="43.56988" lon="6.64255">
        <ele>221.8</ele>
        <time>2022-10-05T14:27:33.000Z</time>
      </trkpt>
      <trkpt lat="43.56984" lon="6.64252">
        <ele>221.9</ele>
        <time>2022-10-05T14:27:36.000Z</time>
      </trkpt>
      <trkpt lat="43.56982" lon="6.64248">
        <ele>221.9</ele>
        <time>2022-10-05T14:27:39.000Z</time>
      </trkpt>
      <trkpt lat="43.5698" lon="6.64243">
        <ele>221.9</ele>
        <time>2022-10-05T14:27:42.000Z</time>
      </trkpt>
      <trkpt lat="43.56979" lon="6.64238">
        <ele>222</ele>
        <time>2022-10-05T14:27:45.000Z</time>
      </trkpt>
      <trkpt lat="43.56979" lon="6.64233">
        <ele>222</ele>
        <time>2022-10-05T14:27:48.000Z</time>
      </trkpt>
      <trkpt lat="43.56979" lon="6.64228">
        <ele>222</ele>
        <time>2022-10-05T14:27:51.000Z</time>
      </trkpt>
      <trkpt lat="43.56979" lon="6.64223">
        <ele>222</ele>
        <time>2022-10-05T14:27:54.000Z</time>
      </trkpt>
      <trkpt lat="43.56979" lon="6.64218">
        <ele>222.1</ele>
        <time>2022-10-05T14:27:57.000Z</time>
      </trkpt>
      <trkpt lat="43.5698" lon="6.64213">
        <ele>222.1</ele>
        <time>2022-10-05T14:28:00.000Z</time>
      </trkpt>
      <trkpt lat="43.56981" lon="6.64208">
        <ele>222.1</ele>
        <time>2022-10-05T14:28:03.000Z</time>
      </trkpt>
      <trkpt lat="43.56982" lon="6.64203">
        <ele>222.1</ele>
        <time>2022-10-05T14:28:06.000Z</time>
      </trkpt>
      <trkpt lat="43.56983" lon="6.64197">
        <ele>222</ele>
        <time>2022-10-05T14:28:10.000Z</time>
      </trkpt>
      <trkpt lat="43.56984" lon="6.64193">
        <ele>221.9</ele>
        <time>2022-10-05T14:28:13.000Z</time>
      </trkpt>
      <trkpt lat="43.56985" lon="6.64191">
        <ele>221.9</ele>
        <time>2022-10-05T14:28:14.000Z</time>
      </trkpt>
      <trkpt lat="43.56988" lon="6.64184">
        <ele>221.7</ele>
        <time>2022-10-05T14:28:19.000Z</time>
      </trkpt>
      <trkpt lat="43.5699" lon="6.6418">
        <ele>221.7</ele>
        <time>2022-10-05T14:28:22.000Z</time>
      </trkpt>
      <trkpt lat="43.56991" lon="6.64175">
        <ele>221.6</ele>
        <time>2022-10-05T14:28:25.000Z</time>
      </trkpt>
      <trkpt lat="43.56993" lon="6.64171">
        <ele>221.6</ele>
        <time>2022-10-05T14:28:28.000Z</time>
      </trkpt>
      <trkpt lat="43.56996" lon="6.64166">
        <ele>221.5</ele>
        <time>2022-10-05T14:28:31.000Z</time>
      </trkpt>
      <trkpt lat="43.56998" lon="6.64162">
        <ele>221.4</ele>
        <time>2022-10-05T14:28:34.000Z</time>
      </trkpt>
      <trkpt lat="43.57" lon="6.64157">
        <ele>221.2</ele>
        <time>2022-10-05T14:28:37.000Z</time>
      </trkpt>
      <trkpt lat="43.57002" lon="6.64153">
        <ele>221</ele>
        <time>2022-10-05T14:28:40.000Z</time>
      </trkpt>
      <trkpt lat="43.57004" lon="6.64148">
        <ele>220.9</ele>
        <time>2022-10-05T14:28:43.000Z</time>
      </trkpt>
      <trkpt lat="43.57006" lon="6.64144">
        <ele>220.7</ele>
        <time>2022-10-05T14:28:46.000Z</time>
      </trkpt>
      <trkpt lat="43.57007" lon="6.64139">
        <ele>220.7</ele>
        <time>2022-10-05T14:28:49.000Z</time>
      </trkpt>
      <trkpt lat="43.57009" lon="6.64135">
        <ele>220.6</ele>
        <time>2022-10-05T14:28:52.000Z</time>
      </trkpt>
      <trkpt lat="43.5701" lon="6.6413">
        <ele>220.5</ele>
        <time>2022-10-05T14:28:55.000Z</time>
      </trkpt>
      <trkpt lat="43.57011" lon="6.64124">
        <ele>220.5</ele>
        <time>2022-10-05T14:28:58.000Z</time>
      </trkpt>
      <trkpt lat="43.57012" lon="6.64119">
        <ele>220.4</ele>
        <time>2022-10-05T14:29:01.000Z</time>
      </trkpt>
      <trkpt lat="43.57013" lon="6.64114">
        <ele>220.4</ele>
        <time>2022-10-05T14:29:04.000Z</time>
      </trkpt>
      <trkpt lat="43.57014" lon="6.6411">
        <ele>220.3</ele>
        <time>2022-10-05T14:29:07.000Z</time>
      </trkpt>
      <trkpt lat="43.57015" lon="6.64105">
        <ele>220.3</ele>
        <time>2022-10-05T14:29:10.000Z</time>
      </trkpt>
      <trkpt lat="43.57017" lon="6.64101">
        <ele>220.2</ele>
        <time>2022-10-05T14:29:13.000Z</time>
      </trkpt>
      <trkpt lat="43.57018" lon="6.64097">
        <ele>220.2</ele>
        <time>2022-10-05T14:29:16.000Z</time>
      </trkpt>
      <trkpt lat="43.57019" lon="6.64095">
        <ele>220.1</ele>
        <time>2022-10-05T14:29:17.000Z</time>
      </trkpt>
      <trkpt lat="43.57024" lon="6.64088">
        <ele>219.9</ele>
        <time>2022-10-05T14:29:22.000Z</time>
      </trkpt>
      <trkpt lat="43.57028" lon="6.64085">
        <ele>219.8</ele>
        <time>2022-10-05T14:29:25.000Z</time>
      </trkpt>
      <trkpt lat="43.57031" lon="6.64082">
        <ele>219.7</ele>
        <time>2022-10-05T14:29:28.000Z</time>
      </trkpt>
      <trkpt lat="43.57034" lon="6.64079">
        <ele>219.5</ele>
        <time>2022-10-05T14:29:31.000Z</time>
      </trkpt>
      <trkpt lat="43.57038" lon="6.64077">
        <ele>219.5</ele>
        <time>2022-10-05T14:29:34.000Z</time>
      </trkpt>
      <trkpt lat="43.57041" lon="6.64075">
        <ele>219.4</ele>
        <time>2022-10-05T14:29:37.000Z</time>
      </trkpt>
      <trkpt lat="43.57045" lon="6.64073">
        <ele>219.2</ele>
        <time>2022-10-05T14:29:40.000Z</time>
      </trkpt>
      <trkpt lat="43.57049" lon="6.64072">
        <ele>219</ele>
        <time>2022-10-05T14:29:43.000Z</time>
      </trkpt>
      <trkpt lat="43.57053" lon="6.64073">
        <ele>218.7</ele>
        <time>2022-10-05T14:29:46.000Z</time>
      </trkpt>
      <trkpt lat="43.57056" lon="6.64074">
        <ele>218.4</ele>
        <time>2022-10-05T14:29:49.000Z</time>
      </trkpt>
      <trkpt lat="43.5706" lon="6.64075">
        <ele>218.1</ele>
        <time>2022-10-05T14:29:52.000Z</time>
      </trkpt>
      <trkpt lat="43.57063" lon="6.64077">
        <ele>217.9</ele>
        <time>2022-10-05T14:29:55.000Z</time>
      </trkpt>
      <trkpt lat="43.57066" lon="6.64079">
        <ele>217.8</ele>
        <time>2022-10-05T14:29:58.000Z</time>
      </trkpt>
      <trkpt lat="43.5707" lon="6.6408">
        <ele>217.6</ele>
        <time>2022-10-05T14:30:01.000Z</time>
      </trkpt>
      <trkpt lat="43.57074" lon="6.64081">
        <ele>217.4</ele>
        <time>2022-10-05T14:30:05.000Z</time>
      </trkpt>
      <trkpt lat="43.57078" lon="6.64081">
        <ele>217.1</ele>
        <time>2022-10-05T14:30:09.000Z</time>
      </trkpt>
      <trkpt lat="43.57082" lon="6.6408">
        <ele>216.8</ele>
        <time>2022-10-05T14:30:13.000Z</time>
      </trkpt>
      <trkpt lat="43.57084" lon="6.64077">
        <ele>216.6</ele>
        <time>2022-10-05T14:30:16.000Z</time>
      </trkpt>
      <trkpt lat="43.57086" lon="6.64071">
        <ele>216.3</ele>
        <time>2022-10-05T14:30:20.000Z</time>
      </trkpt>
      <trkpt lat="43.57086" lon="6.6407">
        <ele>216.3</ele>
        <time>2022-10-05T14:30:21.000Z</time>
      </trkpt>
      <trkpt lat="43.57086" lon="6.6406">
        <ele>216</ele>
        <time>2022-10-05T14:30:28.000Z</time>
      </trkpt>
      <trkpt lat="43.57086" lon="6.64054">
        <ele>215.8</ele>
        <time>2022-10-05T14:30:32.000Z</time>
      </trkpt>
      <trkpt lat="43.57086" lon="6.64049">
        <ele>215.6</ele>
        <time>2022-10-05T14:30:35.000Z</time>
      </trkpt>
      <trkpt lat="43.57087" lon="6.64044">
        <ele>215.4</ele>
        <time>2022-10-05T14:30:38.000Z</time>
      </trkpt>
      <trkpt lat="43.57089" lon="6.6404">
        <ele>215.1</ele>
        <time>2022-10-05T14:30:41.000Z</time>
      </trkpt>
      <trkpt lat="43.5709" lon="6.64035">
        <ele>214.9</ele>
        <time>2022-10-05T14:30:44.000Z</time>
      </trkpt>
      <trkpt lat="43.57092" lon="6.64031">
        <ele>214.7</ele>
        <time>2022-10-05T14:30:47.000Z</time>
      </trkpt>
      <trkpt lat="43.57094" lon="6.64027">
        <ele>214.4</ele>
        <time>2022-10-05T14:30:50.000Z</time>
      </trkpt>
      <trkpt lat="43.57096" lon="6.64023">
        <ele>214.2</ele>
        <time>2022-10-05T14:30:53.000Z</time>
      </trkpt>
      <trkpt lat="43.57099" lon="6.64019">
        <ele>214</ele>
        <time>2022-10-05T14:30:56.000Z</time>
      </trkpt>
      <trkpt lat="43.57102" lon="6.64016">
        <ele>213.8</ele>
        <time>2022-10-05T14:30:59.000Z</time>
      </trkpt>
      <trkpt lat="43.57105" lon="6.64013">
        <ele>213.6</ele>
        <time>2022-10-05T14:31:02.000Z</time>
      </trkpt>
      <trkpt lat="43.57109" lon="6.6401">
        <ele>213.3</ele>
        <time>2022-10-05T14:31:06.000Z</time>
      </trkpt>
      <trkpt lat="43.57112" lon="6.64008">
        <ele>213.1</ele>
        <time>2022-10-05T14:31:09.000Z</time>
      </trkpt>
      <trkpt lat="43.57116" lon="6.64006">
        <ele>212.9</ele>
        <time>2022-10-05T14:31:12.000Z</time>
      </trkpt>
      <trkpt lat="43.57119" lon="6.64004">
        <ele>212.8</ele>
        <time>2022-10-05T14:31:15.000Z</time>
      </trkpt>
      <trkpt lat="43.57123" lon="6.64003">
        <ele>212.6</ele>
        <time>2022-10-05T14:31:18.000Z</time>
      </trkpt>
      <trkpt lat="43.57127" lon="6.64002">
        <ele>212.4</ele>
        <time>2022-10-05T14:31:21.000Z</time>
      </trkpt>
      <trkpt lat="43.57128" lon="6.64002">
        <ele>212.3</ele>
        <time>2022-10-05T14:31:22.000Z</time>
      </trkpt>
      <trkpt lat="43.57134" lon="6.64003">
        <ele>212.1</ele>
        <time>2022-10-05T14:31:27.000Z</time>
      </trkpt>
      <trkpt lat="43.57138" lon="6.64005">
        <ele>212</ele>
        <time>2022-10-05T14:31:30.000Z</time>
      </trkpt>
      <trkpt lat="43.57141" lon="6.64008">
        <ele>211.7</ele>
        <time>2022-10-05T14:31:33.000Z</time>
      </trkpt>
      <trkpt lat="43.57145" lon="6.64012">
        <ele>211.4</ele>
        <time>2022-10-05T14:31:37.000Z</time>
      </trkpt>
      <trkpt lat="43.57147" lon="6.64015">
        <ele>211.2</ele>
        <time>2022-10-05T14:31:40.000Z</time>
      </trkpt>
      <trkpt lat="43.5715" lon="6.64018">
        <ele>210.9</ele>
        <time>2022-10-05T14:31:43.000Z</time>
      </trkpt>
      <trkpt lat="43.57153" lon="6.64021">
        <ele>210.7</ele>
        <time>2022-10-05T14:31:46.000Z</time>
      </trkpt>
      <trkpt lat="43.57156" lon="6.64023">
        <ele>210.6</ele>
        <time>2022-10-05T14:31:49.000Z</time>
      </trkpt>
      <trkpt lat="43.57159" lon="6.64025">
        <ele>210.4</ele>
        <time>2022-10-05T14:31:52.000Z</time>
      </trkpt>
      <trkpt lat="43.57162" lon="6.64028">
        <ele>210.3</ele>
        <time>2022-10-05T14:31:55.000Z</time>
      </trkpt>
      <trkpt lat="43.57166" lon="6.6403">
        <ele>210.2</ele>
        <time>2022-10-05T14:31:58.000Z</time>
      </trkpt>
      <trkpt lat="43.5717" lon="6.64032">
        <ele>210</ele>
        <time>2022-10-05T14:32:02.000Z</time>
      </trkpt>
      <trkpt lat="43.57174" lon="6.64034">
        <ele>209.7</ele>
        <time>2022-10-05T14:32:06.000Z</time>
      </trkpt>
      <trkpt lat="43.57177" lon="6.64036">
        <ele>209.5</ele>
        <time>2022-10-05T14:32:09.000Z</time>
      </trkpt>
      <trkpt lat="43.5718" lon="6.64039">
        <ele>209.3</ele>
        <time>2022-10-05T14:32:12.000Z</time>
      </trkpt>
      <trkpt lat="43.57184" lon="6.64041">
        <ele>209.2</ele>
        <time>2022-10-05T14:32:15.000Z</time>
      </trkpt>
      <trkpt lat="43.57187" lon="6.64043">
        <ele>209</ele>
        <time>2022-10-05T14:32:18.000Z</time>
      </trkpt>
      <trkpt lat="43.5719" lon="6.64046">
        <ele>208.9</ele>
        <time>2022-10-05T14:32:21.000Z</time>
      </trkpt>
      <trkpt lat="43.57193" lon="6.64049">
        <ele>208.7</ele>
        <time>2022-10-05T14:32:24.000Z</time>
      </trkpt>
      <trkpt lat="43.57194" lon="6.6405">
        <ele>208.6</ele>
        <time>2022-10-05T14:32:25.000Z</time>
      </trkpt>
      <trkpt lat="43.572" lon="6.64054">
        <ele>208.3</ele>
        <time>2022-10-05T14:32:30.000Z</time>
      </trkpt>
      <trkpt lat="43.57204" lon="6.64055">
        <ele>207.9</ele>
        <time>2022-10-05T14:32:34.000Z</time>
      </trkpt>
      <trkpt lat="43.57208" lon="6.64053">
        <ele>207.4</ele>
        <time>2022-10-05T14:32:39.000Z</time>
      </trkpt>
      <trkpt lat="43.57211" lon="6.6405">
        <ele>207.1</ele>
        <time>2022-10-05T14:32:43.000Z</time>
      </trkpt>
      <trkpt lat="43.57212" lon="6.64045">
        <ele>206.9</ele>
        <time>2022-10-05T14:32:47.000Z</time>
      </trkpt>
      <trkpt lat="43.57212" lon="6.6404">
        <ele>206.8</ele>
        <time>2022-10-05T14:32:51.000Z</time>
      </trkpt>
      <trkpt lat="43.57211" lon="6.64034">
        <ele>206.7</ele>
        <time>2022-10-05T14:32:55.000Z</time>
      </trkpt>
      <trkpt lat="43.57211" lon="6.64028">
        <ele>206.7</ele>
        <time>2022-10-05T14:32:59.000Z</time>
      </trkpt>
      <trkpt lat="43.57209" lon="6.64023">
        <ele>206.8</ele>
        <time>2022-10-05T14:33:03.000Z</time>
      </trkpt>
      <trkpt lat="43.57207" lon="6.64017">
        <ele>206.9</ele>
        <time>2022-10-05T14:33:07.000Z</time>
      </trkpt>
      <trkpt lat="43.57206" lon="6.64013">
        <ele>207</ele>
        <time>2022-10-05T14:33:10.000Z</time>
      </trkpt>
      <trkpt lat="43.57205" lon="6.64008">
        <ele>207.1</ele>
        <time>2022-10-05T14:33:13.000Z</time>
      </trkpt>
      <trkpt lat="43.57203" lon="6.64003">
        <ele>207.2</ele>
        <time>2022-10-05T14:33:16.000Z</time>
      </trkpt>
      <trkpt lat="43.57202" lon="6.63999">
        <ele>207.4</ele>
        <time>2022-10-05T14:33:19.000Z</time>
      </trkpt>
      <trkpt lat="43.57201" lon="6.63994">
        <ele>207.6</ele>
        <time>2022-10-05T14:33:22.000Z</time>
      </trkpt>
      <trkpt lat="43.57199" lon="6.63988">
        <ele>207.8</ele>
        <time>2022-10-05T14:33:25.000Z</time>
      </trkpt>
      <trkpt lat="43.57199" lon="6.63987">
        <ele>207.8</ele>
        <time>2022-10-05T14:33:26.000Z</time>
      </trkpt>
      <trkpt lat="43.57198" lon="6.63979">
        <ele>208.2</ele>
        <time>2022-10-05T14:33:31.000Z</time>
      </trkpt>
      <trkpt lat="43.57198" lon="6.63974">
        <ele>208.5</ele>
        <time>2022-10-05T14:33:34.000Z</time>
      </trkpt>
      <trkpt lat="43.57198" lon="6.63969">
        <ele>208.7</ele>
        <time>2022-10-05T14:33:37.000Z</time>
      </trkpt>
      <trkpt lat="43.57199" lon="6.63964">
        <ele>208.9</ele>
        <time>2022-10-05T14:33:40.000Z</time>
      </trkpt>
      <trkpt lat="43.572" lon="6.63959">
        <ele>209</ele>
        <time>2022-10-05T14:33:43.000Z</time>
      </trkpt>
      <trkpt lat="43.57202" lon="6.63955">
        <ele>209.2</ele>
        <time>2022-10-05T14:33:46.000Z</time>
      </trkpt>
      <trkpt lat="43.57204" lon="6.63951">
        <ele>209.3</ele>
        <time>2022-10-05T14:33:49.000Z</time>
      </trkpt>
      <trkpt lat="43.57207" lon="6.63946">
        <ele>209.4</ele>
        <time>2022-10-05T14:33:53.000Z</time>
      </trkpt>
      <trkpt lat="43.5721" lon="6.63943">
        <ele>209.7</ele>
        <time>2022-10-05T14:33:57.000Z</time>
      </trkpt>
      <trkpt lat="43.57213" lon="6.63939">
        <ele>209.9</ele>
        <time>2022-10-05T14:34:01.000Z</time>
      </trkpt>
      <trkpt lat="43.57217" lon="6.63935">
        <ele>210.1</ele>
        <time>2022-10-05T14:34:05.000Z</time>
      </trkpt>
      <trkpt lat="43.5722" lon="6.63933">
        <ele>210.2</ele>
        <time>2022-10-05T14:34:09.000Z</time>
      </trkpt>
      <trkpt lat="43.57223" lon="6.63931">
        <ele>210.3</ele>
        <time>2022-10-05T14:34:12.000Z</time>
      </trkpt>
      <trkpt lat="43.57227" lon="6.63929">
        <ele>210.4</ele>
        <time>2022-10-05T14:34:15.000Z</time>
      </trkpt>
      <trkpt lat="43.57231" lon="6.63928">
        <ele>210.6</ele>
        <time>2022-10-05T14:34:18.000Z</time>
      </trkpt>
      <trkpt lat="43.57235" lon="6.63927">
        <ele>210.8</ele>
        <time>2022-10-05T14:34:21.000Z</time>
      </trkpt>
      <trkpt lat="43.57238" lon="6.63926">
        <ele>210.9</ele>
        <time>2022-10-05T14:34:24.000Z</time>
      </trkpt>
      <trkpt lat="43.57242" lon="6.63925">
        <ele>211.1</ele>
        <time>2022-10-05T14:34:28.000Z</time>
      </trkpt>
      <trkpt lat="43.57244" lon="6.63925">
        <ele>211.2</ele>
        <time>2022-10-05T14:34:29.000Z</time>
      </trkpt>
      <trkpt lat="43.57249" lon="6.63923">
        <ele>211.5</ele>
        <time>2022-10-05T14:34:34.000Z</time>
      </trkpt>
      <trkpt lat="43.57253" lon="6.63922">
        <ele>211.7</ele>
        <time>2022-10-05T14:34:38.000Z</time>
      </trkpt>
      <trkpt lat="43.57257" lon="6.6392">
        <ele>211.9</ele>
        <time>2022-10-05T14:34:42.000Z</time>
      </trkpt>
      <trkpt lat="43.5726" lon="6.63918">
        <ele>212.1</ele>
        <time>2022-10-05T14:34:46.000Z</time>
      </trkpt>
      <trkpt lat="43.57264" lon="6.63915">
        <ele>212.2</ele>
        <time>2022-10-05T14:34:49.000Z</time>
      </trkpt>
      <trkpt lat="43.57267" lon="6.63912">
        <ele>212.3</ele>
        <time>2022-10-05T14:34:53.000Z</time>
      </trkpt>
      <trkpt lat="43.57271" lon="6.6391">
        <ele>212.3</ele>
        <time>2022-10-05T14:34:57.000Z</time>
      </trkpt>
      <trkpt lat="43.57274" lon="6.63907">
        <ele>212.4</ele>
        <time>2022-10-05T14:35:01.000Z</time>
      </trkpt>
      <trkpt lat="43.57277" lon="6.63904">
        <ele>212.4</ele>
        <time>2022-10-05T14:35:04.000Z</time>
      </trkpt>
      <trkpt lat="43.57281" lon="6.63901">
        <ele>212.5</ele>
        <time>2022-10-05T14:35:08.000Z</time>
      </trkpt>
      <trkpt lat="43.57284" lon="6.63898">
        <ele>212.5</ele>
        <time>2022-10-05T14:35:12.000Z</time>
      </trkpt>
      <trkpt lat="43.57288" lon="6.63895">
        <ele>212.5</ele>
        <time>2022-10-05T14:35:15.000Z</time>
      </trkpt>
      <trkpt lat="43.57291" lon="6.63892">
        <ele>212.5</ele>
        <time>2022-10-05T14:35:18.000Z</time>
      </trkpt>
      <trkpt lat="43.57294" lon="6.63889">
        <ele>212.5</ele>
        <time>2022-10-05T14:35:20.000Z</time>
      </trkpt>
      <trkpt lat="43.57297" lon="6.63886">
        <ele>212.3</ele>
        <time>2022-10-05T14:35:23.000Z</time>
      </trkpt>
      <trkpt lat="43.57301" lon="6.63883">
        <ele>212.1</ele>
        <time>2022-10-05T14:35:27.000Z</time>
      </trkpt>
      <trkpt lat="43.57305" lon="6.63881">
        <ele>211.9</ele>
        <time>2022-10-05T14:35:30.000Z</time>
      </trkpt>
      <trkpt lat="43.57306" lon="6.6388">
        <ele>211.8</ele>
        <time>2022-10-05T14:35:31.000Z</time>
      </trkpt>
      <trkpt lat="43.57311" lon="6.63876">
        <ele>211.6</ele>
        <time>2022-10-05T14:35:35.000Z</time>
      </trkpt>
      <trkpt lat="43.57314" lon="6.63875">
        <ele>211.5</ele>
        <time>2022-10-05T14:35:37.000Z</time>
      </trkpt>
      <trkpt lat="43.57318" lon="6.63873">
        <ele>211.3</ele>
        <time>2022-10-05T14:35:40.000Z</time>
      </trkpt>
      <trkpt lat="43.57322" lon="6.63872">
        <ele>210.9</ele>
        <time>2022-10-05T14:35:43.000Z</time>
      </trkpt>
      <trkpt lat="43.57325" lon="6.63871">
        <ele>210.7</ele>
        <time>2022-10-05T14:35:46.000Z</time>
      </trkpt>
      <trkpt lat="43.57329" lon="6.6387">
        <ele>210.4</ele>
        <time>2022-10-05T14:35:49.000Z</time>
      </trkpt>
      <trkpt lat="43.57333" lon="6.6387">
        <ele>210.2</ele>
        <time>2022-10-05T14:35:53.000Z</time>
      </trkpt>
      <trkpt lat="43.57337" lon="6.6387">
        <ele>210</ele>
        <time>2022-10-05T14:35:56.000Z</time>
      </trkpt>
      <trkpt lat="43.57341" lon="6.63869">
        <ele>209.9</ele>
        <time>2022-10-05T14:35:59.000Z</time>
      </trkpt>
      <trkpt lat="43.57345" lon="6.63869">
        <ele>209.8</ele>
        <time>2022-10-05T14:36:02.000Z</time>
      </trkpt>
      <trkpt lat="43.57348" lon="6.63868">
        <ele>209.5</ele>
        <time>2022-10-05T14:36:05.000Z</time>
      </trkpt>
      <trkpt lat="43.57352" lon="6.63868">
        <ele>209.2</ele>
        <time>2022-10-05T14:36:08.000Z</time>
      </trkpt>
      <trkpt lat="43.57355" lon="6.63867">
        <ele>209</ele>
        <time>2022-10-05T14:36:11.000Z</time>
      </trkpt>
      <trkpt lat="43.57359" lon="6.63867">
        <ele>208.8</ele>
        <time>2022-10-05T14:36:14.000Z</time>
      </trkpt>
      <trkpt lat="43.57363" lon="6.63867">
        <ele>208.6</ele>
        <time>2022-10-05T14:36:17.000Z</time>
      </trkpt>
      <trkpt lat="43.57367" lon="6.63867">
        <ele>208.5</ele>
        <time>2022-10-05T14:36:20.000Z</time>
      </trkpt>
      <trkpt lat="43.5737" lon="6.63866">
        <ele>208.3</ele>
        <time>2022-10-05T14:36:23.000Z</time>
      </trkpt>
      <trkpt lat="43.57374" lon="6.63866">
        <ele>208.2</ele>
        <time>2022-10-05T14:36:26.000Z</time>
      </trkpt>
      <trkpt lat="43.57377" lon="6.63866">
        <ele>208.1</ele>
        <time>2022-10-05T14:36:29.000Z</time>
      </trkpt>
      <trkpt lat="43.57381" lon="6.63866">
        <ele>207.9</ele>
        <time>2022-10-05T14:36:32.000Z</time>
      </trkpt>
      <trkpt lat="43.57382" lon="6.63866">
        <ele>207.8</ele>
        <time>2022-10-05T14:36:33.000Z</time>
      </trkpt>
      <trkpt lat="43.57388" lon="6.63863">
        <ele>207.1</ele>
        <time>2022-10-05T14:36:39.000Z</time>
      </trkpt>
      <trkpt lat="43.5739" lon="6.63857">
        <ele>206.6</ele>
        <time>2022-10-05T14:36:44.000Z</time>
      </trkpt>
      <trkpt lat="43.57389" lon="6.63851">
        <ele>206.2</ele>
        <time>2022-10-05T14:36:50.000Z</time>
      </trkpt>
      <trkpt lat="43.57387" lon="6.63846">
        <ele>205.8</ele>
        <time>2022-10-05T14:36:58.000Z</time>
      </trkpt>
      <trkpt lat="43.57384" lon="6.63843">
        <ele>205.7</ele>
        <time>2022-10-05T14:37:05.000Z</time>
      </trkpt>
      <trkpt lat="43.5738" lon="6.6384">
        <ele>205.8</ele>
        <time>2022-10-05T14:37:09.000Z</time>
      </trkpt>
      <trkpt lat="43.57376" lon="6.63839">
        <ele>205.9</ele>
        <time>2022-10-05T14:37:13.000Z</time>
      </trkpt>
      <trkpt lat="43.57373" lon="6.63837">
        <ele>206</ele>
        <time>2022-10-05T14:37:17.000Z</time>
      </trkpt>
      <trkpt lat="43.5737" lon="6.63835">
        <ele>206.2</ele>
        <time>2022-10-05T14:37:20.000Z</time>
      </trkpt>
      <trkpt lat="43.57367" lon="6.63833">
        <ele>206.4</ele>
        <time>2022-10-05T14:37:23.000Z</time>
      </trkpt>
      <trkpt lat="43.57363" lon="6.63832">
        <ele>206.5</ele>
        <time>2022-10-05T14:37:26.000Z</time>
      </trkpt>
      <trkpt lat="43.5736" lon="6.63831">
        <ele>206.8</ele>
        <time>2022-10-05T14:37:29.000Z</time>
      </trkpt>
      <trkpt lat="43.57356" lon="6.6383">
        <ele>207</ele>
        <time>2022-10-05T14:37:33.000Z</time>
      </trkpt>
      <trkpt lat="43.57355" lon="6.63829">
        <ele>207.1</ele>
        <time>2022-10-05T14:37:34.000Z</time>
      </trkpt>
      <trkpt lat="43.57349" lon="6.63827">
        <ele>207.7</ele>
        <time>2022-10-05T14:37:40.000Z</time>
      </trkpt>
      <trkpt lat="43.57345" lon="6.63825">
        <ele>208</ele>
        <time>2022-10-05T14:37:44.000Z</time>
      </trkpt>
      <trkpt lat="43.57342" lon="6.63824">
        <ele>208.2</ele>
        <time>2022-10-05T14:37:47.000Z</time>
      </trkpt>
      <trkpt lat="43.57338" lon="6.63822">
        <ele>208.4</ele>
        <time>2022-10-05T14:37:50.000Z</time>
      </trkpt>
      <trkpt lat="43.57335" lon="6.63819">
        <ele>208.6</ele>
        <time>2022-10-05T14:37:53.000Z</time>
      </trkpt>
      <trkpt lat="43.57332" lon="6.63817">
        <ele>208.8</ele>
        <time>2022-10-05T14:37:56.000Z</time>
      </trkpt>
      <trkpt lat="43.57328" lon="6.63813">
        <ele>208.9</ele>
        <time>2022-10-05T14:38:00.000Z</time>
      </trkpt>
      <trkpt lat="43.57326" lon="6.63811">
        <ele>209.1</ele>
        <time>2022-10-05T14:38:03.000Z</time>
      </trkpt>
      <trkpt lat="43.57322" lon="6.63809">
        <ele>209.1</ele>
        <time>2022-10-05T14:38:06.000Z</time>
      </trkpt>
      <trkpt lat="43.57319" lon="6.63806">
        <ele>209.3</ele>
        <time>2022-10-05T14:38:10.000Z</time>
      </trkpt>
      <trkpt lat="43.57315" lon="6.63803">
        <ele>209.7</ele>
        <time>2022-10-05T14:38:14.000Z</time>
      </trkpt>
      <trkpt lat="43.57311" lon="6.638">
        <ele>210.1</ele>
        <time>2022-10-05T14:38:18.000Z</time>
      </trkpt>
      <trkpt lat="43.57308" lon="6.63797">
        <ele>210.3</ele>
        <time>2022-10-05T14:38:22.000Z</time>
      </trkpt>
      <trkpt lat="43.57305" lon="6.63794">
        <ele>210.7</ele>
        <time>2022-10-05T14:38:25.000Z</time>
      </trkpt>
      <trkpt lat="43.57302" lon="6.6379">
        <ele>211</ele>
        <time>2022-10-05T14:38:28.000Z</time>
      </trkpt>
      <trkpt lat="43.573" lon="6.63785">
        <ele>211.3</ele>
        <time>2022-10-05T14:38:32.000Z</time>
      </trkpt>
      <trkpt lat="43.57298" lon="6.63779">
        <ele>211.6</ele>
        <time>2022-10-05T14:38:36.000Z</time>
      </trkpt>
      <trkpt lat="43.57298" lon="6.63778">
        <ele>211.7</ele>
        <time>2022-10-05T14:38:37.000Z</time>
      </trkpt>
      <trkpt lat="43.57298" lon="6.63768">
        <ele>212.3</ele>
        <time>2022-10-05T14:38:44.000Z</time>
      </trkpt>
      <trkpt lat="43.57299" lon="6.63762">
        <ele>212.8</ele>
        <time>2022-10-05T14:38:48.000Z</time>
      </trkpt>
      <trkpt lat="43.573" lon="6.63758">
        <ele>213.1</ele>
        <time>2022-10-05T14:38:51.000Z</time>
      </trkpt>
      <trkpt lat="43.573" lon="6.63753">
        <ele>213.6</ele>
        <time>2022-10-05T14:38:54.000Z</time>
      </trkpt>
      <trkpt lat="43.573" lon="6.63747">
        <ele>214.1</ele>
        <time>2022-10-05T14:38:58.000Z</time>
      </trkpt>
      <trkpt lat="43.573" lon="6.63742">
        <ele>214.6</ele>
        <time>2022-10-05T14:39:02.000Z</time>
      </trkpt>
      <trkpt lat="43.573" lon="6.63736">
        <ele>215</ele>
        <time>2022-10-05T14:39:06.000Z</time>
      </trkpt>
      <trkpt lat="43.57299" lon="6.63731">
        <ele>215.3</ele>
        <time>2022-10-05T14:39:09.000Z</time>
      </trkpt>
      <trkpt lat="43.57297" lon="6.63725">
        <ele>215.7</ele>
        <time>2022-10-05T14:39:13.000Z</time>
      </trkpt>
      <trkpt lat="43.57296" lon="6.6372">
        <ele>216.1</ele>
        <time>2022-10-05T14:39:17.000Z</time>
      </trkpt>
      <trkpt lat="43.57294" lon="6.63714">
        <ele>216.8</ele>
        <time>2022-10-05T14:39:24.000Z</time>
      </trkpt>
      <trkpt lat="43.57294" lon="6.63709">
        <ele>217.2</ele>
        <time>2022-10-05T14:39:30.000Z</time>
      </trkpt>
      <trkpt lat="43.5729" lon="6.63708">
        <ele>218.1</ele>
        <time>2022-10-05T14:39:46.000Z</time>
      </trkpt>
      <trkpt lat="43.57289" lon="6.63709">
        <ele>218.1</ele>
        <time>2022-10-05T14:39:47.000Z</time>
      </trkpt>
      <trkpt lat="43.57285" lon="6.63717">
        <ele>218.2</ele>
        <time>2022-10-05T14:39:52.000Z</time>
      </trkpt>
      <trkpt lat="43.57283" lon="6.63721">
        <ele>218.3</ele>
        <time>2022-10-05T14:39:55.000Z</time>
      </trkpt>
      <trkpt lat="43.57281" lon="6.63725">
        <ele>218.3</ele>
        <time>2022-10-05T14:39:58.000Z</time>
      </trkpt>
      <trkpt lat="43.57279" lon="6.6373">
        <ele>218.3</ele>
        <time>2022-10-05T14:40:01.000Z</time>
      </trkpt>
      <trkpt lat="43.57277" lon="6.63735">
        <ele>218.3</ele>
        <time>2022-10-05T14:40:04.000Z</time>
      </trkpt>
      <trkpt lat="43.57275" lon="6.6374">
        <ele>218.3</ele>
        <time>2022-10-05T14:40:13.000Z</time>
      </trkpt>
      <trkpt lat="43.57273" lon="6.63745">
        <ele>218.4</ele>
        <time>2022-10-05T14:40:19.000Z</time>
      </trkpt>
      <trkpt lat="43.57271" lon="6.63751">
        <ele>218.2</ele>
        <time>2022-10-05T14:40:28.000Z</time>
      </trkpt>
      <trkpt lat="43.57269" lon="6.63756">
        <ele>218.1</ele>
        <time>2022-10-05T14:40:34.000Z</time>
      </trkpt>
      <trkpt lat="43.57266" lon="6.6376">
        <ele>218</ele>
        <time>2022-10-05T14:40:39.000Z</time>
      </trkpt>
      <trkpt lat="43.57263" lon="6.63764">
        <ele>217.9</ele>
        <time>2022-10-05T14:40:46.000Z</time>
      </trkpt>
      <trkpt lat="43.57261" lon="6.63769">
        <ele>217.7</ele>
        <time>2022-10-05T14:40:53.000Z</time>
      </trkpt>
      <trkpt lat="43.5726" lon="6.63769">
        <ele>217.7</ele>
        <time>2022-10-05T14:40:54.000Z</time>
      </trkpt>
      <trkpt lat="43.57254" lon="6.63774">
        <ele>217.4</ele>
        <time>2022-10-05T14:41:06.000Z</time>
      </trkpt>
      <trkpt lat="43.5725" lon="6.63776">
        <ele>217.2</ele>
        <time>2022-10-05T14:41:11.000Z</time>
      </trkpt>
      <trkpt lat="43.57247" lon="6.63776">
        <ele>217</ele>
        <time>2022-10-05T14:41:16.000Z</time>
      </trkpt>
      <trkpt lat="43.57242" lon="6.63776">
        <ele>216.9</ele>
        <time>2022-10-05T14:41:21.000Z</time>
      </trkpt>
      <trkpt lat="43.57238" lon="6.63776">
        <ele>216.5</ele>
        <time>2022-10-05T14:41:28.000Z</time>
      </trkpt>
      <trkpt lat="43.57234" lon="6.63776">
        <ele>216.3</ele>
        <time>2022-10-05T14:41:33.000Z</time>
      </trkpt>
      <trkpt lat="43.57231" lon="6.63777">
        <ele>216.1</ele>
        <time>2022-10-05T14:41:37.000Z</time>
      </trkpt>
      <trkpt lat="43.57227" lon="6.63778">
        <ele>216.1</ele>
        <time>2022-10-05T14:41:40.000Z</time>
      </trkpt>
      <trkpt lat="43.57224" lon="6.63779">
        <ele>216</ele>
        <time>2022-10-05T14:41:42.000Z</time>
      </trkpt>
      <trkpt lat="43.5722" lon="6.6378">
        <ele>215.9</ele>
        <time>2022-10-05T14:41:45.000Z</time>
      </trkpt>
      <trkpt lat="43.57217" lon="6.63781">
        <ele>215.9</ele>
        <time>2022-10-05T14:41:49.000Z</time>
      </trkpt>
      <trkpt lat="43.57213" lon="6.63781">
        <ele>215.5</ele>
        <time>2022-10-05T14:41:54.000Z</time>
      </trkpt>
      <trkpt lat="43.57212" lon="6.63781">
        <ele>215.4</ele>
        <time>2022-10-05T14:41:55.000Z</time>
      </trkpt>
      <trkpt lat="43.57205" lon="6.63781">
        <ele>215.1</ele>
        <time>2022-10-05T14:42:01.000Z</time>
      </trkpt>
      <trkpt lat="43.57201" lon="6.63781">
        <ele>215</ele>
        <time>2022-10-05T14:42:05.000Z</time>
      </trkpt>
      <trkpt lat="43.57197" lon="6.63782">
        <ele>214.8</ele>
        <time>2022-10-05T14:42:10.000Z</time>
      </trkpt>
      <trkpt lat="43.57193" lon="6.63782">
        <ele>214.7</ele>
        <time>2022-10-05T14:42:14.000Z</time>
      </trkpt>
      <trkpt lat="43.5719" lon="6.63784">
        <ele>214.6</ele>
        <time>2022-10-05T14:42:17.000Z</time>
      </trkpt>
      <trkpt lat="43.57186" lon="6.63786">
        <ele>214.5</ele>
        <time>2022-10-05T14:42:21.000Z</time>
      </trkpt>
      <trkpt lat="43.57182" lon="6.63787">
        <ele>214.4</ele>
        <time>2022-10-05T14:42:25.000Z</time>
      </trkpt>
      <trkpt lat="43.57177" lon="6.63789">
        <ele>214.2</ele>
        <time>2022-10-05T14:42:29.000Z</time>
      </trkpt>
      <trkpt lat="43.57174" lon="6.6379">
        <ele>214.1</ele>
        <time>2022-10-05T14:42:32.000Z</time>
      </trkpt>
      <trkpt lat="43.5717" lon="6.63791">
        <ele>214</ele>
        <time>2022-10-05T14:42:35.000Z</time>
      </trkpt>
      <trkpt lat="43.57167" lon="6.63793">
        <ele>213.9</ele>
        <time>2022-10-05T14:42:38.000Z</time>
      </trkpt>
      <trkpt lat="43.57163" lon="6.63793">
        <ele>213.8</ele>
        <time>2022-10-05T14:42:41.000Z</time>
      </trkpt>
      <trkpt lat="43.5716" lon="6.63795">
        <ele>213.8</ele>
        <time>2022-10-05T14:42:44.000Z</time>
      </trkpt>
      <trkpt lat="43.57155" lon="6.63796">
        <ele>213.6</ele>
        <time>2022-10-05T14:42:48.000Z</time>
      </trkpt>
      <trkpt lat="43.57151" lon="6.63796">
        <ele>213.5</ele>
        <time>2022-10-05T14:42:51.000Z</time>
      </trkpt>
      <trkpt lat="43.57148" lon="6.63797">
        <ele>213.5</ele>
        <time>2022-10-05T14:42:54.000Z</time>
      </trkpt>
      <trkpt lat="43.57144" lon="6.63797">
        <ele>213.4</ele>
        <time>2022-10-05T14:42:58.000Z</time>
      </trkpt>
      <trkpt lat="43.57142" lon="6.63797">
        <ele>213.4</ele>
        <time>2022-10-05T14:42:59.000Z</time>
      </trkpt>
      <trkpt lat="43.57135" lon="6.63795">
        <ele>213.2</ele>
        <time>2022-10-05T14:43:06.000Z</time>
      </trkpt>
      <trkpt lat="43.57131" lon="6.63794">
        <ele>213</ele>
        <time>2022-10-05T14:43:10.000Z</time>
      </trkpt>
      <trkpt lat="43.57128" lon="6.63791">
        <ele>212.8</ele>
        <time>2022-10-05T14:43:13.000Z</time>
      </trkpt>
      <trkpt lat="43.57124" lon="6.63789">
        <ele>212.6</ele>
        <time>2022-10-05T14:43:17.000Z</time>
      </trkpt>
      <trkpt lat="43.57122" lon="6.63784">
        <ele>212.3</ele>
        <time>2022-10-05T14:43:22.000Z</time>
      </trkpt>
      <trkpt lat="43.57121" lon="6.63779">
        <ele>212.1</ele>
        <time>2022-10-05T14:43:27.000Z</time>
      </trkpt>
      <trkpt lat="43.57121" lon="6.63774">
        <ele>211.8</ele>
        <time>2022-10-05T14:43:31.000Z</time>
      </trkpt>
      <trkpt lat="43.5712" lon="6.63768">
        <ele>211.5</ele>
        <time>2022-10-05T14:43:35.000Z</time>
      </trkpt>
      <trkpt lat="43.5712" lon="6.63763">
        <ele>211.1</ele>
        <time>2022-10-05T14:43:39.000Z</time>
      </trkpt>
      <trkpt lat="43.57121" lon="6.63757">
        <ele>210.7</ele>
        <time>2022-10-05T14:43:43.000Z</time>
      </trkpt>
      <trkpt lat="43.57121" lon="6.63751">
        <ele>210.4</ele>
        <time>2022-10-05T14:43:47.000Z</time>
      </trkpt>
      <trkpt lat="43.57122" lon="6.63746">
        <ele>210.1</ele>
        <time>2022-10-05T14:43:51.000Z</time>
      </trkpt>
      <trkpt lat="43.57124" lon="6.6374">
        <ele>209.8</ele>
        <time>2022-10-05T14:43:55.000Z</time>
      </trkpt>
      <trkpt lat="43.57126" lon="6.63736">
        <ele>209.7</ele>
        <time>2022-10-05T14:43:58.000Z</time>
      </trkpt>
      <trkpt lat="43.57128" lon="6.63731">
        <ele>209.5</ele>
        <time>2022-10-05T14:44:02.000Z</time>
      </trkpt>
      <trkpt lat="43.57129" lon="6.63731">
        <ele>209.5</ele>
        <time>2022-10-05T14:44:03.000Z</time>
      </trkpt>
      <trkpt lat="43.57135" lon="6.63726">
        <ele>209.2</ele>
        <time>2022-10-05T14:44:09.000Z</time>
      </trkpt>
      <trkpt lat="43.57138" lon="6.63724">
        <ele>209.1</ele>
        <time>2022-10-05T14:44:12.000Z</time>
      </trkpt>
      <trkpt lat="43.57141" lon="6.63722">
        <ele>209</ele>
        <time>2022-10-05T14:44:15.000Z</time>
      </trkpt>
      <trkpt lat="43.57145" lon="6.63719">
        <ele>208.9</ele>
        <time>2022-10-05T14:44:19.000Z</time>
      </trkpt>
      <trkpt lat="43.57149" lon="6.63717">
        <ele>208.7</ele>
        <time>2022-10-05T14:44:23.000Z</time>
      </trkpt>
      <trkpt lat="43.57152" lon="6.63715">
        <ele>208.3</ele>
        <time>2022-10-05T14:44:27.000Z</time>
      </trkpt>
      <trkpt lat="43.57156" lon="6.63713">
        <ele>207.8</ele>
        <time>2022-10-05T14:44:32.000Z</time>
      </trkpt>
      <trkpt lat="43.5716" lon="6.63713">
        <ele>207</ele>
        <time>2022-10-05T14:44:46.000Z</time>
      </trkpt>
      <trkpt lat="43.57164" lon="6.63711">
        <ele>206.7</ele>
        <time>2022-10-05T14:45:00.000Z</time>
      </trkpt>
      <trkpt lat="43.57167" lon="6.63708">
        <ele>206.2</ele>
        <time>2022-10-05T14:45:36.000Z</time>
      </trkpt>
      <trkpt lat="43.57167" lon="6.63708">
        <ele>206.1</ele>
        <time>2022-10-05T14:45:37.000Z</time>
      </trkpt>
      <trkpt lat="43.57174" lon="6.63704">
        <ele>205.8</ele>
        <time>2022-10-05T14:45:47.000Z</time>
      </trkpt>
      <trkpt lat="43.57177" lon="6.63701">
        <ele>205.7</ele>
        <time>2022-10-05T14:45:51.000Z</time>
      </trkpt>
      <trkpt lat="43.5718" lon="6.63697">
        <ele>205.7</ele>
        <time>2022-10-05T14:45:55.000Z</time>
      </trkpt>
      <trkpt lat="43.57183" lon="6.63694">
        <ele>205.6</ele>
        <time>2022-10-05T14:46:01.000Z</time>
      </trkpt>
      <trkpt lat="43.57186" lon="6.6369">
        <ele>205.5</ele>
        <time>2022-10-05T14:46:06.000Z</time>
      </trkpt>
      <trkpt lat="43.57186" lon="6.63685">
        <ele>205.4</ele>
        <time>2022-10-05T14:46:11.000Z</time>
      </trkpt>
      <trkpt lat="43.57188" lon="6.63681">
        <ele>205.3</ele>
        <time>2022-10-05T14:46:15.000Z</time>
      </trkpt>
      <trkpt lat="43.57191" lon="6.63677">
        <ele>205.3</ele>
        <time>2022-10-05T14:46:19.000Z</time>
      </trkpt>
      <trkpt lat="43.57194" lon="6.63674">
        <ele>205.2</ele>
        <time>2022-10-05T14:46:22.000Z</time>
      </trkpt>
      <trkpt lat="43.57197" lon="6.63671">
        <ele>205.2</ele>
        <time>2022-10-05T14:46:25.000Z</time>
      </trkpt>
      <trkpt lat="43.572" lon="6.63667">
        <ele>205.2</ele>
        <time>2022-10-05T14:46:28.000Z</time>
      </trkpt>
      <trkpt lat="43.57203" lon="6.63663">
        <ele>205.1</ele>
        <time>2022-10-05T14:46:32.000Z</time>
      </trkpt>
      <trkpt lat="43.57205" lon="6.63659">
        <ele>205.1</ele>
        <time>2022-10-05T14:46:36.000Z</time>
      </trkpt>
      <trkpt lat="43.57207" lon="6.63655">
        <ele>205.1</ele>
        <time>2022-10-05T14:46:39.000Z</time>
      </trkpt>
      <trkpt lat="43.57207" lon="6.63653">
        <ele>205.1</ele>
        <time>2022-10-05T14:46:40.000Z</time>
      </trkpt>
      <trkpt lat="43.5721" lon="6.63646">
        <ele>205</ele>
        <time>2022-10-05T14:46:45.000Z</time>
      </trkpt>
      <trkpt lat="43.57212" lon="6.63641">
        <ele>205</ele>
        <time>2022-10-05T14:46:49.000Z</time>
      </trkpt>
      <trkpt lat="43.57214" lon="6.63637">
        <ele>204.9</ele>
        <time>2022-10-05T14:46:53.000Z</time>
      </trkpt>
      <trkpt lat="43.57215" lon="6.63633">
        <ele>204.9</ele>
        <time>2022-10-05T14:46:56.000Z</time>
      </trkpt>
      <trkpt lat="43.57218" lon="6.63628">
        <ele>204.9</ele>
        <time>2022-10-05T14:46:59.000Z</time>
      </trkpt>
      <trkpt lat="43.5722" lon="6.63625">
        <ele>205</ele>
        <time>2022-10-05T14:47:02.000Z</time>
      </trkpt>
      <trkpt lat="43.57223" lon="6.63622">
        <ele>205</ele>
        <time>2022-10-05T14:47:05.000Z</time>
      </trkpt>
      <trkpt lat="43.57226" lon="6.63618">
        <ele>205</ele>
        <time>2022-10-05T14:47:09.000Z</time>
      </trkpt>
      <trkpt lat="43.57229" lon="6.63615">
        <ele>205</ele>
        <time>2022-10-05T14:47:13.000Z</time>
      </trkpt>
      <trkpt lat="43.57232" lon="6.63612">
        <ele>205.1</ele>
        <time>2022-10-05T14:47:17.000Z</time>
      </trkpt>
      <trkpt lat="43.57236" lon="6.63609">
        <ele>205.1</ele>
        <time>2022-10-05T14:47:21.000Z</time>
      </trkpt>
      <trkpt lat="43.57239" lon="6.63607">
        <ele>205.1</ele>
        <time>2022-10-05T14:47:24.000Z</time>
      </trkpt>
      <trkpt lat="43.57243" lon="6.63605">
        <ele>205.1</ele>
        <time>2022-10-05T14:47:27.000Z</time>
      </trkpt>
      <trkpt lat="43.57246" lon="6.63603">
        <ele>205.2</ele>
        <time>2022-10-05T14:47:30.000Z</time>
      </trkpt>
      <trkpt lat="43.57249" lon="6.636">
        <ele>205.3</ele>
        <time>2022-10-05T14:47:33.000Z</time>
      </trkpt>
      <trkpt lat="43.57253" lon="6.63597">
        <ele>205.4</ele>
        <time>2022-10-05T14:47:37.000Z</time>
      </trkpt>
      <trkpt lat="43.57256" lon="6.63596">
        <ele>205.4</ele>
        <time>2022-10-05T14:47:40.000Z</time>
      </trkpt>
      <trkpt lat="43.57257" lon="6.63595">
        <ele>205.5</ele>
        <time>2022-10-05T14:47:41.000Z</time>
      </trkpt>
      <trkpt lat="43.57262" lon="6.6359">
        <ele>205.4</ele>
        <time>2022-10-05T14:47:47.000Z</time>
      </trkpt>
      <trkpt lat="43.57265" lon="6.63585">
        <ele>205.3</ele>
        <time>2022-10-05T14:47:52.000Z</time>
      </trkpt>
      <trkpt lat="43.57267" lon="6.63581">
        <ele>205.2</ele>
        <time>2022-10-05T14:47:57.000Z</time>
      </trkpt>
      <trkpt lat="43.5727" lon="6.63579">
        <ele>205.3</ele>
        <time>2022-10-05T14:48:00.000Z</time>
      </trkpt>
      <trkpt lat="43.57274" lon="6.63577">
        <ele>205.4</ele>
        <time>2022-10-05T14:48:03.000Z</time>
      </trkpt>
      <trkpt lat="43.57278" lon="6.63576">
        <ele>205.5</ele>
        <time>2022-10-05T14:48:07.000Z</time>
      </trkpt>
      <trkpt lat="43.57281" lon="6.63573">
        <ele>205.6</ele>
        <time>2022-10-05T14:48:11.000Z</time>
      </trkpt>
      <trkpt lat="43.57285" lon="6.6357">
        <ele>205.7</ele>
        <time>2022-10-05T14:48:15.000Z</time>
      </trkpt>
      <trkpt lat="43.57288" lon="6.63568">
        <ele>205.9</ele>
        <time>2022-10-05T14:48:19.000Z</time>
      </trkpt>
      <trkpt lat="43.57292" lon="6.63564">
        <ele>206</ele>
        <time>2022-10-05T14:48:24.000Z</time>
      </trkpt>
      <trkpt lat="43.57295" lon="6.63561">
        <ele>206.2</ele>
        <time>2022-10-05T14:48:29.000Z</time>
      </trkpt>
      <trkpt lat="43.57298" lon="6.63558">
        <ele>206.3</ele>
        <time>2022-10-05T14:48:33.000Z</time>
      </trkpt>
      <trkpt lat="43.573" lon="6.63553">
        <ele>206.4</ele>
        <time>2022-10-05T14:48:37.000Z</time>
      </trkpt>
      <trkpt lat="43.57302" lon="6.63548">
        <ele>206.5</ele>
        <time>2022-10-05T14:48:41.000Z</time>
      </trkpt>
      <trkpt lat="43.57303" lon="6.63547">
        <ele>206.5</ele>
        <time>2022-10-05T14:48:42.000Z</time>
      </trkpt>
      <trkpt lat="43.57306" lon="6.63539">
        <ele>206.8</ele>
        <time>2022-10-05T14:48:48.000Z</time>
      </trkpt>
      <trkpt lat="43.57308" lon="6.63534">
        <ele>207</ele>
        <time>2022-10-05T14:48:52.000Z</time>
      </trkpt>
      <trkpt lat="43.57311" lon="6.63531">
        <ele>207.1</ele>
        <time>2022-10-05T14:48:55.000Z</time>
      </trkpt>
      <trkpt lat="43.57314" lon="6.63528">
        <ele>207.2</ele>
        <time>2022-10-05T14:48:58.000Z</time>
      </trkpt>
      <trkpt lat="43.57317" lon="6.63525">
        <ele>207.3</ele>
        <time>2022-10-05T14:49:01.000Z</time>
      </trkpt>
      <trkpt lat="43.57319" lon="6.63522">
        <ele>207.4</ele>
        <time>2022-10-05T14:49:04.000Z</time>
      </trkpt>
      <trkpt lat="43.57321" lon="6.63517">
        <ele>207.5</ele>
        <time>2022-10-05T14:49:08.000Z</time>
      </trkpt>
      <trkpt lat="43.57321" lon="6.63511">
        <ele>207.6</ele>
        <time>2022-10-05T14:49:14.000Z</time>
      </trkpt>
      <trkpt lat="43.5732" lon="6.63506">
        <ele>207.8</ele>
        <time>2022-10-05T14:49:18.000Z</time>
      </trkpt>
      <trkpt lat="43.57318" lon="6.635">
        <ele>208.1</ele>
        <time>2022-10-05T14:49:23.000Z</time>
      </trkpt>
      <trkpt lat="43.57317" lon="6.63494">
        <ele>208.4</ele>
        <time>2022-10-05T14:49:29.000Z</time>
      </trkpt>
      <trkpt lat="43.57316" lon="6.63489">
        <ele>208.8</ele>
        <time>2022-10-05T14:49:34.000Z</time>
      </trkpt>
      <trkpt lat="43.57315" lon="6.63485">
        <ele>209</ele>
        <time>2022-10-05T14:49:38.000Z</time>
      </trkpt>
      <trkpt lat="43.57314" lon="6.63479">
        <ele>209.6</ele>
        <time>2022-10-05T14:49:42.000Z</time>
      </trkpt>
      <trkpt lat="43.57313" lon="6.63474">
        <ele>210.2</ele>
        <time>2022-10-05T14:49:47.000Z</time>
      </trkpt>
      <trkpt lat="43.57312" lon="6.63472">
        <ele>210.3</ele>
        <time>2022-10-05T14:49:48.000Z</time>
      </trkpt>
      <trkpt lat="43.57311" lon="6.63462">
        <ele>211.2</ele>
        <time>2022-10-05T14:49:55.000Z</time>
      </trkpt>
      <trkpt lat="43.5731" lon="6.63456">
        <ele>211.9</ele>
        <time>2022-10-05T14:49:59.000Z</time>
      </trkpt>
      <trkpt lat="43.5731" lon="6.63451">
        <ele>212.4</ele>
        <time>2022-10-05T14:50:03.000Z</time>
      </trkpt>
      <trkpt lat="43.57309" lon="6.63446">
        <ele>212.9</ele>
        <time>2022-10-05T14:50:06.000Z</time>
      </trkpt>
      <trkpt lat="43.57309" lon="6.63441">
        <ele>213.3</ele>
        <time>2022-10-05T14:50:10.000Z</time>
      </trkpt>
      <trkpt lat="43.57308" lon="6.63436">
        <ele>213.7</ele>
        <time>2022-10-05T14:50:13.000Z</time>
      </trkpt>
      <trkpt lat="43.57307" lon="6.63432">
        <ele>214.1</ele>
        <time>2022-10-05T14:50:16.000Z</time>
      </trkpt>
      <trkpt lat="43.57306" lon="6.63427">
        <ele>214.5</ele>
        <time>2022-10-05T14:50:19.000Z</time>
      </trkpt>
      <trkpt lat="43.57305" lon="6.63422">
        <ele>214.8</ele>
        <time>2022-10-05T14:50:22.000Z</time>
      </trkpt>
      <trkpt lat="43.57303" lon="6.63417">
        <ele>215.2</ele>
        <time>2022-10-05T14:50:26.000Z</time>
      </trkpt>
      <trkpt lat="43.573" lon="6.63413">
        <ele>215.5</ele>
        <time>2022-10-05T14:50:30.000Z</time>
      </trkpt>
      <trkpt lat="43.57299" lon="6.63408">
        <ele>215.8</ele>
        <time>2022-10-05T14:50:34.000Z</time>
      </trkpt>
      <trkpt lat="43.57296" lon="6.63403">
        <ele>216.1</ele>
        <time>2022-10-05T14:50:38.000Z</time>
      </trkpt>
      <trkpt lat="43.57294" lon="6.63398">
        <ele>216.4</ele>
        <time>2022-10-05T14:50:42.000Z</time>
      </trkpt>
      <trkpt lat="43.57292" lon="6.63392">
        <ele>216.7</ele>
        <time>2022-10-05T14:50:46.000Z</time>
      </trkpt>
      <trkpt lat="43.5729" lon="6.63388">
        <ele>217</ele>
        <time>2022-10-05T14:50:50.000Z</time>
      </trkpt>
      <trkpt lat="43.5729" lon="6.63386">
        <ele>217.1</ele>
        <time>2022-10-05T14:50:51.000Z</time>
      </trkpt>
      <trkpt lat="43.57287" lon="6.63378">
        <ele>217.5</ele>
        <time>2022-10-05T14:50:57.000Z</time>
      </trkpt>
      <trkpt lat="43.57286" lon="6.63373">
        <ele>217.7</ele>
        <time>2022-10-05T14:51:00.000Z</time>
      </trkpt>
      <trkpt lat="43.57285" lon="6.63369">
        <ele>217.9</ele>
        <time>2022-10-05T14:51:03.000Z</time>
      </trkpt>
      <trkpt lat="43.57283" lon="6.63365">
        <ele>218.1</ele>
        <time>2022-10-05T14:51:06.000Z</time>
      </trkpt>
      <trkpt lat="43.57281" lon="6.6336">
        <ele>218.3</ele>
        <time>2022-10-05T14:51:09.000Z</time>
      </trkpt>
      <trkpt lat="43.57279" lon="6.63356">
        <ele>218.5</ele>
        <time>2022-10-05T14:51:12.000Z</time>
      </trkpt>
      <trkpt lat="43.57277" lon="6.63351">
        <ele>218.7</ele>
        <time>2022-10-05T14:51:16.000Z</time>
      </trkpt>
      <trkpt lat="43.57274" lon="6.63347">
        <ele>219.1</ele>
        <time>2022-10-05T14:51:20.000Z</time>
      </trkpt>
      <trkpt lat="43.57272" lon="6.63343">
        <ele>219.5</ele>
        <time>2022-10-05T14:51:23.000Z</time>
      </trkpt>
      <trkpt lat="43.5727" lon="6.63338">
        <ele>219.9</ele>
        <time>2022-10-05T14:51:27.000Z</time>
      </trkpt>
      <trkpt lat="43.57266" lon="6.63335">
        <ele>220.3</ele>
        <time>2022-10-05T14:51:32.000Z</time>
      </trkpt>
      <trkpt lat="43.57263" lon="6.63332">
        <ele>221</ele>
        <time>2022-10-05T14:51:37.000Z</time>
      </trkpt>
      <trkpt lat="43.57259" lon="6.6333">
        <ele>221.9</ele>
        <time>2022-10-05T14:51:44.000Z</time>
      </trkpt>
      <trkpt lat="43.57255" lon="6.63328">
        <ele>222.4</ele>
        <time>2022-10-05T14:51:48.000Z</time>
      </trkpt>
      <trkpt lat="43.57252" lon="6.63324">
        <ele>222.9</ele>
        <time>2022-10-05T14:51:52.000Z</time>
      </trkpt>
      <trkpt lat="43.57251" lon="6.63323">
        <ele>223</ele>
        <time>2022-10-05T14:51:53.000Z</time>
      </trkpt>
      <trkpt lat="43.57245" lon="6.63318">
        <ele>224.1</ele>
        <time>2022-10-05T14:52:00.000Z</time>
      </trkpt>
      <trkpt lat="43.57243" lon="6.63314">
        <ele>224.7</ele>
        <time>2022-10-05T14:52:04.000Z</time>
      </trkpt>
      <trkpt lat="43.57239" lon="6.63311">
        <ele>225.6</ele>
        <time>2022-10-05T14:52:09.000Z</time>
      </trkpt>
      <trkpt lat="43.57236" lon="6.63307">
        <ele>226.5</ele>
        <time>2022-10-05T14:52:15.000Z</time>
      </trkpt>
      <trkpt lat="43.57233" lon="6.63304">
        <ele>227.3</ele>
        <time>2022-10-05T14:52:19.000Z</time>
      </trkpt>
      <trkpt lat="43.5723" lon="6.633">
        <ele>228.1</ele>
        <time>2022-10-05T14:52:24.000Z</time>
      </trkpt>
      <trkpt lat="43.57227" lon="6.63297">
        <ele>228.8</ele>
        <time>2022-10-05T14:52:29.000Z</time>
      </trkpt>
      <trkpt lat="43.57223" lon="6.63294">
        <ele>229.7</ele>
        <time>2022-10-05T14:52:34.900Z</time>
      </trkpt>
      <trkpt lat="43.57219" lon="6.63293">
        <ele>230.3</ele>
        <time>2022-10-05T14:52:39.000Z</time>
      </trkpt>
      <trkpt lat="43.57216" lon="6.63292">
        <ele>231</ele>
        <time>2022-10-05T14:52:43.000Z</time>
      </trkpt>
      <trkpt lat="43.57212" lon="6.6329">
        <ele>231.8</ele>
        <time>2022-10-05T14:52:48.000Z</time>
      </trkpt>
      <trkpt lat="43.57208" lon="6.63287">
        <ele>232.5</ele>
        <time>2022-10-05T14:52:52.000Z</time>
      </trkpt>
      <trkpt lat="43.57204" lon="6.63286">
        <ele>233.2</ele>
        <time>2022-10-05T14:52:56.000Z</time>
      </trkpt>
      <trkpt lat="43.57204" lon="6.63285">
        <ele>233.3</ele>
        <time>2022-10-05T14:52:57.000Z</time>
      </trkpt>
      <trkpt lat="43.57198" lon="6.63279">
        <ele>234.5</ele>
        <time>2022-10-05T14:53:05.000Z</time>
      </trkpt>
      <trkpt lat="43.57195" lon="6.63275">
        <ele>235.1</ele>
        <time>2022-10-05T14:53:09.000Z</time>
      </trkpt>
      <trkpt lat="43.57191" lon="6.63272">
        <ele>235.9</ele>
        <time>2022-10-05T14:53:14.000Z</time>
      </trkpt>
      <trkpt lat="43.57188" lon="6.63269">
        <ele>236.7</ele>
        <time>2022-10-05T14:53:19.000Z</time>
      </trkpt>
      <trkpt lat="43.57184" lon="6.63267">
        <ele>237.6</ele>
        <time>2022-10-05T14:53:24.000Z</time>
      </trkpt>
      <trkpt lat="43.57181" lon="6.63265">
        <ele>238.3</ele>
        <time>2022-10-05T14:53:28.000Z</time>
      </trkpt>
      <trkpt lat="43.57177" lon="6.63265">
        <ele>239</ele>
        <time>2022-10-05T14:53:32.000Z</time>
      </trkpt>
      <trkpt lat="43.57173" lon="6.63264">
        <ele>239.7</ele>
        <time>2022-10-05T14:53:36.000Z</time>
      </trkpt>
      <trkpt lat="43.57169" lon="6.63263">
        <ele>240.6</ele>
        <time>2022-10-05T14:53:41.000Z</time>
      </trkpt>
      <trkpt lat="43.57165" lon="6.63261">
        <ele>241.3</ele>
        <time>2022-10-05T14:53:46.000Z</time>
      </trkpt>
      <trkpt lat="43.57161" lon="6.6326">
        <ele>242.1</ele>
        <time>2022-10-05T14:53:51.000Z</time>
      </trkpt>
      <trkpt lat="43.57157" lon="6.6326">
        <ele>243.1</ele>
        <time>2022-10-05T14:53:56.000Z</time>
      </trkpt>
      <trkpt lat="43.57152" lon="6.63261">
        <ele>243.9</ele>
        <time>2022-10-05T14:54:01.000Z</time>
      </trkpt>
      <trkpt lat="43.57151" lon="6.63261">
        <ele>244</ele>
        <time>2022-10-05T14:54:02.000Z</time>
      </trkpt>
      <trkpt lat="43.57144" lon="6.63261">
        <ele>245.3</ele>
        <time>2022-10-05T14:54:10.000Z</time>
      </trkpt>
      <trkpt lat="43.5714" lon="6.63261">
        <ele>246.1</ele>
        <time>2022-10-05T14:54:15.000Z</time>
      </trkpt>
      <trkpt lat="43.57136" lon="6.63262">
        <ele>246.6</ele>
        <time>2022-10-05T14:54:19.000Z</time>
      </trkpt>
      <trkpt lat="43.57132" lon="6.63261">
        <ele>247.3</ele>
        <time>2022-10-05T14:54:23.000Z</time>
      </trkpt>
      <trkpt lat="43.57128" lon="6.63261">
        <ele>247.9</ele>
        <time>2022-10-05T14:54:27.000Z</time>
      </trkpt>
      <trkpt lat="43.57125" lon="6.6326">
        <ele>248.2</ele>
        <time>2022-10-05T14:54:30.000Z</time>
      </trkpt>
      <trkpt lat="43.57121" lon="6.6326">
        <ele>248.7</ele>
        <time>2022-10-05T14:54:34.000Z</time>
      </trkpt>
      <trkpt lat="43.57117" lon="6.63258">
        <ele>249.4</ele>
        <time>2022-10-05T14:54:38.000Z</time>
      </trkpt>
      <trkpt lat="43.57114" lon="6.63257">
        <ele>249.9</ele>
        <time>2022-10-05T14:54:41.000Z</time>
      </trkpt>
      <trkpt lat="43.5711" lon="6.63255">
        <ele>250.4</ele>
        <time>2022-10-05T14:54:45.000Z</time>
      </trkpt>
      <trkpt lat="43.57106" lon="6.63252">
        <ele>250.8</ele>
        <time>2022-10-05T14:54:49.000Z</time>
      </trkpt>
      <trkpt lat="43.57102" lon="6.63249">
        <ele>251.1</ele>
        <time>2022-10-05T14:54:53.000Z</time>
      </trkpt>
      <trkpt lat="43.57098" lon="6.63246">
        <ele>251.3</ele>
        <time>2022-10-05T14:54:57.000Z</time>
      </trkpt>
      <trkpt lat="43.57095" lon="6.63243">
        <ele>251.6</ele>
        <time>2022-10-05T14:55:01.000Z</time>
      </trkpt>
      <trkpt lat="43.57092" lon="6.63241">
        <ele>252</ele>
        <time>2022-10-05T14:55:05.000Z</time>
      </trkpt>
      <trkpt lat="43.57091" lon="6.6324">
        <ele>252.1</ele>
        <time>2022-10-05T14:55:06.000Z</time>
      </trkpt>
      <trkpt lat="43.57086" lon="6.63233">
        <ele>253.1</ele>
        <time>2022-10-05T14:55:15.000Z</time>
      </trkpt>
      <trkpt lat="43.57082" lon="6.6323">
        <ele>253.5</ele>
        <time>2022-10-05T14:55:19.000Z</time>
      </trkpt>
      <trkpt lat="43.57079" lon="6.63226">
        <ele>254</ele>
        <time>2022-10-05T14:55:23.000Z</time>
      </trkpt>
      <trkpt lat="43.57075" lon="6.63223">
        <ele>254.5</ele>
        <time>2022-10-05T14:55:27.000Z</time>
      </trkpt>
      <trkpt lat="43.57072" lon="6.6322">
        <ele>255.1</ele>
        <time>2022-10-05T14:55:31.000Z</time>
      </trkpt>
      <trkpt lat="43.5707" lon="6.63216">
        <ele>255.8</ele>
        <time>2022-10-05T14:55:35.000Z</time>
      </trkpt>
      <trkpt lat="43.57067" lon="6.63212">
        <ele>256.5</ele>
        <time>2022-10-05T14:55:39.000Z</time>
      </trkpt>
      <trkpt lat="43.57065" lon="6.63207">
        <ele>257.1</ele>
        <time>2022-10-05T14:55:43.000Z</time>
      </trkpt>
      <trkpt lat="43.57063" lon="6.63202">
        <ele>257.6</ele>
        <time>2022-10-05T14:55:47.000Z</time>
      </trkpt>
      <trkpt lat="43.57062" lon="6.63197">
        <ele>258.3</ele>
        <time>2022-10-05T14:55:52.000Z</time>
      </trkpt>
      <trkpt lat="43.57059" lon="6.63193">
        <ele>259.1</ele>
        <time>2022-10-05T14:55:57.000Z</time>
      </trkpt>
      <trkpt lat="43.57056" lon="6.63188">
        <ele>262</ele>
        <time>2022-10-05T14:56:25.000Z</time>
      </trkpt>
      <trkpt lat="43.57056" lon="6.63188">
        <ele>262</ele>
        <time>2022-10-05T14:56:26.000Z</time>
      </trkpt>
      <trkpt lat="43.57059" lon="6.63192">
        <ele>262.3</ele>
        <time>2022-10-05T14:59:44.000Z</time>
      </trkpt>
      <trkpt lat="43.57059" lon="6.63193">
        <ele>262.3</ele>
        <time>2022-10-05T14:59:45.000Z</time>
      </trkpt>
      <trkpt lat="43.57063" lon="6.63189">
        <ele>262.3</ele>
        <time>2022-10-05T15:02:11.000Z</time>
      </trkpt>
      <trkpt lat="43.57063" lon="6.63189">
        <ele>262.3</ele>
        <time>2022-10-05T15:02:12.000Z</time>
      </trkpt>
      <trkpt lat="43.5707" lon="6.63185">
        <ele>262.3</ele>
        <time>2022-10-05T15:02:18.000Z</time>
      </trkpt>
      <trkpt lat="43.57074" lon="6.63182">
        <ele>262.3</ele>
        <time>2022-10-05T15:02:21.000Z</time>
      </trkpt>
      <trkpt lat="43.57078" lon="6.63179">
        <ele>262.3</ele>
        <time>2022-10-05T15:02:24.000Z</time>
      </trkpt>
      <trkpt lat="43.57081" lon="6.63176">
        <ele>262.4</ele>
        <time>2022-10-05T15:02:27.000Z</time>
      </trkpt>
      <trkpt lat="43.57083" lon="6.63173">
        <ele>262.5</ele>
        <time>2022-10-05T15:02:30.000Z</time>
      </trkpt>
      <trkpt lat="43.57085" lon="6.63169">
        <ele>262.6</ele>
        <time>2022-10-05T15:02:33.000Z</time>
      </trkpt>
      <trkpt lat="43.57087" lon="6.63165">
        <ele>262.7</ele>
        <time>2022-10-05T15:02:36.000Z</time>
      </trkpt>
      <trkpt lat="43.57089" lon="6.6316">
        <ele>262.7</ele>
        <time>2022-10-05T15:02:39.000Z</time>
      </trkpt>
      <trkpt lat="43.57091" lon="6.63155">
        <ele>262.8</ele>
        <time>2022-10-05T15:02:43.000Z</time>
      </trkpt>
      <trkpt lat="43.57093" lon="6.63151">
        <ele>262.8</ele>
        <time>2022-10-05T15:02:46.000Z</time>
      </trkpt>
      <trkpt lat="43.57096" lon="6.63148">
        <ele>262.8</ele>
        <time>2022-10-05T15:02:49.000Z</time>
      </trkpt>
      <trkpt lat="43.57098" lon="6.63144">
        <ele>262.8</ele>
        <time>2022-10-05T15:02:52.000Z</time>
      </trkpt>
      <trkpt lat="43.57102" lon="6.63142">
        <ele>262.7</ele>
        <time>2022-10-05T15:02:55.000Z</time>
      </trkpt>
      <trkpt lat="43.57105" lon="6.63142">
        <ele>262.7</ele>
        <time>2022-10-05T15:02:58.000Z</time>
      </trkpt>
      <trkpt lat="43.57109" lon="6.63144">
        <ele>262.6</ele>
        <time>2022-10-05T15:03:02.000Z</time>
      </trkpt>
      <trkpt lat="43.57112" lon="6.63148">
        <ele>262.6</ele>
        <time>2022-10-05T15:03:06.000Z</time>
      </trkpt>
      <trkpt lat="43.57115" lon="6.6315">
        <ele>262.6</ele>
        <time>2022-10-05T15:03:10.000Z</time>
      </trkpt>
      <trkpt lat="43.57119" lon="6.63153">
        <ele>262.5</ele>
        <time>2022-10-05T15:03:14.000Z</time>
      </trkpt>
      <trkpt lat="43.57119" lon="6.63154">
        <ele>262.5</ele>
        <time>2022-10-05T15:03:15.000Z</time>
      </trkpt>
      <trkpt lat="43.57126" lon="6.63158">
        <ele>262.5</ele>
        <time>2022-10-05T15:03:22.000Z</time>
      </trkpt>
      <trkpt lat="43.57129" lon="6.6316">
        <ele>262.5</ele>
        <time>2022-10-05T15:03:25.000Z</time>
      </trkpt>
      <trkpt lat="43.57133" lon="6.63161">
        <ele>262.5</ele>
        <time>2022-10-05T15:03:28.000Z</time>
      </trkpt>
      <trkpt lat="43.57137" lon="6.63162">
        <ele>262.5</ele>
        <time>2022-10-05T15:03:31.000Z</time>
      </trkpt>
      <trkpt lat="43.5714" lon="6.63162">
        <ele>262.5</ele>
        <time>2022-10-05T15:03:34.000Z</time>
      </trkpt>
      <trkpt lat="43.57144" lon="6.63162">
        <ele>262.5</ele>
        <time>2022-10-05T15:03:37.000Z</time>
      </trkpt>
      <trkpt lat="43.57148" lon="6.63161">
        <ele>262.5</ele>
        <time>2022-10-05T15:03:40.000Z</time>
      </trkpt>
      <trkpt lat="43.57151" lon="6.63159">
        <ele>262.5</ele>
        <time>2022-10-05T15:03:43.000Z</time>
      </trkpt>
      <trkpt lat="43.57155" lon="6.63156">
        <ele>262.5</ele>
        <time>2022-10-05T15:03:46.000Z</time>
      </trkpt>
      <trkpt lat="43.57158" lon="6.63154">
        <ele>262.5</ele>
        <time>2022-10-05T15:03:49.000Z</time>
      </trkpt>
      <trkpt lat="43.57161" lon="6.63151">
        <ele>262.5</ele>
        <time>2022-10-05T15:03:52.000Z</time>
      </trkpt>
      <trkpt lat="43.57164" lon="6.63148">
        <ele>262.5</ele>
        <time>2022-10-05T15:03:55.000Z</time>
      </trkpt>
      <trkpt lat="43.57167" lon="6.63145">
        <ele>262.5</ele>
        <time>2022-10-05T15:03:58.000Z</time>
      </trkpt>
      <trkpt lat="43.5717" lon="6.63142">
        <ele>262.5</ele>
        <time>2022-10-05T15:04:01.000Z</time>
      </trkpt>
      <trkpt lat="43.57172" lon="6.63138">
        <ele>262.5</ele>
        <time>2022-10-05T15:04:04.000Z</time>
      </trkpt>
      <trkpt lat="43.57175" lon="6.63134">
        <ele>262.5</ele>
        <time>2022-10-05T15:04:07.000Z</time>
      </trkpt>
      <trkpt lat="43.57177" lon="6.63129">
        <ele>262.6</ele>
        <time>2022-10-05T15:04:11.000Z</time>
      </trkpt>
      <trkpt lat="43.5718" lon="6.63126">
        <ele>262.6</ele>
        <time>2022-10-05T15:04:14.000Z</time>
      </trkpt>
      <trkpt lat="43.57182" lon="6.63121">
        <ele>262.6</ele>
        <time>2022-10-05T15:04:18.000Z</time>
      </trkpt>
      <trkpt lat="43.57183" lon="6.6312">
        <ele>262.6</ele>
        <time>2022-10-05T15:04:19.000Z</time>
      </trkpt>
      <trkpt lat="43.57188" lon="6.63113">
        <ele>262.7</ele>
        <time>2022-10-05T15:04:26.000Z</time>
      </trkpt>
      <trkpt lat="43.57191" lon="6.6311">
        <ele>262.7</ele>
        <time>2022-10-05T15:04:29.000Z</time>
      </trkpt>
      <trkpt lat="43.57193" lon="6.63107">
        <ele>262.7</ele>
        <time>2022-10-05T15:04:32.000Z</time>
      </trkpt>
      <trkpt lat="43.57197" lon="6.63105">
        <ele>262.8</ele>
        <time>2022-10-05T15:04:35.000Z</time>
      </trkpt>
      <trkpt lat="43.572" lon="6.63103">
        <ele>262.8</ele>
        <time>2022-10-05T15:04:38.000Z</time>
      </trkpt>
      <trkpt lat="43.57203" lon="6.63101">
        <ele>262.8</ele>
        <time>2022-10-05T15:04:41.000Z</time>
      </trkpt>
      <trkpt lat="43.57207" lon="6.63099">
        <ele>262.8</ele>
        <time>2022-10-05T15:04:44.000Z</time>
      </trkpt>
      <trkpt lat="43.5721" lon="6.63097">
        <ele>262.8</ele>
        <time>2022-10-05T15:04:47.000Z</time>
      </trkpt>
      <trkpt lat="43.57213" lon="6.63095">
        <ele>262.8</ele>
        <time>2022-10-05T15:04:50.000Z</time>
      </trkpt>
      <trkpt lat="43.57217" lon="6.63092">
        <ele>262.8</ele>
        <time>2022-10-05T15:04:53.000Z</time>
      </trkpt>
      <trkpt lat="43.57219" lon="6.63089">
        <ele>262.8</ele>
        <time>2022-10-05T15:04:56.000Z</time>
      </trkpt>
      <trkpt lat="43.57222" lon="6.63086">
        <ele>262.8</ele>
        <time>2022-10-05T15:04:59.000Z</time>
      </trkpt>
      <trkpt lat="43.57224" lon="6.63082">
        <ele>262.8</ele>
        <time>2022-10-05T15:05:02.000Z</time>
      </trkpt>
      <trkpt lat="43.57226" lon="6.63078">
        <ele>262.8</ele>
        <time>2022-10-05T15:05:05.000Z</time>
      </trkpt>
      <trkpt lat="43.57228" lon="6.63073">
        <ele>262.9</ele>
        <time>2022-10-05T15:05:08.000Z</time>
      </trkpt>
      <trkpt lat="43.5723" lon="6.63068">
        <ele>262.9</ele>
        <time>2022-10-05T15:05:11.000Z</time>
      </trkpt>
      <trkpt lat="43.57232" lon="6.63063">
        <ele>262.9</ele>
        <time>2022-10-05T15:05:14.000Z</time>
      </trkpt>
      <trkpt lat="43.57233" lon="6.63058">
        <ele>262.9</ele>
        <time>2022-10-05T15:05:17.000Z</time>
      </trkpt>
      <trkpt lat="43.57234" lon="6.63053">
        <ele>263</ele>
        <time>2022-10-05T15:05:20.000Z</time>
      </trkpt>
      <trkpt lat="43.57234" lon="6.63051">
        <ele>263</ele>
        <time>2022-10-05T15:05:21.000Z</time>
      </trkpt>
      <trkpt lat="43.57235" lon="6.63043">
        <ele>263.2</ele>
        <time>2022-10-05T15:05:26.000Z</time>
      </trkpt>
      <trkpt lat="43.57236" lon="6.63037">
        <ele>263.3</ele>
        <time>2022-10-05T15:05:30.000Z</time>
      </trkpt>
      <trkpt lat="43.57237" lon="6.63033">
        <ele>263.5</ele>
        <time>2022-10-05T15:05:33.000Z</time>
      </trkpt>
      <trkpt lat="43.57238" lon="6.63028">
        <ele>263.7</ele>
        <time>2022-10-05T15:05:36.000Z</time>
      </trkpt>
      <trkpt lat="43.57238" lon="6.63021">
        <ele>263.8</ele>
        <time>2022-10-05T15:05:40.000Z</time>
      </trkpt>
      <trkpt lat="43.57239" lon="6.63015">
        <ele>264.1</ele>
        <time>2022-10-05T15:05:44.000Z</time>
      </trkpt>
      <trkpt lat="43.57239" lon="6.6301">
        <ele>264.5</ele>
        <time>2022-10-05T15:05:48.000Z</time>
      </trkpt>
      <trkpt lat="43.57238" lon="6.63004">
        <ele>264.8</ele>
        <time>2022-10-05T15:05:52.000Z</time>
      </trkpt>
      <trkpt lat="43.57237" lon="6.62999">
        <ele>265.2</ele>
        <time>2022-10-05T15:05:56.000Z</time>
      </trkpt>
      <trkpt lat="43.57236" lon="6.62994">
        <ele>265.6</ele>
        <time>2022-10-05T15:06:00.000Z</time>
      </trkpt>
      <trkpt lat="43.57234" lon="6.62989">
        <ele>266</ele>
        <time>2022-10-05T15:06:04.000Z</time>
      </trkpt>
      <trkpt lat="43.57231" lon="6.62985">
        <ele>266.3</ele>
        <time>2022-10-05T15:06:09.000Z</time>
      </trkpt>
      <trkpt lat="43.5723" lon="6.62979">
        <ele>266.6</ele>
        <time>2022-10-05T15:06:13.000Z</time>
      </trkpt>
      <trkpt lat="43.57229" lon="6.62974">
        <ele>266.7</ele>
        <time>2022-10-05T15:06:16.000Z</time>
      </trkpt>
      <trkpt lat="43.57229" lon="6.62969">
        <ele>267.1</ele>
        <time>2022-10-05T15:06:19.000Z</time>
      </trkpt>
      <trkpt lat="43.57229" lon="6.62963">
        <ele>267.5</ele>
        <time>2022-10-05T15:06:23.000Z</time>
      </trkpt>
      <trkpt lat="43.57229" lon="6.62961">
        <ele>267.6</ele>
        <time>2022-10-05T15:06:24.000Z</time>
      </trkpt>
      <trkpt lat="43.57227" lon="6.62953">
        <ele>268.1</ele>
        <time>2022-10-05T15:06:29.000Z</time>
      </trkpt>
      <trkpt lat="43.57228" lon="6.62948">
        <ele>268.4</ele>
        <time>2022-10-05T15:06:33.000Z</time>
      </trkpt>
      <trkpt lat="43.57231" lon="6.62944">
        <ele>268.6</ele>
        <time>2022-10-05T15:06:36.000Z</time>
      </trkpt>
      <trkpt lat="43.57233" lon="6.62941">
        <ele>268.8</ele>
        <time>2022-10-05T15:06:39.000Z</time>
      </trkpt>
      <trkpt lat="43.57236" lon="6.62937">
        <ele>269.1</ele>
        <time>2022-10-05T15:06:42.000Z</time>
      </trkpt>
      <trkpt lat="43.5724" lon="6.62934">
        <ele>269.3</ele>
        <time>2022-10-05T15:06:45.000Z</time>
      </trkpt>
      <trkpt lat="43.57243" lon="6.6293">
        <ele>269.6</ele>
        <time>2022-10-05T15:06:48.000Z</time>
      </trkpt>
      <trkpt lat="43.57245" lon="6.62926">
        <ele>269.9</ele>
        <time>2022-10-05T15:06:51.000Z</time>
      </trkpt>
      <trkpt lat="43.57247" lon="6.62921">
        <ele>270.3</ele>
        <time>2022-10-05T15:06:55.000Z</time>
      </trkpt>
      <trkpt lat="43.57249" lon="6.62917">
        <ele>270.5</ele>
        <time>2022-10-05T15:06:59.000Z</time>
      </trkpt>
      <trkpt lat="43.57249" lon="6.62912">
        <ele>270.7</ele>
        <time>2022-10-05T15:07:02.000Z</time>
      </trkpt>
      <trkpt lat="43.5725" lon="6.62906">
        <ele>271</ele>
        <time>2022-10-05T15:07:06.000Z</time>
      </trkpt>
      <trkpt lat="43.5725" lon="6.62901">
        <ele>271.4</ele>
        <time>2022-10-05T15:07:10.000Z</time>
      </trkpt>
      <trkpt lat="43.57251" lon="6.62896">
        <ele>271.5</ele>
        <time>2022-10-05T15:07:13.000Z</time>
      </trkpt>
      <trkpt lat="43.57251" lon="6.62891">
        <ele>271.7</ele>
        <time>2022-10-05T15:07:16.000Z</time>
      </trkpt>
      <trkpt lat="43.57253" lon="6.62885">
        <ele>272</ele>
        <time>2022-10-05T15:07:20.000Z</time>
      </trkpt>
      <trkpt lat="43.57255" lon="6.62881">
        <ele>272.3</ele>
        <time>2022-10-05T15:07:23.000Z</time>
      </trkpt>
      <trkpt lat="43.57257" lon="6.62875">
        <ele>272.7</ele>
        <time>2022-10-05T15:07:26.000Z</time>
      </trkpt>
      <trkpt lat="43.57258" lon="6.62874">
        <ele>272.8</ele>
        <time>2022-10-05T15:07:27.000Z</time>
      </trkpt>
      <trkpt lat="43.57259" lon="6.62865">
        <ele>273.5</ele>
        <time>2022-10-05T15:07:33.000Z</time>
      </trkpt>
      <trkpt lat="43.57258" lon="6.62859">
        <ele>273.8</ele>
        <time>2022-10-05T15:07:36.000Z</time>
      </trkpt>
      <trkpt lat="43.57258" lon="6.62854">
        <ele>274.1</ele>
        <time>2022-10-05T15:07:39.000Z</time>
      </trkpt>
      <trkpt lat="43.57257" lon="6.62849">
        <ele>274.4</ele>
        <time>2022-10-05T15:07:42.000Z</time>
      </trkpt>
      <trkpt lat="43.57257" lon="6.62844">
        <ele>274.7</ele>
        <time>2022-10-05T15:07:45.000Z</time>
      </trkpt>
      <trkpt lat="43.57257" lon="6.62838">
        <ele>275</ele>
        <time>2022-10-05T15:07:49.000Z</time>
      </trkpt>
      <trkpt lat="43.57259" lon="6.62834">
        <ele>275.3</ele>
        <time>2022-10-05T15:07:53.000Z</time>
      </trkpt>
      <trkpt lat="43.57261" lon="6.6283">
        <ele>275.5</ele>
        <time>2022-10-05T15:07:56.000Z</time>
      </trkpt>
      <trkpt lat="43.57264" lon="6.62827">
        <ele>275.7</ele>
        <time>2022-10-05T15:07:59.000Z</time>
      </trkpt>
      <trkpt lat="43.57267" lon="6.62823">
        <ele>275.9</ele>
        <time>2022-10-05T15:08:02.000Z</time>
      </trkpt>
      <trkpt lat="43.5727" lon="6.6282">
        <ele>276.2</ele>
        <time>2022-10-05T15:08:05.000Z</time>
      </trkpt>
      <trkpt lat="43.57273" lon="6.62816">
        <ele>276.3</ele>
        <time>2022-10-05T15:08:08.000Z</time>
      </trkpt>
      <trkpt lat="43.57275" lon="6.62812">
        <ele>276.5</ele>
        <time>2022-10-05T15:08:11.000Z</time>
      </trkpt>
      <trkpt lat="43.57277" lon="6.62807">
        <ele>276.7</ele>
        <time>2022-10-05T15:08:15.000Z</time>
      </trkpt>
      <trkpt lat="43.57279" lon="6.62804">
        <ele>276.7</ele>
        <time>2022-10-05T15:08:17.000Z</time>
      </trkpt>
      <trkpt lat="43.57282" lon="6.62799">
        <ele>276.8</ele>
        <time>2022-10-05T15:08:20.000Z</time>
      </trkpt>
      <trkpt lat="43.57283" lon="6.62795">
        <ele>276.9</ele>
        <time>2022-10-05T15:08:23.000Z</time>
      </trkpt>
      <trkpt lat="43.57285" lon="6.6279">
        <ele>277</ele>
        <time>2022-10-05T15:08:26.000Z</time>
      </trkpt>
      <trkpt lat="43.57287" lon="6.62785">
        <ele>277.2</ele>
        <time>2022-10-05T15:08:29.000Z</time>
      </trkpt>
      <trkpt lat="43.57287" lon="6.62784">
        <ele>277.2</ele>
        <time>2022-10-05T15:08:30.000Z</time>
      </trkpt>
      <trkpt lat="43.57289" lon="6.62777">
        <ele>277.5</ele>
        <time>2022-10-05T15:08:35.000Z</time>
      </trkpt>
      <trkpt lat="43.57291" lon="6.62772">
        <ele>277.7</ele>
        <time>2022-10-05T15:08:38.000Z</time>
      </trkpt>
      <trkpt lat="43.57292" lon="6.62767">
        <ele>278</ele>
        <time>2022-10-05T15:08:42.000Z</time>
      </trkpt>
      <trkpt lat="43.57293" lon="6.62763">
        <ele>278.2</ele>
        <time>2022-10-05T15:08:45.000Z</time>
      </trkpt>
      <trkpt lat="43.57295" lon="6.62757">
        <ele>278.5</ele>
        <time>2022-10-05T15:08:49.000Z</time>
      </trkpt>
      <trkpt lat="43.57296" lon="6.62752">
        <ele>278.8</ele>
        <time>2022-10-05T15:08:52.000Z</time>
      </trkpt>
      <trkpt lat="43.57296" lon="6.62747">
        <ele>279.1</ele>
        <time>2022-10-05T15:08:55.000Z</time>
      </trkpt>
      <trkpt lat="43.57298" lon="6.62741">
        <ele>279.3</ele>
        <time>2022-10-05T15:08:58.000Z</time>
      </trkpt>
      <trkpt lat="43.57299" lon="6.62737">
        <ele>279.7</ele>
        <time>2022-10-05T15:09:01.000Z</time>
      </trkpt>
      <trkpt lat="43.573" lon="6.62732">
        <ele>280</ele>
        <time>2022-10-05T15:09:04.000Z</time>
      </trkpt>
      <trkpt lat="43.57301" lon="6.62727">
        <ele>280.2</ele>
        <time>2022-10-05T15:09:07.000Z</time>
      </trkpt>
      <trkpt lat="43.57301" lon="6.62722">
        <ele>280.6</ele>
        <time>2022-10-05T15:09:10.000Z</time>
      </trkpt>
      <trkpt lat="43.57303" lon="6.62717">
        <ele>280.8</ele>
        <time>2022-10-05T15:09:13.000Z</time>
      </trkpt>
      <trkpt lat="43.57304" lon="6.62712">
        <ele>281.1</ele>
        <time>2022-10-05T15:09:16.000Z</time>
      </trkpt>
      <trkpt lat="43.57304" lon="6.62707">
        <ele>281.4</ele>
        <time>2022-10-05T15:09:19.000Z</time>
      </trkpt>
      <trkpt lat="43.57305" lon="6.62702">
        <ele>281.7</ele>
        <time>2022-10-05T15:09:22.000Z</time>
      </trkpt>
      <trkpt lat="43.57306" lon="6.62698">
        <ele>282</ele>
        <time>2022-10-05T15:09:25.000Z</time>
      </trkpt>
      <trkpt lat="43.57307" lon="6.62693">
        <ele>282.3</ele>
        <time>2022-10-05T15:09:28.000Z</time>
      </trkpt>
      <trkpt lat="43.57308" lon="6.62688">
        <ele>282.6</ele>
        <time>2022-10-05T15:09:31.000Z</time>
      </trkpt>
      <trkpt lat="43.57308" lon="6.62686">
        <ele>282.8</ele>
        <time>2022-10-05T15:09:32.000Z</time>
      </trkpt>
      <trkpt lat="43.5731" lon="6.62679">
        <ele>283.4</ele>
        <time>2022-10-05T15:09:37.000Z</time>
      </trkpt>
      <trkpt lat="43.57312" lon="6.62674">
        <ele>283.7</ele>
        <time>2022-10-05T15:09:40.000Z</time>
      </trkpt>
      <trkpt lat="43.57314" lon="6.62669">
        <ele>284.1</ele>
        <time>2022-10-05T15:09:44.000Z</time>
      </trkpt>
      <trkpt lat="43.57316" lon="6.62664">
        <ele>284.3</ele>
        <time>2022-10-05T15:09:48.000Z</time>
      </trkpt>
      <trkpt lat="43.57318" lon="6.62659">
        <ele>284.6</ele>
        <time>2022-10-05T15:09:52.000Z</time>
      </trkpt>
      <trkpt lat="43.5732" lon="6.62655">
        <ele>284.7</ele>
        <time>2022-10-05T15:09:55.000Z</time>
      </trkpt>
      <trkpt lat="43.57322" lon="6.62651">
        <ele>284.9</ele>
        <time>2022-10-05T15:09:58.000Z</time>
      </trkpt>
      <trkpt lat="43.57324" lon="6.62648">
        <ele>284.9</ele>
        <time>2022-10-05T15:10:01.000Z</time>
      </trkpt>
      <trkpt lat="43.57328" lon="6.62644">
        <ele>285.1</ele>
        <time>2022-10-05T15:10:05.000Z</time>
      </trkpt>
      <trkpt lat="43.57332" lon="6.62642">
        <ele>285.2</ele>
        <time>2022-10-05T15:10:08.000Z</time>
      </trkpt>
      <trkpt lat="43.57336" lon="6.62639">
        <ele>285.3</ele>
        <time>2022-10-05T15:10:11.000Z</time>
      </trkpt>
      <trkpt lat="43.57339" lon="6.62638">
        <ele>285.3</ele>
        <time>2022-10-05T15:10:14.000Z</time>
      </trkpt>
      <trkpt lat="43.57343" lon="6.62635">
        <ele>285.4</ele>
        <time>2022-10-05T15:10:17.000Z</time>
      </trkpt>
      <trkpt lat="43.57346" lon="6.62633">
        <ele>285.4</ele>
        <time>2022-10-05T15:10:20.000Z</time>
      </trkpt>
      <trkpt lat="43.57349" lon="6.62632">
        <ele>285.5</ele>
        <time>2022-10-05T15:10:22.000Z</time>
      </trkpt>
      <trkpt lat="43.57353" lon="6.62631">
        <ele>285.5</ele>
        <time>2022-10-05T15:10:24.000Z</time>
      </trkpt>
      <trkpt lat="43.57357" lon="6.62629">
        <ele>285.5</ele>
        <time>2022-10-05T15:10:27.000Z</time>
      </trkpt>
      <trkpt lat="43.5736" lon="6.62626">
        <ele>285.5</ele>
        <time>2022-10-05T15:10:30.000Z</time>
      </trkpt>
      <trkpt lat="43.57363" lon="6.62623">
        <ele>285.6</ele>
        <time>2022-10-05T15:10:33.000Z</time>
      </trkpt>
      <trkpt lat="43.57364" lon="6.62622">
        <ele>285.6</ele>
        <time>2022-10-05T15:10:34.000Z</time>
      </trkpt>
      <trkpt lat="43.57369" lon="6.62616">
        <ele>285.5</ele>
        <time>2022-10-05T15:10:39.000Z</time>
      </trkpt>
      <trkpt lat="43.57371" lon="6.62613">
        <ele>285.4</ele>
        <time>2022-10-05T15:10:42.000Z</time>
      </trkpt>
      <trkpt lat="43.57374" lon="6.6261">
        <ele>285.3</ele>
        <time>2022-10-05T15:10:45.000Z</time>
      </trkpt>
      <trkpt lat="43.57378" lon="6.62608">
        <ele>285.2</ele>
        <time>2022-10-05T15:10:48.000Z</time>
      </trkpt>
      <trkpt lat="43.57381" lon="6.62606">
        <ele>285.1</ele>
        <time>2022-10-05T15:10:51.000Z</time>
      </trkpt>
      <trkpt lat="43.57384" lon="6.62603">
        <ele>285</ele>
        <time>2022-10-05T15:10:54.000Z</time>
      </trkpt>
      <trkpt lat="43.57387" lon="6.626">
        <ele>284.8</ele>
        <time>2022-10-05T15:10:57.000Z</time>
      </trkpt>
      <trkpt lat="43.57389" lon="6.62597">
        <ele>284.7</ele>
        <time>2022-10-05T15:11:00.000Z</time>
      </trkpt>
      <trkpt lat="43.57393" lon="6.62594">
        <ele>284.6</ele>
        <time>2022-10-05T15:11:03.000Z</time>
      </trkpt>
      <trkpt lat="43.57396" lon="6.62591">
        <ele>284.6</ele>
        <time>2022-10-05T15:11:06.000Z</time>
      </trkpt>
      <trkpt lat="43.57399" lon="6.62587">
        <ele>284.5</ele>
        <time>2022-10-05T15:11:10.000Z</time>
      </trkpt>
      <trkpt lat="43.57402" lon="6.62585">
        <ele>284.4</ele>
        <time>2022-10-05T15:11:13.000Z</time>
      </trkpt>
      <trkpt lat="43.57406" lon="6.62583">
        <ele>284.4</ele>
        <time>2022-10-05T15:11:16.000Z</time>
      </trkpt>
      <trkpt lat="43.57409" lon="6.62579">
        <ele>284.3</ele>
        <time>2022-10-05T15:11:19.000Z</time>
      </trkpt>
      <trkpt lat="43.57411" lon="6.62576">
        <ele>284.3</ele>
        <time>2022-10-05T15:11:22.000Z</time>
      </trkpt>
      <trkpt lat="43.57413" lon="6.62571">
        <ele>284.3</ele>
        <time>2022-10-05T15:11:25.000Z</time>
      </trkpt>
      <trkpt lat="43.57416" lon="6.62567">
        <ele>284.3</ele>
        <time>2022-10-05T15:11:28.000Z</time>
      </trkpt>
      <trkpt lat="43.57418" lon="6.62563">
        <ele>284.2</ele>
        <time>2022-10-05T15:11:31.000Z</time>
      </trkpt>
      <trkpt lat="43.57421" lon="6.62558">
        <ele>284.2</ele>
        <time>2022-10-05T15:11:34.000Z</time>
      </trkpt>
      <trkpt lat="43.57422" lon="6.62557">
        <ele>284.2</ele>
        <time>2022-10-05T15:11:35.000Z</time>
      </trkpt>
      <trkpt lat="43.57425" lon="6.62549">
        <ele>284.2</ele>
        <time>2022-10-05T15:11:40.000Z</time>
      </trkpt>
      <trkpt lat="43.57427" lon="6.62545">
        <ele>284.2</ele>
        <time>2022-10-05T15:11:43.000Z</time>
      </trkpt>
      <trkpt lat="43.5743" lon="6.6254">
        <ele>284.2</ele>
        <time>2022-10-05T15:11:47.000Z</time>
      </trkpt>
      <trkpt lat="43.57432" lon="6.62535">
        <ele>284.2</ele>
        <time>2022-10-05T15:11:51.000Z</time>
      </trkpt>
      <trkpt lat="43.57434" lon="6.62531">
        <ele>284.2</ele>
        <time>2022-10-05T15:11:55.000Z</time>
      </trkpt>
      <trkpt lat="43.57436" lon="6.62528">
        <ele>284.3</ele>
        <time>2022-10-05T15:11:58.000Z</time>
      </trkpt>
      <trkpt lat="43.5744" lon="6.62525">
        <ele>284.3</ele>
        <time>2022-10-05T15:12:01.000Z</time>
      </trkpt>
      <trkpt lat="43.57443" lon="6.62522">
        <ele>284.3</ele>
        <time>2022-10-05T15:12:04.000Z</time>
      </trkpt>
      <trkpt lat="43.57446" lon="6.62519">
        <ele>284.3</ele>
        <time>2022-10-05T15:12:07.000Z</time>
      </trkpt>
      <trkpt lat="43.57449" lon="6.62517">
        <ele>284.4</ele>
        <time>2022-10-05T15:12:09.000Z</time>
      </trkpt>
      <trkpt lat="43.57452" lon="6.62514">
        <ele>284.4</ele>
        <time>2022-10-05T15:12:11.000Z</time>
      </trkpt>
      <trkpt lat="43.57455" lon="6.6251">
        <ele>284.5</ele>
        <time>2022-10-05T15:12:14.000Z</time>
      </trkpt>
      <trkpt lat="43.57458" lon="6.62508">
        <ele>284.5</ele>
        <time>2022-10-05T15:12:16.000Z</time>
      </trkpt>
      <trkpt lat="43.57461" lon="6.62504">
        <ele>284.5</ele>
        <time>2022-10-05T15:12:19.000Z</time>
      </trkpt>
      <trkpt lat="43.57464" lon="6.62502">
        <ele>284.6</ele>
        <time>2022-10-05T15:12:22.000Z</time>
      </trkpt>
      <trkpt lat="43.57467" lon="6.62499">
        <ele>284.6</ele>
        <time>2022-10-05T15:12:25.000Z</time>
      </trkpt>
      <trkpt lat="43.5747" lon="6.62496">
        <ele>284.6</ele>
        <time>2022-10-05T15:12:28.000Z</time>
      </trkpt>
      <trkpt lat="43.57474" lon="6.62495">
        <ele>284.7</ele>
        <time>2022-10-05T15:12:31.000Z</time>
      </trkpt>
      <trkpt lat="43.57478" lon="6.62493">
        <ele>284.7</ele>
        <time>2022-10-05T15:12:34.000Z</time>
      </trkpt>
      <trkpt lat="43.57482" lon="6.62492">
        <ele>284.7</ele>
        <time>2022-10-05T15:12:38.000Z</time>
      </trkpt>
      <trkpt lat="43.57483" lon="6.62491">
        <ele>284.7</ele>
        <time>2022-10-05T15:12:39.000Z</time>
      </trkpt>
      <trkpt lat="43.57489" lon="6.62489">
        <ele>284.7</ele>
        <time>2022-10-05T15:12:43.000Z</time>
      </trkpt>
      <trkpt lat="43.57492" lon="6.6249">
        <ele>284.8</ele>
        <time>2022-10-05T15:12:45.000Z</time>
      </trkpt>
      <trkpt lat="43.57497" lon="6.62488">
        <ele>284.8</ele>
        <time>2022-10-05T15:12:48.000Z</time>
      </trkpt>
      <trkpt lat="43.575" lon="6.62485">
        <ele>284.9</ele>
        <time>2022-10-05T15:12:52.000Z</time>
      </trkpt>
      <trkpt lat="43.57504" lon="6.62483">
        <ele>284.9</ele>
        <time>2022-10-05T15:12:56.000Z</time>
      </trkpt>
      <trkpt lat="43.57508" lon="6.62481">
        <ele>285</ele>
        <time>2022-10-05T15:13:00.000Z</time>
      </trkpt>
      <trkpt lat="43.57512" lon="6.62481">
        <ele>285</ele>
        <time>2022-10-05T15:13:03.000Z</time>
      </trkpt>
      <trkpt lat="43.57517" lon="6.6248">
        <ele>285</ele>
        <time>2022-10-05T15:13:06.000Z</time>
      </trkpt>
      <trkpt lat="43.5752" lon="6.62478">
        <ele>285.2</ele>
        <time>2022-10-05T15:13:09.000Z</time>
      </trkpt>
      <trkpt lat="43.57524" lon="6.62477">
        <ele>285.3</ele>
        <time>2022-10-05T15:13:12.000Z</time>
      </trkpt>
      <trkpt lat="43.57527" lon="6.62476">
        <ele>285.4</ele>
        <time>2022-10-05T15:13:15.000Z</time>
      </trkpt>
      <trkpt lat="43.57531" lon="6.62475">
        <ele>285.5</ele>
        <time>2022-10-05T15:13:18.000Z</time>
      </trkpt>
      <trkpt lat="43.57535" lon="6.62475">
        <ele>285.6</ele>
        <time>2022-10-05T15:13:21.000Z</time>
      </trkpt>
      <trkpt lat="43.57539" lon="6.62474">
        <ele>285.7</ele>
        <time>2022-10-05T15:13:25.000Z</time>
      </trkpt>
      <trkpt lat="43.57543" lon="6.62474">
        <ele>285.8</ele>
        <time>2022-10-05T15:13:28.000Z</time>
      </trkpt>
      <trkpt lat="43.57546" lon="6.62474">
        <ele>285.9</ele>
        <time>2022-10-05T15:13:31.000Z</time>
      </trkpt>
      <trkpt lat="43.57551" lon="6.62474">
        <ele>286</ele>
        <time>2022-10-05T15:13:35.000Z</time>
      </trkpt>
      <trkpt lat="43.57555" lon="6.62474">
        <ele>286.2</ele>
        <time>2022-10-05T15:13:38.000Z</time>
      </trkpt>
      <trkpt lat="43.57558" lon="6.62474">
        <ele>286.3</ele>
        <time>2022-10-05T15:13:40.000Z</time>
      </trkpt>
      <trkpt lat="43.5756" lon="6.62474">
        <ele>286.3</ele>
        <time>2022-10-05T15:13:41.000Z</time>
      </trkpt>
      <trkpt lat="43.57566" lon="6.62476">
        <ele>286.5</ele>
        <time>2022-10-05T15:13:46.000Z</time>
      </trkpt>
      <trkpt lat="43.5757" lon="6.62477">
        <ele>286.6</ele>
        <time>2022-10-05T15:13:49.000Z</time>
      </trkpt>
      <trkpt lat="43.57574" lon="6.62478">
        <ele>286.7</ele>
        <time>2022-10-05T15:13:52.000Z</time>
      </trkpt>
      <trkpt lat="43.57577" lon="6.62479">
        <ele>286.7</ele>
        <time>2022-10-05T15:13:55.000Z</time>
      </trkpt>
      <trkpt lat="43.57581" lon="6.6248">
        <ele>286.6</ele>
        <time>2022-10-05T15:13:59.000Z</time>
      </trkpt>
      <trkpt lat="43.57586" lon="6.62482">
        <ele>286.5</ele>
        <time>2022-10-05T15:14:03.000Z</time>
      </trkpt>
      <trkpt lat="43.5759" lon="6.62483">
        <ele>286.4</ele>
        <time>2022-10-05T15:14:06.000Z</time>
      </trkpt>
      <trkpt lat="43.57594" lon="6.62484">
        <ele>286.2</ele>
        <time>2022-10-05T15:14:10.000Z</time>
      </trkpt>
      <trkpt lat="43.57598" lon="6.62484">
        <ele>286</ele>
        <time>2022-10-05T15:14:14.000Z</time>
      </trkpt>
      <trkpt lat="43.57602" lon="6.62484">
        <ele>285.9</ele>
        <time>2022-10-05T15:14:17.000Z</time>
      </trkpt>
      <trkpt lat="43.57606" lon="6.62482">
        <ele>285.8</ele>
        <time>2022-10-05T15:14:20.000Z</time>
      </trkpt>
      <trkpt lat="43.5761" lon="6.6248">
        <ele>285.5</ele>
        <time>2022-10-05T15:14:23.000Z</time>
      </trkpt>
      <trkpt lat="43.57613" lon="6.62479">
        <ele>285.3</ele>
        <time>2022-10-05T15:14:26.000Z</time>
      </trkpt>
      <trkpt lat="43.57617" lon="6.62477">
        <ele>284.9</ele>
        <time>2022-10-05T15:14:32.000Z</time>
      </trkpt>
      <trkpt lat="43.5762" lon="6.62479">
        <ele>284.8</ele>
        <time>2022-10-05T15:14:35.000Z</time>
      </trkpt>
      <trkpt lat="43.57624" lon="6.62483">
        <ele>284.7</ele>
        <time>2022-10-05T15:14:38.000Z</time>
      </trkpt>
      <trkpt lat="43.57627" lon="6.62485">
        <ele>284.6</ele>
        <time>2022-10-05T15:14:42.000Z</time>
      </trkpt>
      <trkpt lat="43.57628" lon="6.62486">
        <ele>284.6</ele>
        <time>2022-10-05T15:14:43.000Z</time>
      </trkpt>
      <trkpt lat="43.57634" lon="6.62489">
        <ele>284.5</ele>
        <time>2022-10-05T15:14:49.000Z</time>
      </trkpt>
      <trkpt lat="43.57637" lon="6.62492">
        <ele>284.4</ele>
        <time>2022-10-05T15:14:51.000Z</time>
      </trkpt>
      <trkpt lat="43.57641" lon="6.62495">
        <ele>284.4</ele>
        <time>2022-10-05T15:14:54.000Z</time>
      </trkpt>
      <trkpt lat="43.57644" lon="6.62498">
        <ele>284.5</ele>
        <time>2022-10-05T15:14:56.000Z</time>
      </trkpt>
      <trkpt lat="43.57646" lon="6.625">
        <ele>284.6</ele>
        <time>2022-10-05T15:14:58.000Z</time>
      </trkpt>
      <trkpt lat="43.57648" lon="6.62503">
        <ele>284.8</ele>
        <time>2022-10-05T15:15:00.000Z</time>
      </trkpt>
      <trkpt lat="43.57651" lon="6.62505">
        <ele>285</ele>
        <time>2022-10-05T15:15:02.000Z</time>
      </trkpt>
      <trkpt lat="43.57654" lon="6.62507">
        <ele>285.1</ele>
        <time>2022-10-05T15:15:04.000Z</time>
      </trkpt>
      <trkpt lat="43.57657" lon="6.62509">
        <ele>285.3</ele>
        <time>2022-10-05T15:15:07.000Z</time>
      </trkpt>
      <trkpt lat="43.57661" lon="6.6251">
        <ele>285.6</ele>
        <time>2022-10-05T15:15:10.000Z</time>
      </trkpt>
      <trkpt lat="43.57665" lon="6.62511">
        <ele>285.9</ele>
        <time>2022-10-05T15:15:13.000Z</time>
      </trkpt>
      <trkpt lat="43.57669" lon="6.62511">
        <ele>286.1</ele>
        <time>2022-10-05T15:15:16.000Z</time>
      </trkpt>
      <trkpt lat="43.57673" lon="6.62511">
        <ele>286.4</ele>
        <time>2022-10-05T15:15:19.000Z</time>
      </trkpt>
      <trkpt lat="43.57677" lon="6.6251">
        <ele>286.7</ele>
        <time>2022-10-05T15:15:22.000Z</time>
      </trkpt>
      <trkpt lat="43.5768" lon="6.62509">
        <ele>286.9</ele>
        <time>2022-10-05T15:15:24.000Z</time>
      </trkpt>
      <trkpt lat="43.57684" lon="6.62508">
        <ele>287.1</ele>
        <time>2022-10-05T15:15:27.000Z</time>
      </trkpt>
      <trkpt lat="43.57687" lon="6.62507">
        <ele>287.2</ele>
        <time>2022-10-05T15:15:29.000Z</time>
      </trkpt>
      <trkpt lat="43.5769" lon="6.62505">
        <ele>287.3</ele>
        <time>2022-10-05T15:15:32.000Z</time>
      </trkpt>
      <trkpt lat="43.57693" lon="6.62505">
        <ele>287.4</ele>
        <time>2022-10-05T15:15:34.000Z</time>
      </trkpt>
      <trkpt lat="43.57698" lon="6.62503">
        <ele>287.5</ele>
        <time>2022-10-05T15:15:37.000Z</time>
      </trkpt>
      <trkpt lat="43.57701" lon="6.625">
        <ele>287.7</ele>
        <time>2022-10-05T15:15:40.000Z</time>
      </trkpt>
      <trkpt lat="43.57705" lon="6.62497">
        <ele>287.8</ele>
        <time>2022-10-05T15:15:43.000Z</time>
      </trkpt>
      <trkpt lat="43.57706" lon="6.62496">
        <ele>287.9</ele>
        <time>2022-10-05T15:15:44.000Z</time>
      </trkpt>
      <trkpt lat="43.5771" lon="6.62494">
        <ele>288.1</ele>
        <time>2022-10-05T15:15:47.000Z</time>
      </trkpt>
      <trkpt lat="43.57713" lon="6.62492">
        <ele>288.2</ele>
        <time>2022-10-05T15:15:49.000Z</time>
      </trkpt>
      <trkpt lat="43.57717" lon="6.62488">
        <ele>288.4</ele>
        <time>2022-10-05T15:15:52.000Z</time>
      </trkpt>
      <trkpt lat="43.5772" lon="6.62486">
        <ele>288.7</ele>
        <time>2022-10-05T15:15:55.000Z</time>
      </trkpt>
      <trkpt lat="43.57724" lon="6.62483">
        <ele>288.9</ele>
        <time>2022-10-05T15:15:58.000Z</time>
      </trkpt>
      <trkpt lat="43.57727" lon="6.6248">
        <ele>289.2</ele>
        <time>2022-10-05T15:16:01.000Z</time>
      </trkpt>
      <trkpt lat="43.57731" lon="6.62477">
        <ele>289.5</ele>
        <time>2022-10-05T15:16:04.000Z</time>
      </trkpt>
      <trkpt lat="43.57734" lon="6.62475">
        <ele>289.7</ele>
        <time>2022-10-05T15:16:06.000Z</time>
      </trkpt>
      <trkpt lat="43.57738" lon="6.62472">
        <ele>290</ele>
        <time>2022-10-05T15:16:09.000Z</time>
      </trkpt>
      <trkpt lat="43.57741" lon="6.62469">
        <ele>290.5</ele>
        <time>2022-10-05T15:16:13.000Z</time>
      </trkpt>
      <trkpt lat="43.57744" lon="6.62466">
        <ele>290.8</ele>
        <time>2022-10-05T15:16:16.000Z</time>
      </trkpt>
      <trkpt lat="43.57747" lon="6.62462">
        <ele>291.2</ele>
        <time>2022-10-05T15:16:19.000Z</time>
      </trkpt>
      <trkpt lat="43.5775" lon="6.62458">
        <ele>291.5</ele>
        <time>2022-10-05T15:16:22.000Z</time>
      </trkpt>
      <trkpt lat="43.57753" lon="6.62453">
        <ele>291.9</ele>
        <time>2022-10-05T15:16:26.000Z</time>
      </trkpt>
      <trkpt lat="43.57755" lon="6.6245">
        <ele>292.1</ele>
        <time>2022-10-05T15:16:29.000Z</time>
      </trkpt>
      <trkpt lat="43.57758" lon="6.62446">
        <ele>292.3</ele>
        <time>2022-10-05T15:16:32.000Z</time>
      </trkpt>
      <trkpt lat="43.57762" lon="6.62442">
        <ele>292.5</ele>
        <time>2022-10-05T15:16:36.000Z</time>
      </trkpt>
      <trkpt lat="43.57765" lon="6.6244">
        <ele>292.8</ele>
        <time>2022-10-05T15:16:39.000Z</time>
      </trkpt>
      <trkpt lat="43.57768" lon="6.62437">
        <ele>293.1</ele>
        <time>2022-10-05T15:16:42.000Z</time>
      </trkpt>
      <trkpt lat="43.57771" lon="6.62434">
        <ele>293.3</ele>
        <time>2022-10-05T15:16:45.000Z</time>
      </trkpt>
      <trkpt lat="43.57772" lon="6.62433">
        <ele>293.4</ele>
        <time>2022-10-05T15:16:46.000Z</time>
      </trkpt>
      <trkpt lat="43.57775" lon="6.62425">
        <ele>293.7</ele>
        <time>2022-10-05T15:16:51.000Z</time>
      </trkpt>
      <trkpt lat="43.57777" lon="6.62421">
        <ele>293.9</ele>
        <time>2022-10-05T15:16:54.000Z</time>
      </trkpt>
      <trkpt lat="43.57779" lon="6.62417">
        <ele>294</ele>
        <time>2022-10-05T15:16:57.000Z</time>
      </trkpt>
      <trkpt lat="43.57781" lon="6.62414">
        <ele>294.2</ele>
        <time>2022-10-05T15:17:00.000Z</time>
      </trkpt>
      <trkpt lat="43.57783" lon="6.6241">
        <ele>294.4</ele>
        <time>2022-10-05T15:17:03.000Z</time>
      </trkpt>
      <trkpt lat="43.57786" lon="6.62406">
        <ele>294.7</ele>
        <time>2022-10-05T15:17:06.000Z</time>
      </trkpt>
      <trkpt lat="43.57788" lon="6.62402">
        <ele>294.9</ele>
        <time>2022-10-05T15:17:09.000Z</time>
      </trkpt>
      <trkpt lat="43.5779" lon="6.62397">
        <ele>295.1</ele>
        <time>2022-10-05T15:17:12.000Z</time>
      </trkpt>
      <trkpt lat="43.57792" lon="6.62392">
        <ele>295.3</ele>
        <time>2022-10-05T15:17:15.000Z</time>
      </trkpt>
      <trkpt lat="43.57795" lon="6.62388">
        <ele>295.4</ele>
        <time>2022-10-05T15:17:18.000Z</time>
      </trkpt>
      <trkpt lat="43.57797" lon="6.62383">
        <ele>295.5</ele>
        <time>2022-10-05T15:17:21.000Z</time>
      </trkpt>
      <trkpt lat="43.578" lon="6.62379">
        <ele>295.6</ele>
        <time>2022-10-05T15:17:24.000Z</time>
      </trkpt>
      <trkpt lat="43.57802" lon="6.62374">
        <ele>295.7</ele>
        <time>2022-10-05T15:17:27.000Z</time>
      </trkpt>
      <trkpt lat="43.57804" lon="6.62369">
        <ele>295.7</ele>
        <time>2022-10-05T15:17:30.000Z</time>
      </trkpt>
      <trkpt lat="43.57806" lon="6.62364">
        <ele>295.8</ele>
        <time>2022-10-05T15:17:33.000Z</time>
      </trkpt>
      <trkpt lat="43.57808" lon="6.62359">
        <ele>295.8</ele>
        <time>2022-10-05T15:17:36.000Z</time>
      </trkpt>
      <trkpt lat="43.5781" lon="6.62354">
        <ele>295.8</ele>
        <time>2022-10-05T15:17:39.000Z</time>
      </trkpt>
      <trkpt lat="43.57811" lon="6.62349">
        <ele>295.8</ele>
        <time>2022-10-05T15:17:42.000Z</time>
      </trkpt>
      <trkpt lat="43.57813" lon="6.62344">
        <ele>295.8</ele>
        <time>2022-10-05T15:17:45.000Z</time>
      </trkpt>
      <trkpt lat="43.57814" lon="6.62339">
        <ele>295.7</ele>
        <time>2022-10-05T15:17:48.000Z</time>
      </trkpt>
      <trkpt lat="43.57815" lon="6.62337">
        <ele>295.7</ele>
        <time>2022-10-05T15:17:49.000Z</time>
      </trkpt>
      <trkpt lat="43.57817" lon="6.62329">
        <ele>295.6</ele>
        <time>2022-10-05T15:17:54.000Z</time>
      </trkpt>
      <trkpt lat="43.57819" lon="6.62324">
        <ele>295.6</ele>
        <time>2022-10-05T15:17:57.000Z</time>
      </trkpt>
      <trkpt lat="43.57822" lon="6.6232">
        <ele>295.6</ele>
        <time>2022-10-05T15:18:00.000Z</time>
      </trkpt>
      <trkpt lat="43.57824" lon="6.62314">
        <ele>295.5</ele>
        <time>2022-10-05T15:18:03.000Z</time>
      </trkpt>
      <trkpt lat="43.57826" lon="6.6231">
        <ele>295.4</ele>
        <time>2022-10-05T15:18:06.000Z</time>
      </trkpt>
      <trkpt lat="43.57828" lon="6.62306">
        <ele>295.3</ele>
        <time>2022-10-05T15:18:08.000Z</time>
      </trkpt>
      <trkpt lat="43.5783" lon="6.62303">
        <ele>295</ele>
        <time>2022-10-05T15:18:10.000Z</time>
      </trkpt>
      <trkpt lat="43.57831" lon="6.62299">
        <ele>294.8</ele>
        <time>2022-10-05T15:18:12.000Z</time>
      </trkpt>
      <trkpt lat="43.57833" lon="6.62294">
        <ele>294.6</ele>
        <time>2022-10-05T15:18:15.000Z</time>
      </trkpt>
      <trkpt lat="43.57836" lon="6.6229">
        <ele>294.3</ele>
        <time>2022-10-05T15:18:18.000Z</time>
      </trkpt>
      <trkpt lat="43.57839" lon="6.62287">
        <ele>294.2</ele>
        <time>2022-10-05T15:18:21.000Z</time>
      </trkpt>
      <trkpt lat="43.57842" lon="6.62284">
        <ele>294</ele>
        <time>2022-10-05T15:18:24.000Z</time>
      </trkpt>
      <trkpt lat="43.57845" lon="6.62281">
        <ele>293.9</ele>
        <time>2022-10-05T15:18:27.000Z</time>
      </trkpt>
      <trkpt lat="43.57847" lon="6.62277">
        <ele>293.7</ele>
        <time>2022-10-05T15:18:30.000Z</time>
      </trkpt>
      <trkpt lat="43.5785" lon="6.62273">
        <ele>293.6</ele>
        <time>2022-10-05T15:18:33.000Z</time>
      </trkpt>
      <trkpt lat="43.57853" lon="6.62269">
        <ele>293.5</ele>
        <time>2022-10-05T15:18:36.000Z</time>
      </trkpt>
      <trkpt lat="43.57857" lon="6.62267">
        <ele>293.2</ele>
        <time>2022-10-05T15:18:39.000Z</time>
      </trkpt>
      <trkpt lat="43.57861" lon="6.62266">
        <ele>293.1</ele>
        <time>2022-10-05T15:18:41.000Z</time>
      </trkpt>
      <trkpt lat="43.57864" lon="6.62265">
        <ele>293</ele>
        <time>2022-10-05T15:18:43.000Z</time>
      </trkpt>
      <trkpt lat="43.57867" lon="6.62264">
        <ele>292.8</ele>
        <time>2022-10-05T15:18:46.000Z</time>
      </trkpt>
      <trkpt lat="43.5787" lon="6.62263">
        <ele>292.7</ele>
        <time>2022-10-05T15:18:48.000Z</time>
      </trkpt>
      <trkpt lat="43.57874" lon="6.62263">
        <ele>292.6</ele>
        <time>2022-10-05T15:18:51.000Z</time>
      </trkpt>
      <trkpt lat="43.57876" lon="6.62262">
        <ele>292.6</ele>
        <time>2022-10-05T15:18:52.000Z</time>
      </trkpt>
      <trkpt lat="43.57883" lon="6.62262">
        <ele>292.1</ele>
        <time>2022-10-05T15:18:58.000Z</time>
      </trkpt>
      <trkpt lat="43.57886" lon="6.62262">
        <ele>291.9</ele>
        <time>2022-10-05T15:19:01.000Z</time>
      </trkpt>
      <trkpt lat="43.5789" lon="6.62262">
        <ele>291.7</ele>
        <time>2022-10-05T15:19:04.000Z</time>
      </trkpt>
      <trkpt lat="43.57894" lon="6.62262">
        <ele>291.4</ele>
        <time>2022-10-05T15:19:07.000Z</time>
      </trkpt>
      <trkpt lat="43.57898" lon="6.62261">
        <ele>291.2</ele>
        <time>2022-10-05T15:19:10.000Z</time>
      </trkpt>
      <trkpt lat="43.57902" lon="6.6226">
        <ele>291</ele>
        <time>2022-10-05T15:19:12.000Z</time>
      </trkpt>
      <trkpt lat="43.57906" lon="6.6226">
        <ele>290.8</ele>
        <time>2022-10-05T15:19:15.000Z</time>
      </trkpt>
      <trkpt lat="43.5791" lon="6.6226">
        <ele>290.6</ele>
        <time>2022-10-05T15:19:18.000Z</time>
      </trkpt>
      <trkpt lat="43.57915" lon="6.6226">
        <ele>290.4</ele>
        <time>2022-10-05T15:19:21.000Z</time>
      </trkpt>
      <trkpt lat="43.57919" lon="6.6226">
        <ele>290.2</ele>
        <time>2022-10-05T15:19:24.000Z</time>
      </trkpt>
      <trkpt lat="43.57923" lon="6.6226">
        <ele>290.1</ele>
        <time>2022-10-05T15:19:27.000Z</time>
      </trkpt>
      <trkpt lat="43.57927" lon="6.6226">
        <ele>289.9</ele>
        <time>2022-10-05T15:19:30.000Z</time>
      </trkpt>
      <trkpt lat="43.57931" lon="6.6226">
        <ele>289.8</ele>
        <time>2022-10-05T15:19:33.000Z</time>
      </trkpt>
      <trkpt lat="43.57935" lon="6.6226">
        <ele>289.6</ele>
        <time>2022-10-05T15:19:36.000Z</time>
      </trkpt>
      <trkpt lat="43.57939" lon="6.6226">
        <ele>289.4</ele>
        <time>2022-10-05T15:19:39.000Z</time>
      </trkpt>
      <trkpt lat="43.57943" lon="6.62259">
        <ele>289.2</ele>
        <time>2022-10-05T15:19:43.000Z</time>
      </trkpt>
      <trkpt lat="43.57946" lon="6.62257">
        <ele>289</ele>
        <time>2022-10-05T15:19:46.000Z</time>
      </trkpt>
      <trkpt lat="43.57949" lon="6.62256">
        <ele>289</ele>
        <time>2022-10-05T15:19:48.000Z</time>
      </trkpt>
      <trkpt lat="43.57953" lon="6.62256">
        <ele>288.9</ele>
        <time>2022-10-05T15:19:50.000Z</time>
      </trkpt>
      <trkpt lat="43.57957" lon="6.62254">
        <ele>288.8</ele>
        <time>2022-10-05T15:19:53.000Z</time>
      </trkpt>
      <trkpt lat="43.57958" lon="6.62254">
        <ele>288.8</ele>
        <time>2022-10-05T15:19:54.000Z</time>
      </trkpt>
      <trkpt lat="43.57964" lon="6.62251">
        <ele>288.6</ele>
        <time>2022-10-05T15:19:59.000Z</time>
      </trkpt>
      <trkpt lat="43.57968" lon="6.62249">
        <ele>288.6</ele>
        <time>2022-10-05T15:20:02.000Z</time>
      </trkpt>
      <trkpt lat="43.57971" lon="6.62247">
        <ele>288.5</ele>
        <time>2022-10-05T15:20:05.000Z</time>
      </trkpt>
      <trkpt lat="43.57975" lon="6.62245">
        <ele>288.4</ele>
        <time>2022-10-05T15:20:08.000Z</time>
      </trkpt>
      <trkpt lat="43.57978" lon="6.62244">
        <ele>288.3</ele>
        <time>2022-10-05T15:20:11.000Z</time>
      </trkpt>
      <trkpt lat="43.57982" lon="6.62242">
        <ele>288.3</ele>
        <time>2022-10-05T15:20:14.000Z</time>
      </trkpt>
      <trkpt lat="43.57987" lon="6.62242">
        <ele>288.2</ele>
        <time>2022-10-05T15:20:17.000Z</time>
      </trkpt>
      <trkpt lat="43.5799" lon="6.62241">
        <ele>288</ele>
        <time>2022-10-05T15:20:20.000Z</time>
      </trkpt>
      <trkpt lat="43.57994" lon="6.6224">
        <ele>287.7</ele>
        <time>2022-10-05T15:20:24.000Z</time>
      </trkpt>
      <trkpt lat="43.57998" lon="6.6224">
        <ele>287.5</ele>
        <time>2022-10-05T15:20:27.000Z</time>
      </trkpt>
      <trkpt lat="43.58002" lon="6.62241">
        <ele>287.3</ele>
        <time>2022-10-05T15:20:30.000Z</time>
      </trkpt>
      <trkpt lat="43.58006" lon="6.62241">
        <ele>287.2</ele>
        <time>2022-10-05T15:20:33.000Z</time>
      </trkpt>
      <trkpt lat="43.5801" lon="6.62241">
        <ele>287.1</ele>
        <time>2022-10-05T15:20:36.000Z</time>
      </trkpt>
      <trkpt lat="43.58013" lon="6.62241">
        <ele>286.9</ele>
        <time>2022-10-05T15:20:39.000Z</time>
      </trkpt>
      <trkpt lat="43.58017" lon="6.62243">
        <ele>286.7</ele>
        <time>2022-10-05T15:20:42.000Z</time>
      </trkpt>
      <trkpt lat="43.5802" lon="6.62245">
        <ele>286.4</ele>
        <time>2022-10-05T15:20:45.000Z</time>
      </trkpt>
      <trkpt lat="43.58023" lon="6.6225">
        <ele>286</ele>
        <time>2022-10-05T15:20:50.000Z</time>
      </trkpt>
      <trkpt lat="43.58026" lon="6.62253">
        <ele>285.6</ele>
        <time>2022-10-05T15:20:54.000Z</time>
      </trkpt>
      <trkpt lat="43.58027" lon="6.62254">
        <ele>285.5</ele>
        <time>2022-10-05T15:20:55.000Z</time>
      </trkpt>
      <trkpt lat="43.58032" lon="6.62261">
        <ele>285</ele>
        <time>2022-10-05T15:21:02.000Z</time>
      </trkpt>
      <trkpt lat="43.58035" lon="6.62264">
        <ele>284.6</ele>
        <time>2022-10-05T15:21:09.000Z</time>
      </trkpt>
      <trkpt lat="43.58039" lon="6.62266">
        <ele>284.5</ele>
        <time>2022-10-05T15:21:13.000Z</time>
      </trkpt>
    </trkseg>
  </trk>
</gpx>